[[{"header":{"parameterUnit":"m.s-1","parameterCategory":1,"la1":31.0,"la2":29.5877,"lo1":-88.7671,"lo2":-86.6584,"dx":0.0162,"dy":0.0185,"nx":115,"ny":88,"refTime":"2023-02-07T06:00:00:Z","depth":0,"parameterNumber":2,"parameterNumberName":"U-component_of_WINDS"},"data":[0.0,0.0,0.0,0.0,0.0,0.0,0.0,0.0,0.0,0.0,0.0,0.0,0.0,0.0,0.0,0.0,0.0,0.0,0.0,0.0,0.0,0.0,0.0,0.0,0.0,0.0,0.0,0.0,0.0,0.0,0.0,0.0,0.0,0.0,0.0,0.0,0.0,0.0,0.0,0.0,0.0,0.0,0.0,0.0,0.0,0.0,0.0,0.0,0.0,0.0,0.0,0.0,0.0,0.0,0.0,0.0,0.0,0.0,0.0,0.0,0.0,0.0,0.0,0.0,0.0,0.0,0.0,0.0,0.0,0.0,0.0,0.0,0.0,0.0,0.0,0.0,0.0,0.0,0.0,0.0,0.0,0.0,0.0,0.0,0.0,0.0,0.0,0.0,0.0,0.0,0.0,0.0,0.0,0.0,0.0,0.0,0.0,0.0,0.0,0.0,0.0,0.0,0.0,0.0,0.0,0.0,0.0,0.0,0.0,0.0,0.0,0.0,0.0,0.0,0.0,0.0,0.0,0.0,0.0,0.0,0.0,0.0,0.0,0.0,0.0,0.0,0.0,0.0,0.0,0.0,0.0,0.0,0.0,0.0,0.0,0.0,0.0,0.0,0.0,0.0,0.0,0.0,0.0,0.0,0.0,0.0,0.0,0.0,0.0,0.0,0.0,0.0,0.0,0.0,0.0,0.0,0.0,0.0,0.0,0.0,0.0,0.0,0.0,0.0,0.0,0.0,0.0,0.0,0.0,0.0,0.0,0.0,0.0,0.0,0.0,0.0,0.0,0.0,0.0,0.0,0.0,0.0,0.0,0.0,0.0,0.0,0.0,0.0,0.0,0.0,0.0,0.0,0.0,0.0,0.0,0.0,0.0,0.0,0.0,0.0,0.0,0.0,0.0,0.0,0.0,0.0,0.0,0.0,0.0,0.0,0.0,0.0,0.0,0.0,0.0,0.0,0.0,0.0,0.0,0.0,0.0,0.0,0.0,0.0,0.0,0.0,0.0,0.0,0.0,0.0,0.0,0.0,0.0,0.0,0.0,0.0,0.0,0.0,0.0,0.0,0.0,0.0,0.0,0.0,0.0,0.0,0.0,0.0,0.0,0.0,0.0,0.0,0.0,0.0,0.0,0.0,0.0,0.0,0.0,0.0,0.0,0.0,0.0,0.0,0.0,0.0,0.0,0.0,0.0,0.0,0.0,0.0,0.0,0.0,0.0,0.0,0.0,0.0,0.0,0.0,0.0,0.0,0.0,0.0,0.0,0.0,0.0,0.0,0.0,0.0,0.0,0.0,0.0,0.0,0.0,0.0,0.0,0.0,0.0,0.0,0.0,0.0,0.0,0.0,0.0,0.0,0.0,0.0,0.0,0.0,0.0,0.0,0.0,0.0,0.0,0.0,0.0,0.0,0.0,0.0,0.0,0.0,0.0,0.0,0.0,0.0,0.0,0.0,0.0,0.0,0.0,0.0,0.0,0.0,0.0,0.0,0.0,0.0,0.0,0.0,0.0,0.0,0.0,0.0,0.0,0.0,0.0,0.0,0.0,0.0,0.0,0.0,0.0,0.0,0.0,0.0,0.0,0.0,0.0,0.0,0.0,0.0,0.0,0.0,0.0,0.0,0.0,0.0,0.0,0.0,0.0,0.0,0.0,0.0,0.0,0.0,0.0,0.0,0.0,0.0,0.0,0.0,0.0,0.0,0.0,0.0,0.0,0.0,0.0,0.0,0.0,0.0,0.0,0.0,0.0,0.0,0.0,0.0,0.0,0.0,0.0,0.0,0.0,0.0,0.0,0.0,0.0,0.0,0.0,0.0,0.0,0.0,0.0,0.0,0.0,0.0,0.0,0.0,0.0,0.0,0.0,0.0,0.0,0.0,0.0,0.0,0.0,0.0,0.0,0.0,0.0,0.0,0.0,0.0,0.0,0.0,0.0,0.0,0.0,0.0,0.0,0.0,0.0,0.0,0.0,0.0,0.0,0.0,0.0,0.0,0.0,0.0,0.0,0.0,0.0,0.0,0.0,0.0,0.0,0.0,0.0,0.0,0.0,0.0,0.0,0.0,0.0,0.0,0.0,0.0,0.0,0.0,0.0,0.0,0.0,0.0,0.0,0.0,0.0,0.0,0.0,0.0,0.0,0.0,0.0,0.0,0.0,0.0,0.0,0.0,0.0,0.0,0.0,0.0,0.0,0.0,0.0,0.0,0.0,0.0,0.0,0.0,0.0,0.0,0.0,0.0,0.0,0.0,0.0,0.0,0.0,0.0,0.0,0.0,0.0,0.0,0.0,0.0,0.0,0.0,0.0,0.0,0.0,0.0,0.0,0.0,0.0,0.0,0.0,0.0,0.0,0.0,0.0,0.0,0.0,0.0,0.0,0.0,0.0,0.0,0.0,0.0,0.0,0.0,0.0,0.0,0.0,0.0,0.0,0.0,0.0,0.0,0.0,0.0,0.0,0.0,0.0,0.0,0.0,0.0,0.0,0.0,0.0,0.0,0.0,0.0,0.0,0.0,0.0,0.0,0.0,0.0,0.0,0.0,0.0,0.0,0.0,0.0,0.0,0.0,0.0,0.0,0.0,0.0,0.0,0.0,0.0,0.0,0.0,0.0,0.0,0.0,0.0,0.0,0.0,0.0,0.0,0.0,0.0,0.0,0.0,0.0,0.0,0.0,0.0,0.0,0.0,0.0,0.0,0.0,0.0,0.0,0.0,0.0,0.0,0.0,0.0,0.0,0.0,0.0,0.0,0.0,0.0,0.0,0.0,0.0,0.0,0.0,0.0,0.0,0.0,0.0,0.0,0.0,0.0,0.0,0.0,0.0,0.0,0.0,0.0,0.0,0.0,0.0,0.0,0.0,0.0,0.0,0.0,0.0,0.0,0.0,0.0,0.0,0.0,0.0,0.0,0.0,0.0,0.0,0.0,0.0,0.0,0.0,0.0,0.0,0.0,0.0,0.0,0.0,0.0,0.0,0.0,0.0,0.0,0.0,0.0,0.0,0.0,0.0,0.0,0.0,0.0,0.0,0.0,0.0,0.0,0.0,0.0,0.0,0.0,0.0,0.0,0.0,0.0,0.0,0.0,0.0,0.0,0.0,0.0,0.0,0.0,0.0,0.0,0.0,0.0,0.0,0.0,0.0,0.0,0.0,0.0,0.0,0.0,0.0,0.0,0.0,0.0,0.0,0.0,0.0,0.0,0.0,0.0,0.0,0.0,0.0,0.0,0.0,0.0,0.0,0.0,0.0,0.0,0.0,0.0,0.0,0.0,0.0,0.0,0.0,0.0,0.0,0.0,0.0,0.0,0.0,0.0,0.0,0.0,0.0,0.0,0.0,0.0,0.0,0.0,0.0,0.0,0.0,0.0,0.0,0.0,0.0,0.0,0.0,0.0,0.0,0.0,0.0,0.0,0.0,0.0,0.0,0.0,0.0,0.0,0.0,0.0,0.0,0.0,0.0,0.0,0.0,0.0,0.0,0.0,0.0,0.0,0.0,0.0,0.0,0.0,0.0,0.0,0.0,0.0,0.0,0.0,0.0,0.0,0.0,0.0,0.0,0.0,0.0,0.0,0.0,0.0,0.0,0.0,0.0,0.0,0.0,0.0,0.0,0.0,0.0,0.0,0.0,0.0,0.0,0.0,0.0,0.0,0.0,0.0,0.0,0.0,0.0,0.0,0.0,0.0,0.0,0.0,0.0,0.0,0.0,0.0,0.0,0.0,0.0,0.0,0.0,0.0,0.0,0.0,0.0,0.0,0.0,0.0,0.0,0.0,0.0,0.0,0.0,0.0,0.0,0.0,0.0,0.0,0.0,0.0,0.0,0.0,0.0,0.0,0.0,0.0,0.0,0.0,0.0,0.0,0.0,0.0,0.0,0.0,0.0,0.0,0.0,0.0,0.0,0.0,0.0,0.0,0.0,0.0,0.0,0.0,0.0,0.0,0.0,0.0,0.0,0.0,0.0,0.0,0.0,0.0,0.0,0.0,0.0,0.0,0.0,0.0,0.0,0.0,0.0,0.0,0.0,0.0,0.0,0.0,0.0,0.0,0.0,0.0,0.0,0.0,0.0,0.0,0.0,0.0,0.0,0.0,0.0,0.0,0.0,0.0,0.0,0.0,0.0,0.0,0.0,0.0,0.0,0.0,0.0,0.0,0.0,0.0,0.0,0.0,0.0,0.0,0.0,0.0,0.0,0.0,0.0,0.0,0.0,0.0,0.0,0.0,0.0,0.0,0.0,0.0,0.0,0.0,0.0,0.0,0.0,0.0,0.0,2.5723,0.0,0.0,0.0,0.0,0.0,0.0,0.0,0.0,0.0,0.0,0.0,0.0,0.0,0.0,0.0,0.0,0.0,0.0,0.0,0.0,0.0,0.0,0.0,0.0,0.0,0.0,0.0,0.0,0.0,0.0,0.0,0.0,0.0,0.0,0.0,0.0,0.0,0.0,0.0,0.0,0.0,0.0,0.0,0.0,0.0,0.0,0.0,0.0,0.0,0.0,0.0,0.0,0.0,0.0,0.0,0.0,0.0,0.0,0.0,0.0,0.0,0.0,0.0,0.0,0.0,0.0,0.0,0.0,0.0,0.0,0.0,0.0,0.0,0.0,0.0,0.0,0.0,0.0,0.0,0.0,0.0,0.0,0.0,0.0,0.0,0.0,0.0,0.0,0.0,0.0,0.0,0.0,0.0,0.0,0.0,0.0,0.0,0.0,0.0,0.0,0.0,0.0,0.0,0.0,0.0,0.0,0.0,0.0,0.0,0.0,2.5723,2.5723,2.5723,2.5723,2.5723,0.0,0.0,0.0,0.0,0.0,0.0,0.0,0.0,0.0,0.0,0.0,0.0,0.0,0.0,0.0,0.0,0.0,0.0,0.0,0.0,0.0,0.0,0.0,0.0,0.0,0.0,0.0,0.0,0.0,0.0,0.0,0.0,0.0,0.0,0.0,0.0,0.0,0.0,0.0,0.0,0.0,0.0,0.0,0.0,0.0,0.0,0.0,0.0,0.0,0.0,0.0,0.0,0.0,0.0,0.0,0.0,0.0,0.0,0.0,0.0,0.0,0.0,0.0,0.0,0.0,0.0,0.0,0.0,0.0,0.0,0.0,0.0,0.0,0.0,0.0,0.0,0.0,0.0,0.0,0.0,0.0,0.0,0.0,0.0,0.0,0.0,0.0,0.0,0.0,0.0,0.0,0.0,0.0,0.0,0.0,0.0,0.0,0.0,0.0,0.0,0.0,0.0,0.0,0.0,0.0,0.0,0.0,0.0,0.0,0.0,0.0,0.0,2.5723,2.5723,2.5723,0.0,0.0,0.0,0.0,0.0,0.0,0.0,0.0,0.0,0.0,0.0,0.0,0.0,0.0,0.0,0.0,0.0,0.0,0.0,0.0,0.0,0.0,0.0,0.0,0.0,0.0,0.0,0.0,0.0,0.0,0.0,0.0,0.0,0.0,0.0,0.0,0.0,0.0,0.0,0.0,0.0,0.0,0.0,0.0,0.0,0.0,0.0,0.0,0.0,0.0,0.0,0.0,0.0,0.0,0.0,0.0,0.0,0.0,0.0,0.0,0.0,0.0,0.0,0.0,0.0,0.0,0.0,0.0,0.0,0.0,0.0,0.0,0.0,0.0,0.0,0.0,0.0,0.0,0.0,0.0,0.0,0.0,0.0,0.0,0.0,0.0,0.0,0.0,0.0,0.0,0.0,0.0,0.0,0.0,0.0,0.0,0.0,0.0,0.0,0.0,0.0,0.0,0.0,0.0,0.0,0.0,0.0,0.0,0.0,0.0,2.5723,2.5723,2.5723,0.0,2.5723,0.0,0.0,0.0,0.0,0.0,0.0,0.0,0.0,0.0,0.0,0.0,0.0,0.0,0.0,0.0,0.0,0.0,0.0,0.0,0.0,0.0,0.0,0.0,0.0,0.0,0.0,0.0,0.0,0.0,0.0,0.0,0.0,0.0,0.0,0.0,0.0,0.0,0.0,0.0,0.0,0.0,0.0,0.0,0.0,0.0,0.0,0.0,0.0,0.0,0.0,0.0,0.0,0.0,0.0,0.0,0.0,0.0,0.0,0.0,0.0,0.0,0.0,0.0,0.0,0.0,0.0,0.0,0.0,0.0,0.0,0.0,0.0,0.0,0.0,0.0,0.0,0.0,0.0,0.0,0.0,0.0,0.0,0.0,0.0,0.0,0.0,0.0,0.0,0.0,0.0,0.0,0.0,0.0,0.0,0.0,0.0,0.0,0.0,0.0,0.0,0.0,0.0,0.0,0.0,0.0,0.0,0.0,0.0,0.0,0.0,2.5723,2.5723,2.5723,2.5723,0.0,0.0,0.0,0.0,0.0,0.0,0.0,0.0,0.0,0.0,0.0,0.0,0.0,0.0,0.0,0.0,0.0,0.0,0.0,0.0,0.0,0.0,0.0,0.0,0.0,0.0,0.0,0.0,0.0,0.0,0.0,0.0,0.0,0.0,0.0,0.0,0.0,0.0,0.0,0.0,0.0,0.0,0.0,0.0,0.0,0.0,0.0,0.0,0.0,0.0,0.0,0.0,0.0,0.0,0.0,0.0,0.0,0.0,0.0,0.0,0.0,0.0,0.0,0.0,0.0,0.0,0.0,0.0,0.0,0.0,0.0,0.0,0.0,0.0,0.0,0.0,0.0,0.0,0.0,0.0,0.0,0.0,0.0,0.0,0.0,0.0,0.0,0.0,0.0,0.0,0.0,0.0,0.0,0.0,0.0,0.0,0.0,0.0,0.0,0.0,0.0,0.0,0.0,0.0,0.0,0.0,0.0,0.0,0.0,0.0,2.5723,2.5723,2.5723,2.5723,2.5723,2.5723,0.0,0.0,0.0,0.0,0.0,0.0,0.0,0.0,0.0,0.0,0.0,0.0,0.0,0.0,0.0,0.0,0.0,0.0,0.0,0.0,0.0,0.0,0.0,0.0,0.0,0.0,0.0,0.0,0.0,0.0,0.0,0.0,0.0,0.0,0.0,0.0,0.0,0.0,0.0,0.0,0.0,0.0,0.0,0.0,0.0,0.0,0.0,0.0,0.0,0.0,0.0,0.0,0.0,0.0,0.0,0.0,0.0,0.0,0.0,0.0,0.0,0.0,0.0,0.0,0.0,0.0,0.0,0.0,0.0,0.0,0.0,0.0,0.0,0.0,0.0,0.0,0.0,0.0,0.0,0.0,0.0,0.0,0.0,0.0,0.0,0.0,0.0,0.0,0.0,0.0,0.0,0.0,0.0,0.0,0.0,0.0,0.0,0.0,0.0,0.0,0.0,0.0,0.0,0.0,0.0,0.0,0.0,0.0,2.5723,2.5723,2.5723,2.5723,2.5723,2.5723,0.0,0.0,0.0,0.0,0.0,0.0,0.0,0.0,0.0,0.0,0.0,0.0,0.0,0.0,0.0,0.0,0.0,0.0,0.0,0.0,0.0,0.0,0.0,0.0,0.0,0.0,0.0,0.0,0.0,0.0,0.0,0.0,0.0,0.0,0.0,0.0,0.0,0.0,0.0,0.0,0.0,0.0,0.0,0.0,0.0,0.0,0.0,0.0,0.0,0.0,0.0,0.0,0.0,0.0,0.0,0.0,0.0,0.0,0.0,0.0,0.0,0.0,0.0,0.0,0.0,0.0,0.0,0.0,0.0,0.0,0.0,0.0,0.0,0.0,0.0,0.0,0.0,0.0,0.0,0.0,0.0,0.0,0.0,0.0,0.0,0.0,0.0,0.0,0.0,0.0,0.0,0.0,0.0,0.0,0.0,0.0,0.0,0.0,0.0,0.0,0.0,0.0,0.0,0.0,0.0,0.0,0.0,0.0,0.0,2.5723,2.5723,2.5723,2.5723,2.5723,2.5723,0.0,0.0,0.0,0.0,0.0,0.0,0.0,0.0,0.0,0.0,0.0,0.0,0.0,0.0,0.0,0.0,0.0,0.0,0.0,0.0,0.0,0.0,0.0,0.0,0.0,0.0,0.0,0.0,0.0,0.0,0.0,0.0,0.0,0.0,0.0,0.0,0.0,0.0,0.0,0.0,0.0,0.0,0.0,0.0,0.0,0.0,0.0,0.0,0.0,0.0,0.0,0.0,0.0,0.0,0.0,0.0,0.0,0.0,0.0,0.0,0.0,0.0,0.0,0.0,0.0,0.0,0.0,0.0,0.0,0.0,0.0,0.0,0.0,0.0,0.0,0.0,0.0,0.0,0.0,0.0,0.0,0.0,0.0,0.0,0.0,0.0,0.0,0.0,0.0,0.0,0.0,0.0,0.0,0.0,0.0,0.0,0.0,0.0,0.0,0.0,0.0,0.0,0.0,0.0,0.0,0.0,0.0,0.0,0.0,2.5723,0.0,2.5723,2.5723,2.5723,2.5723,0.0,0.0,0.0,0.0,0.0,0.0,0.0,0.0,0.0,0.0,0.0,0.0,0.0,0.0,0.0,0.0,0.0,0.0,0.0,0.0,0.0,0.0,0.0,0.0,0.0,0.0,0.0,0.0,0.0,0.0,0.0,0.0,0.0,0.0,0.0,0.0,0.0,0.0,0.0,0.0,0.0,0.0,0.0,0.0,0.0,0.0,0.0,0.0,0.0,0.0,0.0,0.0,0.0,0.0,0.0,0.0,0.0,0.0,0.0,0.0,0.0,0.0,0.0,0.0,0.0,0.0,0.0,0.0,0.0,0.0,0.0,0.0,0.0,0.0,0.0,0.0,0.0,0.0,0.0,0.0,0.0,0.0,0.0,0.0,0.0,0.0,0.0,0.0,0.0,0.0,0.0,0.0,0.0,0.0,0.0,0.0,0.0,0.0,0.0,0.0,0.0,0.0,0.0,0.0,0.0,0.0,0.0,0.0,2.5742,2.5723,2.5723,2.5723,2.5723,2.5723,2.5723,0.0,0.0,0.0,0.0,0.0,0.0,0.0,0.0,0.0,0.0,0.0,0.0,0.0,0.0,0.0,0.0,0.0,0.0,0.0,0.0,0.0,0.0,0.0,0.0,0.0,0.0,0.0,0.0,0.0,0.0,0.0,0.0,0.0,0.0,0.0,0.0,0.0,0.0,0.0,0.0,0.0,0.0,0.0,0.0,0.0,0.0,0.0,0.0,0.0,0.0,0.0,0.0,0.0,0.0,0.0,0.0,0.0,0.0,0.0,0.0,0.0,0.0,0.0,0.0,0.0,0.0,0.0,0.0,0.0,0.0,0.0,0.0,0.0,0.0,0.0,0.0,0.0,0.0,0.0,0.0,0.0,0.0,0.0,0.0,0.0,0.0,0.0,0.0,0.0,0.0,0.0,0.0,0.0,0.0,0.0,0.0,0.0,0.0,0.0,0.0,0.0,0.0,0.0,0.0,0.0,0.0,0.0,0.0,0.0,2.5742,2.5723,2.5723,2.5723,2.5723,2.5723,0.0,0.0,0.0,0.0,0.0,0.0,0.0,0.0,0.0,0.0,0.0,0.0,0.0,0.0,0.0,0.0,0.0,0.0,0.0,0.0,0.0,0.0,0.0,0.0,0.0,0.0,0.0,0.0,0.0,0.0,0.0,0.0,0.0,0.0,0.0,0.0,0.0,0.0,0.0,0.0,0.0,0.0,0.0,0.0,0.0,0.0,0.0,0.0,0.0,0.0,0.0,0.0,0.0,0.0,0.0,0.0,0.0,0.0,0.0,0.0,0.0,0.0,0.0,0.0,0.0,0.0,0.0,0.0,0.0,0.0,0.0,0.0,0.0,0.0,0.0,0.0,0.0,0.0,0.0,0.0,0.0,0.0,0.0,0.0,0.0,0.0,0.0,0.0,0.0,0.0,0.0,0.0,0.0,0.0,0.0,0.0,0.0,0.0,0.0,0.0,0.0,0.0,0.0,0.0,0.0,0.0,0.0,0.0,0.0,2.6211,2.6211,2.6211,2.6211,2.6074,2.5977,2.5977,0.0,0.0,0.0,0.0,0.0,0.0,0.0,0.0,0.0,0.0,0.0,0.0,0.0,0.0,0.0,0.0,0.0,0.0,0.0,0.0,0.0,0.0,0.0,0.0,0.0,0.0,0.0,0.0,0.0,0.0,0.0,0.0,0.0,0.0,0.0,0.0,0.0,0.0,0.0,0.0,0.0,0.0,0.0,0.0,0.0,0.0,0.0,0.0,0.0,0.0,0.0,0.0,0.0,0.0,0.0,0.0,0.0,0.0,0.0,0.0,0.0,0.0,0.0,0.0,0.0,0.0,0.0,0.0,0.0,0.0,0.0,0.0,0.0,0.0,0.0,0.0,0.0,0.0,0.0,0.0,0.0,0.0,0.0,0.0,0.0,0.0,0.0,0.0,0.0,0.0,0.0,0.0,0.0,0.0,0.0,0.0,0.0,0.0,0.0,0.0,0.0,0.0,0.0,0.0,0.0,0.0,0.0,0.0,2.7031,2.707,2.7051,2.6992,2.6602,2.6387,0.0,0.0,0.0,0.0,0.0,0.0,0.0,0.0,0.0,0.0,0.0,0.0,0.0,0.0,0.0,0.0,0.0,0.0,0.0,0.0,0.0,0.0,0.0,0.0,0.0,0.0,0.0,0.0,0.0,0.0,0.0,0.0,0.0,0.0,0.0,0.0,0.0,0.0,0.0,0.0,0.0,0.0,0.0,0.0,0.0,0.0,0.0,0.0,0.0,0.0,0.0,0.0,0.0,0.0,0.0,0.0,0.0,0.0,0.0,0.0,0.0,0.0,0.0,0.0,0.0,0.0,0.0,0.0,0.0,0.0,0.0,0.0,0.0,0.0,0.0,0.0,0.0,0.0,0.0,0.0,0.0,0.0,0.0,0.0,0.0,0.0,0.0,0.0,0.0,0.0,0.0,0.0,0.0,0.0,0.0,0.0,0.0,0.0,0.0,0.0,0.0,0.0,0.0,0.0,0.0,0.0,0.0,0.0,0.0,2.748,2.7793,2.7656,2.7031,2.6602,2.6287,0.0,0.0,0.0,0.0,0.0,0.0,0.0,0.0,0.0,0.0,0.0,0.0,0.0,0.0,0.0,0.0,0.0,0.0,0.0,0.0,0.0,0.0,0.0,0.0,0.0,0.0,0.0,0.0,0.0,0.0,0.0,0.0,0.0,0.0,0.0,0.0,0.0,0.0,0.0,0.0,0.0,0.0,0.0,0.0,0.0,0.0,0.0,0.0,0.0,0.0,0.0,0.0,0.0,0.0,0.0,0.0,0.0,0.0,0.0,0.0,0.0,0.0,0.0,0.0,0.0,0.0,0.0,0.0,0.0,0.0,0.0,0.0,0.0,0.0,0.0,0.0,0.0,0.0,0.0,0.0,0.0,0.0,0.0,0.0,0.0,0.0,0.0,0.0,0.0,0.0,0.0,0.0,0.0,0.0,0.0,0.0,0.0,0.0,0.0,0.0,0.0,0.0,0.0,0.0,0.0,0.0,0.0,0.0,2.75,2.791,2.8164,2.8066,2.7578,2.7026,2.6613,0.0,0.0,0.0,0.0,0.0,0.0,0.0,0.0,0.0,0.0,0.0,0.0,0.0,0.0,0.0,0.0,0.0,0.0,0.0,0.0,0.0,0.0,0.0,0.0,0.0,0.0,0.0,0.0,0.0,0.0,0.0,0.0,0.0,0.0,0.0,0.0,0.0,0.0,0.0,0.0,0.0,0.0,0.0,0.0,0.0,0.0,0.0,0.0,0.0,0.0,0.0,0.0,0.0,0.0,0.0,0.0,0.0,0.0,0.0,0.0,0.0,0.0,0.0,0.0,0.0,0.0,0.0,0.0,0.0,0.0,0.0,0.0,0.0,0.0,0.0,0.0,0.0,0.0,0.0,0.0,0.0,0.0,0.0,0.0,0.0,0.0,0.0,0.0,0.0,0.0,0.0,0.0,0.0,0.0,0.0,0.0,0.0,0.0,0.0,0.0,0.0,0.0,0.0,0.0,0.0,0.0,0.0,0.0,2.7871,2.8281,2.8301,2.8301,2.8281,2.7554,2.7006,0.0,0.0,0.0,0.0,0.0,0.0,0.0,0.0,0.0,0.0,0.0,0.0,0.0,0.0,0.0,0.0,0.0,0.0,0.0,0.0,0.0,0.0,0.0,0.0,0.0,0.0,0.0,0.0,0.0,0.0,0.0,0.0,0.0,0.0,0.0,0.0,0.0,0.0,0.0,0.0,0.0,0.0,0.0,0.0,0.0,0.0,0.0,0.0,0.0,0.0,0.0,0.0,0.0,0.0,0.0,0.0,0.0,0.0,0.0,0.0,0.0,0.0,0.0,0.0,0.0,0.0,0.0,0.0,0.0,0.0,0.0,0.0,0.0,0.0,0.0,0.0,0.0,0.0,0.0,0.0,0.0,0.0,0.0,0.0,0.0,0.0,0.0,0.0,0.0,0.0,0.0,0.0,0.0,0.0,0.0,0.0,0.0,0.0,0.0,0.0,0.0,0.0,0.0,0.0,0.0,0.0,0.0,0.0,2.7727,2.8281,2.8301,2.8174,2.796,2.7429,2.6902,0.0,0.0,0.0,0.0,0.0,0.0,0.0,0.0,0.0,0.0,0.0,0.0,0.0,0.0,0.0,0.0,0.0,0.0,0.0,0.0,0.0,0.0,0.0,0.0,0.0,0.0,0.0,0.0,0.0,0.0,0.0,0.0,0.0,0.0,0.0,0.0,0.0,0.0,0.0,0.0,0.0,0.0,0.0,0.0,0.0,0.0,0.0,0.0,1.7248,0.0,0.0,0.0,0.0,0.0,0.0,0.0,0.0,0.0,0.0,0.0,0.0,0.0,0.0,0.0,0.0,0.0,0.0,0.0,0.0,0.0,0.0,0.0,0.0,0.0,0.0,0.0,0.0,0.0,0.0,0.0,0.0,0.0,0.0,0.0,0.0,0.0,0.0,0.0,0.0,0.0,0.0,0.0,0.0,0.0,0.0,0.0,0.0,0.0,0.0,0.0,0.0,0.0,0.0,0.0,0.0,0.0,0.0,0.0,2.7941,2.8281,2.8174,2.8067,2.796,2.7409,2.6692,0.0,0.0,0.0,0.0,0.0,0.0,0.0,0.0,0.0,0.0,0.0,0.0,0.0,0.0,0.0,0.0,0.0,0.0,0.0,0.0,0.0,0.0,0.0,0.0,0.0,0.0,0.0,0.0,0.0,0.0,0.0,0.0,0.0,0.0,0.0,0.0,0.0,0.0,0.0,0.0,0.0,0.0,0.0,0.0,0.0,0.0,0.0,0.0,0.0,0.0,0.0,0.0,0.0,0.0,0.0,0.0,0.0,0.0,0.0,0.0,0.0,0.0,0.0,0.0,0.0,0.0,0.0,0.0,0.0,0.0,0.0,0.0,0.0,0.0,0.0,0.0,0.0,0.0,0.0,0.0,0.0,0.0,0.0,0.0,0.0,0.0,0.0,0.0,0.0,0.0,0.0,0.0,0.0,0.0,0.0,0.0,0.0,0.0,0.0,0.0,0.0,0.0,0.0,0.0,0.0,0.0,0.0,2.8074,2.8418,2.8291,2.8057,2.7949,2.7841,2.7243,2.6402,2.5295,0.0,0.0,0.0,0.0,0.0,0.0,0.0,0.0,0.0,0.0,0.0,0.0,0.0,0.0,0.0,0.0,0.0,0.0,0.0,0.0,0.0,0.0,0.0,0.0,0.0,0.0,0.0,0.0,0.0,0.0,0.0,0.0,0.0,0.0,0.0,0.0,0.0,0.0,1.7582,1.7582,0.0,0.0,0.0,0.0,0.0,0.0,0.0,0.0,1.6767,0.0,0.0,0.0,0.0,0.0,0.0,0.0,0.0,0.0,0.0,0.0,0.0,0.0,0.0,0.0,0.0,0.0,0.0,0.0,0.0,0.0,0.0,0.0,0.0,0.0,0.0,0.0,0.0,0.0,0.0,0.0,0.0,0.0,0.0,0.0,0.0,0.0,0.0,0.0,0.0,0.0,0.0,0.0,0.0,0.0,0.0,0.0,0.0,0.0,0.0,0.0,0.0,0.0,0.0,0.0,0.0,2.7559,2.8799,2.9144,2.852,2.841,2.8191,2.7622,2.7048,2.5973,2.4474,0.0,0.0,0.0,0.0,0.0,0.0,0.0,0.0,0.0,0.0,0.0,0.0,0.0,0.0,0.0,0.0,0.0,0.0,0.0,0.0,0.0,0.0,0.0,0.0,0.0,0.0,0.0,0.0,0.0,0.0,0.0,0.0,0.0,0.0,0.0,0.0,0.0,0.0,0.0,1.7582,1.7582,0.0,0.0,0.0,0.0,0.0,0.0,0.0,0.0,1.662,0.0,0.0,0.0,0.0,0.0,0.0,0.0,0.0,0.0,0.0,0.0,0.0,0.0,0.0,0.0,0.0,0.0,0.0,0.0,0.0,0.0,0.0,0.0,0.0,0.0,0.0,0.0,0.0,0.0,0.0,0.0,0.0,0.0,0.0,0.0,0.0,0.0,0.0,0.0,0.0,0.0,0.0,0.0,0.0,0.0,0.0,0.0,0.0,0.0,0.0,0.0,0.0,0.0,0.0,0.0,2.7676,2.8555,2.8894,2.8526,2.8385,2.8051,2.7401,2.6755,2.5628,0.0,0.0,0.0,0.0,0.0,0.0,0.0,0.0,0.0,0.0,0.0,0.0,0.0,0.0,0.0,0.0,0.0,0.0,0.0,0.0,0.0,0.0,0.0,0.0,0.0,0.0,0.0,0.0,0.0,0.0,0.0,0.0,0.0,0.0,0.0,0.0,0.0,0.0,0.0,0.0,1.7582,1.7582,1.7582,0.0,0.0,0.0,0.0,0.0,0.0,1.6994,1.666,0.0,0.0,0.0,0.0,0.0,0.0,0.0,0.0,0.0,0.0,0.0,0.0,0.0,0.0,0.0,0.0,0.0,0.0,0.0,0.0,0.0,0.0,0.0,0.0,0.0,0.0,0.0,0.0,0.0,0.0,0.0,0.0,0.0,0.0,0.0,0.0,0.0,0.0,0.0,0.0,0.0,0.0,0.0,0.0,0.0,0.0,0.0,0.0,0.0,0.0,0.0,0.0,0.0,0.0,0.0,2.7707,2.8308,2.8531,2.8309,2.8258,2.7823,2.7082,2.6412,2.5255,0.0,0.0,0.0,0.0,0.0,0.0,0.0,0.0,0.0,0.0,0.0,0.0,0.0,0.0,0.0,0.0,0.0,0.0,0.0,0.0,0.0,0.0,0.0,0.0,0.0,0.0,0.0,0.0,0.0,0.0,0.0,0.0,0.0,0.0,0.0,0.0,0.0,0.0,0.0,0.0,0.0,1.7702,1.7756,1.7929,0.0,0.0,0.0,0.0,1.7251,1.6972,0.0,0.0,0.0,0.0,0.0,0.0,0.0,0.0,0.0,0.0,0.0,0.0,0.0,0.0,0.0,0.0,0.0,0.0,0.0,0.0,0.0,0.0,0.0,0.0,0.0,0.0,0.0,0.0,0.0,0.0,0.0,0.0,0.0,0.0,0.0,0.0,0.0,0.0,0.0,0.0,0.0,0.0,0.0,0.0,0.0,0.0,0.0,0.0,0.0,0.0,0.0,0.0,0.0,0.0,0.0,0.0,2.7883,2.8531,2.8502,2.7805,2.821,2.7767,2.6549,2.5532,2.4273,0.0,0.0,0.0,0.0,0.0,0.0,0.0,0.0,0.0,0.0,0.0,0.0,0.0,0.0,0.0,0.0,0.0,0.0,0.0,0.0,0.0,0.0,0.0,0.0,0.0,0.0,0.0,0.0,0.0,0.0,0.0,0.0,0.0,0.0,0.0,0.0,0.0,0.0,0.0,0.0,0.0,1.809,1.8357,1.8196,1.813,0.0,0.0,1.7357,1.746,1.7038,0.0,0.0,0.0,0.0,0.0,0.0,0.0,0.0,0.0,0.0,0.0,0.0,0.0,0.0,0.0,0.0,0.0,0.0,0.0,0.0,0.0,0.0,0.0,0.0,0.0,0.0,0.0,0.0,0.0,0.0,0.0,0.0,0.0,0.0,0.0,0.0,0.0,0.0,0.0,0.0,0.0,0.0,0.0,0.0,0.0,0.0,0.0,0.0,0.0,0.0,0.0,0.0,0.0,0.0,0.0,2.7391,2.7981,2.8145,2.8103,2.7748,2.7912,2.7116,2.571,2.5061,2.391,0.0,0.0,0.0,0.0,0.0,0.0,0.0,0.0,0.0,0.0,0.0,0.0,0.0,0.0,0.0,0.0,0.0,0.0,0.0,0.0,0.0,0.0,0.0,0.0,0.0,0.0,0.0,0.0,0.0,0.0,0.0,0.0,0.0,0.0,0.0,0.0,0.0,0.0,0.0,0.0,0.0,0.0,1.8424,1.8384,0.0,0.0,0.0,1.789,1.7851,0.0,0.0,0.0,0.0,0.0,0.0,0.0,0.0,0.0,0.0,0.0,0.0,0.0,0.0,0.0,0.0,0.0,0.0,0.0,0.0,0.0,0.0,0.0,0.0,0.0,0.0,0.0,0.0,0.0,0.0,0.0,0.0,0.0,0.0,0.0,0.0,0.0,0.0,0.0,0.0,0.0,0.0,0.0,0.0,0.0,0.0,0.0,0.0,0.0,0.0,0.0,0.0,0.0,0.0,0.0,0.0,0.0,2.7807,2.7435,2.738,2.7516,2.7106,2.6338,2.4792,2.4408,0.0,0.0,0.0,0.0,0.0,0.0,0.0,0.0,0.0,0.0,0.0,0.0,0.0,0.0,0.0,0.0,0.0,0.0,0.0,0.0,0.0,0.0,0.0,0.0,0.0,0.0,0.0,1.9272,0.0,0.0,0.0,0.0,0.0,0.0,0.0,0.0,0.0,0.0,0.0,0.0,0.0,0.0,1.8023,1.8624,1.8637,1.8677,0.0,0.0,1.8155,1.7961,1.7347,1.6876,0.0,0.0,0.0,0.0,0.0,0.0,0.0,0.0,0.0,0.0,0.0,0.0,0.0,0.0,0.0,0.0,0.0,0.0,0.0,0.0,0.0,0.0,0.0,0.0,0.0,0.0,0.0,0.0,0.0,0.0,0.0,0.0,0.0,0.0,0.0,0.0,0.0,0.0,0.0,0.0,0.0,0.0,0.0,0.0,0.0,0.0,0.0,0.0,0.0,0.0,0.0,0.0,0.0,0.0,0.0,2.7123,2.6619,2.6443,2.6575,2.6016,2.512,2.4188,2.3567,2.262,0.0,0.0,0.0,0.0,0.0,0.0,0.0,0.0,0.0,0.0,0.0,0.0,0.0,0.0,0.0,0.0,0.0,0.0,0.0,0.0,0.0,0.0,0.0,0.0,0.0,0.0,0.0,0.0,0.0,0.0,0.0,0.0,0.0,0.0,0.0,0.0,0.0,0.0,0.0,0.0,0.0,1.8637,1.9225,1.9078,1.8905,0.0,1.8242,1.7614,1.7601,1.6906,1.6393,1.6357,0.0,0.0,0.0,0.0,0.0,0.0,0.0,0.0,0.0,0.0,0.0,0.0,0.0,0.0,0.0,0.0,0.0,0.0,0.0,0.0,0.0,0.0,0.0,0.0,0.0,0.0,0.0,0.0,0.0,0.0,0.0,0.0,0.0,0.0,0.0,0.0,0.0,0.0,0.0,0.0,0.0,0.0,0.0,0.0,0.0,0.0,0.0,0.0,0.0,0.0,0.0,0.0,0.0,2.661,2.6942,2.6162,2.572,2.5592,2.4952,2.4166,2.3227,2.2792,2.2285,0.0,0.0,0.0,0.0,0.0,0.0,0.0,0.0,0.0,0.0,0.0,0.0,0.0,0.0,0.0,0.0,0.0,0.0,0.0,0.0,0.0,0.0,0.0,0.0,0.0,0.0,0.0,0.0,1.9182,1.8855,1.8227,0.0,0.0,0.0,0.0,0.0,0.0,0.0,0.0,0.0,0.0,1.8704,1.9279,1.9118,0.0,0.0,1.8518,1.8046,1.7868,1.7303,1.683,1.6895,1.6854,0.0,0.0,0.0,0.0,0.0,0.0,0.0,0.0,0.0,0.0,0.0,0.0,0.0,0.0,0.0,0.0,0.0,0.0,0.0,0.0,0.0,0.0,0.0,0.0,0.0,0.0,0.0,0.0,0.0,0.0,0.0,0.0,0.0,0.0,0.0,0.0,0.0,0.0,0.0,0.0,0.0,0.0,0.0,0.0,0.0,0.0,0.0,0.0,0.0,0.0,0.0,0.0,2.622,2.6197,2.5383,2.4912,2.4787,2.4086,2.3453,2.2751,2.2394,2.2083,0.0,0.0,0.0,0.0,0.0,0.0,0.0,0.0,0.0,0.0,0.0,0.0,0.0,0.0,0.0,0.0,0.0,0.0,0.0,0.0,0.0,0.0,0.0,0.0,0.0,0.0,0.0,0.0,1.8998,1.8548,1.803,0.0,0.0,0.0,0.0,0.0,0.0,0.0,0.0,0.0,0.0,1.8798,1.9292,1.9185,1.9132,1.9345,1.8777,1.8351,1.8161,1.76,1.7134,1.7291,0.0,0.0,0.0,0.0,0.0,0.0,0.0,0.0,0.0,0.0,0.0,0.0,0.0,0.0,0.0,0.0,0.0,0.0,0.0,0.0,0.0,0.0,0.0,0.0,0.0,0.0,0.0,0.0,0.0,0.0,3.0036,0.0,0.0,0.0,0.0,0.0,0.0,0.0,0.0,0.0,0.0,0.0,0.0,0.0,0.0,0.0,0.0,0.0,0.0,0.0,0.0,0.0,0.0,2.5095,2.4906,2.4335,2.3965,2.4065,2.349,2.2961,2.2662,2.2674,2.2169,2.1276,0.0,0.0,0.0,0.0,0.0,0.0,0.0,0.0,0.0,0.0,0.0,0.0,0.0,0.0,0.0,0.0,0.0,0.0,0.0,0.0,0.0,0.0,0.0,0.0,0.0,0.0,1.9313,1.8791,1.8345,0.0,0.0,0.0,0.0,0.0,0.0,0.0,0.0,0.0,0.0,1.8918,1.9025,1.9332,1.9359,1.9359,1.9372,1.8894,1.8415,1.8402,1.7724,1.7207,0.0,0.0,0.0,0.0,0.0,0.0,0.0,0.0,0.0,0.0,0.0,0.0,0.0,0.0,0.0,0.0,0.0,0.0,0.0,0.0,0.0,0.0,0.0,0.0,0.0,0.0,0.0,3.1298,3.1153,0.0,0.0,0.0,0.0,0.0,0.0,0.0,0.0,0.0,0.0,0.0,3.0359,3.0541,0.0,0.0,0.0,0.0,0.0,0.0,0.0,0.0,0.0,0.0,0.0,0.0,2.4661,2.4547,2.3981,2.3629,2.346,2.3037,2.2736,2.2583,2.2374,2.2081,2.1554,0.0,0.0,0.0,0.0,0.0,0.0,0.0,0.0,0.0,0.0,0.0,0.0,0.0,0.0,0.0,0.0,0.0,0.0,0.0,0.0,0.0,0.0,0.0,0.0,0.0,1.9571,0.0,0.0,0.0,0.0,0.0,0.0,0.0,0.0,0.0,0.0,0.0,1.8704,1.8905,1.9092,1.9252,1.9359,1.9372,1.9372,0.0,0.0,0.0,0.0,0.0,0.0,0.0,0.0,0.0,0.0,0.0,0.0,0.0,0.0,1.9025,1.845,1.7968,1.7588,1.6906,0.0,0.0,0.0,0.0,0.0,0.0,0.0,0.0,0.0,0.0,0.0,0.0,0.0,0.0,3.2126,0.0,3.1725,0.0,0.0,0.0,0.0,0.0,0.0,0.0,0.0,3.1087,3.1112,3.1015,3.1073,3.0837,0.0,3.0195,2.9849,0.0,0.0,0.0,0.0,0.0,0.0,0.0,0.0,2.4101,2.3864,2.3526,2.3278,2.2974,2.2778,2.2778,2.2608,2.2345,2.214,2.2023,2.1715,2.135,0.0,0.0,0.0,0.0,0.0,0.0,0.0,0.0,0.0,0.0,0.0,0.0,0.0,0.0,0.0,0.0,0.0,0.0,0.0,0.0,0.0,0.0,0.0,1.9444,0.0,0.0,0.0,0.0,0.0,0.0,0.0,0.0,0.0,1.8123,1.8453,1.8844,1.9065,1.9252,1.9372,1.9372,0.0,0.0,0.0,0.0,0.0,0.0,0.0,1.8826,1.9181,1.9024,1.9023,1.9256,1.9386,1.9386,1.9386,0.0,0.0,1.9065,1.8568,1.8045,1.7341,1.6414,1.5258,1.3966,1.2903,1.1946,0.0,0.0,0.0,0.0,0.0,0.0,0.0,0.0,3.4031,3.3555,0.0,3.2404,0.0,0.0,0.0,0.0,0.0,3.1445,0.0,0.0,3.2097,3.225,3.1642,3.152,3.1417,3.1049,3.103,3.0578,2.9525,2.829,0.0,0.0,0.0,0.0,0.0,0.0,2.3544,2.2726,2.2962,2.2911,2.2667,2.2945,2.2959,2.2681,2.2403,2.2389,2.2608,2.2359,2.1906,2.1276,2.1218,0.0,0.0,0.0,0.0,0.0,0.0,0.0,0.0,0.0,0.0,0.0,0.0,0.0,0.0,0.0,0.0,0.0,0.0,0.0,0.0,1.9542,0.0,0.0,0.0,0.0,0.0,0.0,0.0,0.0,0.0,0.0,1.8376,1.849,1.8695,1.9345,0.0,0.0,0.0,0.0,1.9813,1.9813,1.9813,1.9755,1.9755,1.9498,1.9498,1.9768,0.0,0.0,2.0133,2.0267,2.0267,2.0281,2.0307,2.0201,1.9933,1.9546,1.9069,1.8337,1.7211,1.5897,1.4548,1.3216,1.2105,3.5562,0.0,0.0,0.0,0.0,3.4072,3.3953,3.3714,3.3694,3.3452,3.297,3.2852,0.0,0.0,0.0,0.0,0.0,0.0,3.2017,3.1556,3.1789,3.1661,3.1313,3.1191,3.0926,3.0433,3.0433,2.9865,2.8888,2.8307,2.7608,2.6689,0.0,0.0,0.0,0.0,2.3293,2.3322,2.3133,2.3216,2.331,2.3179,2.3179,2.331,2.3457,2.3354,2.2988,2.2886,2.255,2.1935,2.1452,0.0,0.0,0.0,0.0,0.0,0.0,0.0,0.0,0.0,0.0,0.0,0.0,0.0,0.0,0.0,0.0,0.0,0.0,0.0,1.9877,1.9516,1.9132,0.0,0.0,0.0,0.0,0.0,0.0,0.0,0.0,0.0,1.8596,1.8826,1.909,0.0,0.0,1.9987,1.9987,2.0054,2.0107,2.0107,2.0066,0.0,2.0119,1.9985,2.0064,2.0398,2.0597,2.073,2.0855,2.1029,2.1176,2.1176,2.1349,2.1456,2.1336,2.0224,1.917,1.8386,1.728,1.5918,1.4558,1.3295,1.217,3.6494,3.5542,3.5273,3.5148,3.5026,3.4903,3.478,3.4409,3.4409,3.4184,3.388,3.3576,3.3294,3.3114,3.2833,0.0,0.0,0.0,3.2254,3.1913,3.2085,3.1986,3.1649,3.1481,3.1027,3.0265,3.0085,2.9436,2.8408,2.801,2.721,2.6305,0.0,0.0,2.3904,2.3521,2.3227,2.3177,2.3304,2.3398,2.3588,2.353,2.3588,2.3779,2.3852,2.3706,2.331,2.3179,2.2871,2.2374,2.1979,2.1657,0.0,0.0,0.0,0.0,0.0,0.0,0.0,0.0,0.0,0.0,0.0,1.94,1.9652,0.0,0.0,0.0,2.0399,2.0385,1.9973,1.9626,0.0,0.0,0.0,0.0,0.0,0.0,0.0,1.8007,1.8044,1.8166,1.8484,1.9048,1.9363,1.9387,1.9758,2.0037,2.0388,0.0,2.0615,2.0735,2.0855,2.0922,2.0935,2.0922,2.0989,2.1162,2.1336,2.1443,2.1456,2.1617,2.1724,2.175,2.1871,2.1991,2.1991,2.1004,1.9916,1.9283,1.8128,1.685,1.5574,1.4141,1.2979,3.7301,3.6908,3.6908,3.6609,3.6289,3.6289,3.601,3.5621,3.5601,3.54,3.4892,3.4326,3.3803,3.3426,3.2662,0.0,3.1892,3.2277,3.2428,3.2535,3.2765,3.2749,3.2436,3.2089,3.1396,3.0299,2.9952,2.9213,2.8127,2.7573,2.6841,2.6087,2.5786,2.4906,2.378,2.3653,2.3296,2.2798,2.3354,2.3632,2.3647,2.3954,2.413,2.4115,2.3823,2.3662,2.3632,2.3325,2.3003,2.2681,2.2637,2.2359,2.1803,0.0,0.0,0.0,0.0,0.0,0.0,0.0,0.0,0.0,0.0,0.0,0.0,0.0,0.0,0.0,2.0642,0.0,2.0301,1.9839,0.0,0.0,0.0,1.8655,1.868,1.8447,1.8336,1.8384,0.0,0.0,1.842,1.9083,1.9713,1.9827,1.9762,2.0099,2.0735,2.1015,2.1269,2.1523,2.1804,2.1964,2.1871,2.1924,2.1937,2.1964,2.2044,2.2058,2.2058,2.2071,2.2058,2.2071,2.2058,2.2071,2.2058,2.1793,2.1395,2.0572,1.9578,1.834,1.684,1.5344,1.4113,3.7964,3.786,3.7575,3.7053,3.6289,3.6289,3.5881,3.5341,3.5341,3.5171,3.4811,3.4564,3.4466,3.4367,3.4141,3.3992,3.3623,3.3719,3.3424,3.2974,3.2803,3.2363,3.1783,3.129,3.0563,2.9596,2.936,2.875,2.7731,2.7579,2.6873,2.5783,2.5677,2.5181,2.4404,2.408,2.4069,2.4101,2.4013,2.3969,2.3969,2.4291,2.4452,2.4452,2.4379,2.4218,2.3969,2.3647,2.3325,2.3003,2.2754,2.255,2.2403,2.2111,0.0,0.0,0.0,0.0,0.0,0.0,0.0,0.0,0.0,2.0026,2.0223,0.0,2.1388,0.0,2.0496,2.0254,1.9892,1.9338,0.0,0.0,1.8655,1.8495,1.869,1.8714,1.8746,1.9145,1.9193,1.9265,1.9483,1.9747,2.0035,2.0551,2.0786,2.1214,2.167,2.1724,2.1804,2.1871,2.1951,2.1991,2.2017,2.2178,2.2311,2.2311,2.2498,2.2645,2.2645,2.2659,2.2659,2.2659,2.2659,2.2659,2.2645,2.2659,2.2238,2.1531,1.9999,1.8373,1.7047,1.5555,1.4318,3.8058,3.7904,3.775,3.7197,3.6334,3.6334,3.607,3.5559,3.5559,3.5426,3.5273,3.5098,3.4883,3.4707,3.4687,3.4444,3.3936,3.3955,3.3633,3.2845,3.2575,3.2141,3.1478,3.0772,2.9998,2.9012,2.8712,2.8095,2.7401,2.7262,2.6816,2.604,2.5754,2.5352,2.4997,2.4437,2.4174,2.4349,2.432,2.4364,2.451,2.4686,2.4788,2.4788,2.4642,2.4481,2.4305,2.3984,2.372,2.3545,2.3237,2.2988,2.2842,2.255,2.2169,0.0,0.0,0.0,0.0,0.0,0.0,0.0,0.0,0.0,0.0,0.0,2.1437,2.0822,2.0523,2.0358,2.012,1.9625,1.936,1.9484,1.9127,1.906,1.9064,1.9217,1.9338,1.9759,1.9652,1.9712,1.9869,2.0124,2.0453,2.1124,2.1494,2.1923,2.2071,2.2178,2.2218,2.2352,2.2378,2.2378,2.2378,2.2512,2.2619,2.2619,2.2752,2.2859,2.2859,2.2859,2.2859,2.2859,2.2859,2.2859,2.2859,2.2859,2.2722,2.1996,2.0835,1.9414,1.8035,1.6649,1.5404,3.7904,3.7616,3.7616,3.7193,3.6519,3.6519,3.6268,3.6035,3.6035,3.6035,3.5996,3.5625,3.5254,3.4863,3.4863,3.4487,3.3823,3.3823,3.3476,3.2701,3.2307,3.1931,3.1401,3.0376,2.9401,2.868,2.7959,2.7384,2.7119,2.6839,2.6557,2.6498,2.5937,2.5622,2.5564,2.4744,2.4291,2.4218,2.4481,2.4774,2.5052,2.5066,2.5066,2.5052,2.4744,2.4569,2.4554,2.4247,2.4086,2.4071,2.3808,2.353,2.3252,2.2959,2.2681,0.0,2.2374,0.0,0.0,0.0,0.0,0.0,0.0,0.0,0.0,2.1718,2.1185,2.093,2.0681,2.0697,2.0693,2.0307,2.0022,2.0244,2.0148,1.9893,1.9638,1.9795,1.9953,2.0124,2.0124,1.9989,2.0148,2.0589,2.1009,2.148,2.2069,2.2421,2.251,2.2539,2.2565,2.2832,2.2899,2.2899,2.2966,2.2993,2.2993,2.2993,2.302,2.2979,2.3006,2.3006,2.2993,2.2993,2.302,2.3006,2.2979,2.2993,2.2855,2.2467,2.1887,2.0865,1.939,1.81,1.7007,3.8037,3.7616,3.7348,3.6924,3.6519,3.6268,3.6016,3.6035,3.6035,3.6035,3.6016,3.5937,3.5859,3.5762,3.5781,3.5375,3.4675,3.4675,3.4184,3.3152,3.242,3.1614,3.0551,2.979,2.89,2.7894,2.7689,2.7371,2.7097,2.6952,2.682,2.6555,2.6354,2.6179,2.593,0.0,0.0,0.0,2.4935,2.4993,2.5052,2.5066,2.5066,2.5052,2.4744,0.0,2.4554,2.4262,2.4086,2.4086,2.4027,0.0,0.0,0.0,0.0,0.0,0.0,0.0,0.0,0.0,0.0,0.0,2.2794,2.2495,2.2286,2.2025,2.2006,2.2107,2.1306,2.0848,2.0899,2.0302,1.9966,2.0014,1.9893,1.9965,2.0011,2.0195,2.0279,2.0496,2.0521,2.0658,2.0934,2.1108,2.1496,2.2393,2.2623,2.2881,2.3474,2.3073,2.2819,2.2873,2.31,2.3327,2.3567,2.3581,2.3541,2.3607,2.3607,2.3581,2.3567,2.3581,2.3594,2.3581,2.3594,2.3581,2.3581,2.3594,2.3426,2.3169,2.2873,2.2165,2.0332,1.8843,1.7439,3.8303,0.0,3.7285,3.6757,0.0,3.6016,3.6035,3.6035,3.6035,3.6035,3.6035,3.6035,3.6035,3.6035,3.6035,3.5606,3.4921,3.4921,3.4232,3.2981,3.2263,3.1277,3.0124,2.9138,2.8289,2.755,2.7405,2.7129,2.6998,2.6998,2.691,2.6749,2.6574,2.6413,2.6252,2.6091,2.5857,2.5535,2.5535,2.5535,2.552,2.5374,2.5286,2.5286,2.4979,0.0,0.0,0.0,0.0,0.0,0.0,0.0,0.0,0.0,0.0,2.3852,2.3837,2.3764,2.3618,2.3749,2.3837,2.3837,2.3681,2.3236,2.2649,2.2511,2.2434,2.2214,2.1582,2.1117,2.1124,2.0612,2.0257,2.0255,2.0267,2.0327,2.0448,2.0581,2.0853,2.0999,2.1261,2.1475,2.1616,2.2051,2.2384,2.2936,2.3245,2.3453,2.3714,2.3514,2.3313,2.3313,2.3434,2.3594,2.3728,2.3781,2.3781,2.3768,2.3781,2.3781,2.3781,2.3781,2.3781,2.3768,2.3768,2.3612,2.3768,2.3781,2.3781,2.3625,2.334,2.2976,2.1795,2.038,1.8834,3.8621,3.7863,3.747,3.6858,3.625,3.625,3.625,3.623,0.0,0.0,0.0,3.6035,3.6035,3.6035,3.6035,3.5606,3.5059,3.4921,3.4269,3.2948,3.2227,3.127,3.0176,2.9039,2.8167,2.773,2.7306,2.7159,2.7159,2.7159,2.7159,2.713,2.6837,2.6647,2.6574,2.6325,2.6193,2.6179,2.6076,2.6018,2.6003,2.5754,2.5593,2.5535,2.5286,2.511,2.5066,2.5066,2.5066,2.5052,2.4803,2.4804,2.51,2.4554,2.4276,2.4335,2.4335,2.4364,2.4423,2.4423,2.4423,2.4423,2.4423,2.4086,2.3271,2.3112,2.2877,2.227,2.1885,2.1577,2.1391,2.1009,2.086,2.0841,2.0738,2.075,2.0798,2.1132,2.142,2.1765,2.2044,2.2169,2.2287,2.2729,2.3223,2.3405,2.3705,2.3888,2.3901,2.3821,2.3741,2.3808,2.3834,2.3861,2.3928,2.3955,2.3928,2.3981,2.3955,2.3928,2.3928,2.3928,2.3928,2.3981,2.3771,2.3785,2.3928,2.4125,2.4085,2.3928,2.3628,2.3471,2.3119,2.2069,2.0544,3.8783,3.8306,3.7908,3.7448,3.7129,3.7109,3.7129,3.7051,3.6348,3.6035,3.6035,3.6035,3.6035,3.6035,3.6035,3.5743,3.5333,3.5059,3.4695,3.403,3.3038,3.2066,3.1186,3.0039,2.9164,2.8402,2.7968,2.7817,2.7817,2.7803,2.7817,2.7773,2.7495,2.7203,2.6939,2.6881,2.6852,2.6837,2.6296,2.6018,2.6018,2.5974,2.5813,2.5549,2.5491,2.533,2.5066,2.5066,2.5066,2.5052,2.5008,2.4993,2.5128,2.4949,2.5037,2.5301,2.533,2.5447,2.571,2.574,2.5586,2.5432,2.5586,2.5143,2.3961,2.3581,2.3264,2.2835,2.2453,2.2069,2.1709,2.1446,2.1143,2.1096,2.1003,2.0934,2.0816,2.1485,2.2287,2.2937,2.2755,2.2768,2.295,2.3093,2.3471,2.3931,2.4142,2.4222,2.4342,2.4088,2.3915,2.4075,2.4142,2.4249,2.4382,2.4502,2.4462,2.4516,2.4476,2.4436,2.4436,2.4436,2.4436,2.4489,2.4449,2.4462,2.4476,2.4516,2.4462,2.4449,2.4289,2.4249,2.3746,2.3207,2.2501,3.9131,3.8769,3.8062,3.7642,3.7305,3.7305,3.7305,3.7266,3.6894,3.6719,3.6719,3.6719,3.6719,3.6719,3.6719,3.6441,3.6143,3.5724,3.5257,3.4715,3.357,3.2501,3.1465,3.033,2.9452,2.8552,2.81,2.7949,2.7949,2.7949,2.7949,2.7934,2.7803,2.7656,2.7525,2.751,2.751,2.7495,2.6881,2.6544,2.6544,2.6369,2.6208,2.6061,2.5886,2.5725,2.5579,2.5579,2.5579,2.5411,2.5564,2.5579,2.5731,2.5579,2.5637,2.5783,2.5798,2.5857,2.6003,2.6018,2.6018,2.6018,2.6018,2.5717,2.4882,2.438,2.3845,2.3705,2.3207,2.2763,2.2626,2.2371,2.214,2.1969,2.1982,2.1722,2.1366,2.1993,2.3024,2.3852,2.3614,2.3495,2.3653,2.3799,2.3984,2.4422,2.4436,2.4502,2.4623,2.4436,2.4289,2.4409,2.4436,2.4489,2.4623,2.4636,2.4636,2.4636,2.4636,2.4636,2.4636,2.4636,2.4636,2.4636,2.4636,2.4636,2.4636,2.4636,2.4636,2.4636,2.4636,2.4409,2.4169,2.3996,2.3095,3.9815,3.9513,3.8668,3.8125,3.7734,3.7734,3.7676,3.7598,3.7598,3.7598,3.7559,3.7402,3.7305,3.7305,3.7305,3.7144,3.6862,3.6437,3.5905,3.5281,3.4124,3.299,3.2026,3.0868,2.9818,2.8912,2.8458,2.8169,2.8169,2.8154,2.8125,2.8066,2.8066,2.8022,2.7949,2.7934,2.7784,2.792,2.7466,2.7217,2.7203,2.6954,2.6793,2.6705,2.6486,2.6281,2.6149,2.612,2.6091,2.5862,2.6003,2.6032,2.6328,2.6173,2.6047,2.612,2.612,2.6164,2.6237,2.6237,2.6252,2.6408,2.6393,2.6095,2.5939,2.5228,2.468,2.4396,2.3963,2.3655,2.3545,2.3456,2.334,2.295,2.2975,2.2701,2.2281,2.281,2.3598,2.4449,2.4275,2.4193,2.4271,2.4581,2.477,2.4823,2.4836,2.4836,2.4836,2.4823,2.4674,2.481,2.4783,2.4783,2.481,2.485,2.4863,2.4836,2.485,2.489,2.4877,2.4863,2.4836,2.4877,2.4714,2.4727,2.485,2.4863,2.4877,2.489,2.4903,2.485,2.4756,2.4433,2.3536,4.0901,4.0881,3.9948,3.9453,3.9023,3.9004,3.8789,3.8476,3.8457,3.8457,3.8398,3.7656,3.7344,3.7305,3.7324,3.7344,3.7183,3.6598,3.638,3.6431,3.4974,3.4119,3.3481,3.232,3.1115,3.0037,2.9574,2.9109,2.8812,2.8798,2.8666,2.8417,2.8388,2.8256,2.7993,2.7784,2.7784,2.7949,2.8071,2.8041,2.7861,2.7832,2.7686,2.7393,2.7349,2.7056,2.6515,2.6457,2.6339,2.6217,2.6047,2.6032,2.6202,2.6187,2.6149,2.6427,2.6457,2.6588,2.6852,2.6896,2.6881,2.691,2.6881,2.6866,2.6866,2.6301,2.557,2.5116,2.4876,2.4579,2.4309,2.435,2.4188,2.4102,2.3984,2.3931,2.3715,2.4114,2.4462,2.4515,2.4716,2.4595,2.4834,2.5037,2.513,2.5317,2.5317,2.5331,2.5331,2.5166,2.5192,2.5344,2.5224,2.517,2.5317,2.5424,2.5358,2.5384,2.5411,2.5358,2.5331,2.5358,2.5424,2.5264,2.5192,2.5166,2.5358,2.5604,2.5563,2.5317,2.5304,2.5331,2.5117,2.4737,2.3993,4.136,4.1062,4.0484,4.0085,3.9629,3.9609,3.9512,3.9375,3.9355,3.9355,3.9316,3.8984,3.8555,3.8066,3.8047,3.8047,3.8047,3.749,3.7276,3.701,3.5981,3.5014,3.4087,3.2892,3.1936,3.1199,3.0278,2.9769,2.9759,2.963,2.9295,2.9017,2.8988,2.8827,2.8534,2.8337,2.8491,2.8828,2.8996,2.915,2.9075,2.8291,2.7891,2.7773,2.7759,2.7554,2.713,2.7071,2.6925,2.6791,2.6603,2.6603,2.6746,2.6603,2.6647,2.6778,2.6793,2.6852,2.6983,2.6998,2.6998,2.6998,2.6998,2.6998,2.6983,2.6721,2.6446,2.6171,2.5555,2.5212,2.5235,2.5277,2.5188,2.5139,2.5167,2.529,2.5621,2.5648,2.5703,2.5773,2.5636,2.5486,2.5304,2.5331,2.5384,2.5491,2.5518,2.5545,2.5518,2.5352,2.5585,2.5718,2.5665,2.5571,2.5558,2.5518,2.5518,2.5518,2.5518,2.5518,2.5545,2.5518,2.5504,2.5531,2.5391,2.5391,2.5478,2.5518,2.5518,2.5545,2.5518,2.5464,2.5344,2.5179,2.4809,4.1895,4.1575,4.1123,4.0611,4.0059,4.0059,4.0,3.9902,3.9883,3.9883,3.9883,3.9883,3.9551,3.9004,3.8945,3.8945,3.8945,3.8503,3.8207,3.7743,3.6998,3.593,3.4872,3.3805,3.3017,3.2312,3.1259,3.0764,3.0656,3.0349,3.0055,2.9863,2.9833,2.9715,2.9478,2.9203,2.9301,2.997,3.0266,3.0515,3.0222,2.9213,2.8517,2.8365,2.8212,2.8066,2.7759,2.773,2.7583,2.7276,2.7261,2.7217,2.713,2.7115,2.7086,2.6998,2.6998,2.6998,2.6998,2.6998,2.6998,2.6998,2.6998,2.6998,2.6998,2.6998,2.7042,2.71,2.6459,2.6125,2.605,2.6093,2.6135,2.6206,2.622,2.6509,2.6823,2.6701,2.6636,2.6572,2.6392,2.617,2.5932,2.5859,2.594,2.5785,2.5785,2.5758,2.5758,2.5785,2.5852,2.6039,2.6079,2.5999,2.5798,2.5798,2.5745,2.5758,2.5798,2.5812,2.5758,2.5758,2.5758,2.5919,2.5798,2.5772,2.5865,2.5812,2.5745,2.5758,2.5745,2.5718,2.5651,2.5638,2.5585,4.2963,4.279,4.2022,4.1302,4.0488,4.0488,4.0273,3.998,3.9941,3.9922,3.9961,3.9941,3.9883,3.9844,3.9844,3.9824,3.9805,3.9314,3.8993,3.852,3.7796,3.6895,3.6142,3.5193,3.4412,3.3661,3.2713,3.195,3.1373,3.1182,3.1152,3.1136,3.1136,3.1136,3.084,2.9829,2.968,3.1215,3.2071,3.2049,3.0964,3.0747,3.0238,2.9619,2.8997,2.8666,2.8403,2.8388,2.8227,2.7905,2.7861,2.7759,2.7495,2.7466,2.732,2.7071,2.7013,2.7013,2.7027,2.7056,2.7042,2.7027,2.7071,2.7027,2.7086,2.7086,2.7203,2.7422,2.7422,2.7158,2.6954,2.6954,2.7041,2.7274,2.7303,2.73,2.7287,2.733,2.7179,2.696,2.6892,2.6892,2.658,2.6813,2.6792,2.6504,2.636,2.6346,2.636,2.6346,2.6373,2.6386,2.6413,2.6373,2.6346,2.6213,2.6253,2.6239,2.6159,2.6279,2.6333,2.636,2.6319,2.6306,2.6226,2.6226,2.6319,2.6319,2.6266,2.6239,2.6213,2.6159,2.5959,2.5945,2.5892,4.331,4.2851,4.2082,4.1674,4.1246,4.1092,4.084,4.0723,4.0723,4.0723,4.0723,4.0703,4.0703,4.0723,4.0723,4.041,3.9922,3.9732,3.943,3.9108,3.85,3.7889,3.6968,3.6195,3.5557,3.5117,3.4183,3.3194,3.2739,3.2592,3.2482,3.231,3.2279,3.2185,3.1966,3.1635,3.1874,3.2868,3.3859,3.3965,3.3125,3.2813,3.2248,3.1402,3.0096,2.9064,2.8739,2.8585,2.8286,2.7964,2.7949,2.7905,2.7803,2.7773,2.773,2.7627,2.7613,2.7598,2.7598,2.7598,2.7598,2.7613,2.7613,2.7583,2.7598,2.7613,2.7656,2.7744,2.7788,2.7715,2.7656,2.7613,2.7656,2.7744,2.7788,2.7905,2.8016,2.7965,2.8096,2.8004,2.8089,2.7969,2.7824,2.8005,2.7914,2.7445,2.7284,2.7257,2.7109,2.6947,2.6921,2.6947,2.6947,2.6947,2.6961,2.6587,2.6386,2.6386,2.6373,2.6373,2.6413,2.6453,2.644,2.6453,2.6466,2.6413,2.64,2.6373,2.64,2.64,2.64,2.636,2.6253,2.6172,2.6146,4.3536,4.3208,4.245,4.2082,4.1773,4.1483,4.1327,4.1172,4.1172,4.1172,4.1172,4.1172,4.1172,4.1172,4.1172,4.0898,4.0332,4.0312,4.0141,3.9682,3.9357,3.8896,3.8143,3.7348,3.6849,3.6606,3.5509,3.4842,3.4409,3.4425,3.431,3.4081,3.4081,3.3967,3.3738,3.3815,3.4067,3.4683,3.5521,3.5592,3.481,3.4463,3.4049,3.3314,3.1824,3.0406,2.967,2.9194,2.8798,2.8453,2.8409,2.8365,2.8125,2.8008,2.7949,2.7949,2.7934,2.7949,2.7949,2.7949,2.7934,2.7949,2.7934,2.7949,2.7949,2.7949,2.7993,2.8066,2.811,2.8125,2.8227,2.8256,2.8212,2.8139,2.811,2.8286,2.8666,2.8739,2.8831,2.9094,2.9005,2.9001,2.8896,2.872,2.8543,2.8246,2.8084,2.7921,2.7758,2.7595,2.7431,2.7431,2.7391,2.7215,2.7188,2.6921,2.68,2.6787,2.672,2.6653,2.66,2.6627,2.6627,2.6627,2.6573,2.6493,2.644,2.6413,2.64,2.64,2.64,2.6373,2.6346,2.6373,2.6306,4.4164,4.3637,4.3208,4.2645,4.2047,4.1911,4.1677,4.1425,4.1406,4.1464,4.1504,4.1406,4.1464,4.125,4.1484,4.1211,4.1191,4.1191,4.0958,4.0394,4.0394,3.9945,3.9318,3.8669,3.8195,3.7932,3.7152,3.6529,3.6046,3.6046,3.6029,3.6029,3.5994,3.5799,3.6011,3.588,3.606,3.6289,3.6795,3.6599,3.5747,3.5817,3.5643,3.5106,3.4116,3.2862,3.1118,3.0454,2.9974,2.9664,2.9479,2.9204,2.8585,2.8183,2.7993,2.8037,2.7993,2.7978,2.7993,2.8022,2.8052,2.8052,2.7993,2.8052,2.8081,2.8052,2.8154,2.8373,2.8447,2.8534,2.8754,2.8827,2.8739,2.8505,2.8461,2.8739,2.9149,2.9369,2.95,2.9807,2.9777,2.9734,2.941,2.9334,2.92,2.886,2.8683,2.8697,2.8562,2.8235,2.7989,2.7989,2.7907,2.7825,2.7552,2.7281,2.7281,2.7268,2.7175,2.7094,2.7041,2.7028,2.7001,2.6987,2.6894,2.68,2.6667,2.6627,2.652,2.6493,2.6453,2.6413,2.64,2.64,2.64,4.4618,4.4618,4.4181,4.3786,4.3473,4.3295,4.298,4.298,4.298,4.298,4.298,4.298,4.2823,4.2507,4.2526,4.2348,4.2031,4.2031,4.1561,4.1094,4.0685,4.0372,4.0059,3.9764,3.9114,3.8481,3.8145,3.7685,3.7205,3.7045,3.7028,3.7028,3.7045,3.7028,3.7063,3.694,3.7188,3.7806,3.8086,3.7995,3.8097,3.8079,3.7795,3.709,3.6254,3.5383,3.4607,3.2463,3.1261,3.0793,3.0577,2.9928,2.9219,2.8806,2.8593,2.8593,2.8593,2.8593,2.8593,2.8578,2.8578,2.8593,2.8578,2.8593,2.8593,2.8578,2.8622,2.8739,2.8754,2.8812,2.89,2.9105,2.9076,2.8783,2.8944,2.9134,2.9412,2.9793,3.0056,3.0188,3.0378,3.051,3.036,3.0345,3.0015,2.9713,2.9713,2.9547,2.9367,2.9201,2.9035,2.9035,2.8869,2.8662,2.8468,2.8068,2.8041,2.7794,2.7687,2.7455,2.7415,2.7388,2.7375,2.7281,2.7188,2.7081,2.6947,2.6841,2.6734,2.6613,2.6573,2.6507,2.6426,2.64,2.64,4.525,4.5229,4.4749,4.4529,4.4371,4.4035,4.3856,4.3856,4.3876,4.3698,4.3678,4.3698,4.3539,4.338,4.34,4.3241,4.2902,4.2742,4.2466,4.1857,4.1464,4.1148,4.099,4.0534,4.0216,3.972,3.9579,3.924,3.8919,3.8759,3.8759,3.8759,3.8759,3.8759,3.8722,3.8595,3.886,3.9477,3.9347,3.9588,3.9883,4.004,3.9751,3.9212,3.8375,3.7951,3.754,3.5435,3.3619,3.236,3.1433,3.0639,3.0015,2.9442,2.9212,2.9042,2.9042,2.8886,2.8886,2.8856,2.8886,2.8886,2.8886,2.8886,2.8886,2.8886,2.8886,2.8886,2.8886,2.893,2.9076,2.9237,2.931,2.9281,2.9427,2.9603,2.9764,3.0203,3.0481,3.0568,3.0685,3.0861,3.0964,3.1007,3.0913,3.0817,3.086,3.0692,3.0339,3.017,3.0156,2.993,2.9677,2.9481,2.9298,2.9061,2.8642,2.8325,2.8009,2.7942,2.7736,2.7722,2.7709,2.7549,2.7428,2.7308,2.7188,2.7081,2.6987,2.6854,2.676,2.6667,2.6587,2.644,2.6426,4.5726,4.5664,4.5271,4.4989,4.4673,4.4514,4.4376,4.3977,4.3998,4.4038,4.3998,4.4058,4.4018,4.3998,4.4099,4.3939,4.3818,4.342,4.326,4.316,4.2801,4.2281,4.1644,4.1304,4.1162,4.1219,4.1076,4.1076,4.0839,4.0839,4.1133,4.0877,4.0858,4.1114,4.0801,4.0716,4.0705,4.1125,4.0798,4.0743,4.1172,4.1113,4.1094,4.1074,4.0276,3.9945,3.9694,3.8457,3.655,3.4166,3.2392,3.1465,3.0775,3.0061,2.9814,2.9829,2.9271,2.9159,2.913,2.9145,2.9159,2.9203,2.9003,2.893,2.9189,2.9233,2.9233,2.9218,2.9203,2.9277,2.9512,2.9645,2.9792,3.0027,2.991,3.0027,3.0334,3.0656,3.0832,3.0861,3.0876,3.0993,3.13,3.1344,3.1461,3.1622,3.1695,3.1495,3.1495,3.1109,3.1067,3.0952,3.0581,3.0368,3.0142,2.9915,2.9506,2.9294,2.8764,2.8318,2.8184,2.7976,2.7963,2.7816,2.7682,2.7549,2.7455,2.7388,2.7321,2.7241,2.7108,2.6921,2.6787,2.668,2.6653,4.6182,4.6161,4.6037,4.5835,4.5835,4.5835,4.5653,4.5653,4.5633,4.5591,4.5633,4.5653,4.5451,4.5169,4.5169,4.5028,4.4643,4.4481,4.4521,4.4521,4.4379,4.3273,4.232,4.2101,4.2217,4.2314,4.1933,4.1475,4.1152,4.1371,4.1352,4.1152,4.1694,4.1656,4.1579,4.1843,4.2246,4.2526,4.2132,4.2052,4.2461,4.2182,4.2062,4.2062,4.1598,4.1288,4.1133,4.0082,3.8108,3.5314,3.3925,3.2916,3.2427,3.17,3.1132,3.1148,3.0862,3.0559,3.0499,3.0017,2.9858,3.0052,2.9685,2.9512,3.0082,3.0096,3.0256,3.0415,3.0574,3.0589,3.0725,3.0922,3.1031,3.0959,3.0706,3.0364,3.0671,3.0978,3.1183,3.1198,3.1373,3.1534,3.1622,3.1681,3.171,3.1812,3.1871,3.1871,3.1929,3.1915,3.1613,3.1669,3.1353,3.1167,3.0981,3.0752,3.0395,3.0065,2.9583,2.8879,2.8507,2.8136,2.811,2.803,2.7949,2.7829,2.7816,2.7776,2.7696,2.7589,2.7375,2.7175,2.7148,2.7081,2.7068,4.6347,4.6347,4.6347,4.6347,4.6347,4.6347,4.6347,4.6347,4.6347,4.6347,4.6347,4.6347,4.6185,4.6023,4.5861,4.5861,4.5535,4.5372,4.5189,4.5209,4.5025,4.4236,4.3372,4.3293,4.319,4.3105,4.2865,4.2663,4.2663,4.2481,4.2644,4.2845,4.2969,4.3111,4.3151,4.3238,4.338,4.3499,4.3118,4.3129,4.3217,4.2993,4.2871,4.283,4.2544,4.2236,4.1907,4.1133,3.9462,3.7041,3.559,3.4857,3.405,3.3127,3.2745,3.257,3.211,3.1791,3.16,3.1128,3.0968,3.0931,3.046,3.049,3.0931,3.0991,3.1312,3.1616,3.1791,3.1869,3.1879,3.2174,3.2171,3.2251,3.1677,3.1331,3.1022,3.1315,3.1476,3.1563,3.1681,3.1871,3.1973,3.2002,3.2076,3.2178,3.2266,3.2266,3.2266,3.2193,3.212,3.2032,3.1959,3.1771,3.1368,3.1325,3.0951,3.0634,3.0302,2.9603,2.9068,2.8444,2.835,2.8323,2.8217,2.8136,2.8083,2.8043,2.7963,2.7816,2.7602,2.7482,2.7455,2.7402,2.7402,4.6347,4.6347,4.6347,4.6347,4.6347,4.6347,4.6347,4.6347,4.6347,4.6347,4.6347,4.6347,4.6347,4.6347,4.6185,4.6347,4.6185,4.5861,4.5698,4.5698,4.5372,4.4965,4.4802,4.4395,4.4251,4.3962,4.3876,4.3982,4.4067,4.4271,4.4494,4.4578,4.4782,4.5005,4.4844,4.4745,4.4541,4.4474,4.4065,4.3792,4.3751,4.3545,4.3462,4.3462,4.3157,4.2851,4.2524,4.1927,4.0783,3.8444,3.7625,3.6676,3.5832,3.475,3.4333,3.4034,3.3591,3.3097,3.2873,3.2555,3.2204,3.2091,3.1579,3.1549,3.2107,3.233,3.2666,3.3145,3.2857,3.3226,3.3307,3.3317,3.3289,3.3375,3.3135,3.2586,3.197,3.1837,3.2028,3.1856,3.2043,3.2234,3.2222,3.2354,3.2427,3.2471,3.2529,3.2471,3.2427,3.2354,3.231,3.2295,3.2237,3.2193,3.1946,3.17,3.1498,3.1165,3.0699,3.0281,2.9515,2.9111,2.8738,2.8617,2.8564,2.843,2.8257,2.8217,2.8177,2.8043,2.7843,2.7776,2.7736,2.7655,2.7615,4.6347,4.6347,4.6347,4.6347,4.6347,4.6347,4.6347,4.6347,4.6347,4.6347,4.6347,4.6347,4.6347,4.6347,4.6347,4.6347,4.6347,4.6185,4.6185,4.6185,4.6023,4.5922,4.58,4.5249,4.4922,4.4942,4.4738,4.4718,4.4882,4.4882,4.4882,4.5046,4.5372,4.5535,4.5495,4.5697,4.5653,4.536,4.4886,4.4391,4.407,4.3739,4.3615,4.3615,4.3462,4.331,4.3004,4.2851,4.2236,4.1113,3.9926,3.8892,3.7928,3.7082,3.6535,3.6358,3.5755,3.5308,3.5113,3.4432,3.3918,3.3904,3.2888,3.2357,3.4018,3.4358,3.4697,3.5181,3.5342,3.5325,3.5298,3.4981,3.4883,3.4929,3.4799,3.4593,3.4314,3.3674,3.3203,3.2917,3.2907,3.31,3.2808,3.2808,3.269,3.2763,3.2705,3.2646,3.2544,3.2427,3.2324,3.2237,3.2149,3.2061,3.212,3.1946,3.1874,3.1728,3.1274,3.0775,3.0164,2.9515,2.9286,2.8991,2.8925,2.8751,2.8524,2.8444,2.8417,2.8243,2.8096,2.8016,2.7936,2.7869,2.7843,4.6347,4.6347,4.6347,4.6347,4.6347,4.6347,4.6347,4.6347,4.6347,4.6347,4.6347,4.6347,4.6347,4.6347,4.6347,4.6347,4.6347,4.6347,4.6347,4.6347,4.6347,4.6226,4.6247,4.5902,4.5576,4.5494,4.5106,4.5066,4.5209,4.5372,4.5372,4.5535,4.5861,4.6023,4.5961,4.5979,4.5768,4.5312,4.4898,4.4443,4.3987,4.376,4.3615,4.3615,4.3615,4.3462,4.331,4.331,4.3004,4.239,4.1753,4.0802,3.9864,3.9077,3.8603,3.8444,3.7809,3.733,3.6922,3.6372,3.5823,3.585,3.4453,3.4664,3.5477,3.6258,3.6742,3.7028,3.7028,3.692,3.6968,3.6457,3.6385,3.6659,3.6492,3.6467,3.6273,3.5444,3.4421,3.4104,3.4036,3.3777,3.347,3.3293,3.294,3.294,3.2544,3.2456,3.2339,3.2222,3.2046,3.1944,3.1885,3.1885,3.2017,3.2163,3.2223,3.2149,3.1897,3.1543,3.0984,3.0301,2.9785,2.9501,2.9205,2.9005,2.8804,2.8724,2.8617,2.8444,2.831,2.8217,2.811,2.8016,2.8003,4.6347,4.6347,4.6347,4.6347,4.6347,4.6347,4.6347,4.6347,4.6347,4.6347,4.6347,4.6347,4.6347,4.6347,4.6347,4.6347,4.6347,4.6347,4.6347,4.6347,4.6347,4.6347,4.6206,4.6206,4.6044,4.5637,4.5413,4.5535,4.5698,4.5881,4.5861,4.6185,4.6347,4.6185,4.6264,4.5912,4.5519,4.5064,4.4608,4.4153,4.376,4.3615,4.3615,4.3615,4.3615,4.3615,4.3615,4.3462,4.3462,4.3157,4.3157,4.2524,4.1578,4.0646,4.0178,4.0178,3.9393,3.8919,3.8761,3.8109,3.7631,3.7649,3.6247,3.623,3.7295,3.8236,3.8713,3.8835,3.8853,3.8613,3.8473,3.8199,3.8153,3.8408,3.8281,3.8337,3.822,3.7102,3.6205,3.5352,3.5177,3.4859,3.4349,3.3822,3.347,3.3087,3.2661,3.2455,3.2163,3.2017,3.1841,3.1549,3.1446,3.1695,3.1856,3.231,3.2529,3.2441,3.2409,3.2054,3.1507,3.0848,3.0342,2.973,2.9419,2.9259,2.9125,2.9032,2.8885,2.8671,2.8484,2.8337,2.8243,2.8163,2.815,4.6347,4.6347,4.6347,4.6347,4.6347,4.6347,4.6347,4.6347,4.6347,4.6347,4.6347,4.6347,4.6347,4.6347,4.6347,4.6347,4.6347,4.6347,4.6347,4.6347,4.6347,4.6347,4.6347,4.6347,4.6185,4.6185,4.6023,4.6023,4.6185,4.6185,4.6185,4.6347,4.6347,4.6347,4.6182,4.5892,4.5395,4.4898,4.4463,4.4008,4.3718,4.3615,4.3615,4.3615,4.3615,4.3615,4.3615,4.3615,4.3615,4.3462,4.3462,4.3289,4.283,4.2062,4.1598,4.1288,4.0958,4.049,4.0178,3.9707,3.9254,3.8743,3.7824,3.7964,3.9254,4.0602,4.0936,4.0545,4.054,4.0565,4.0677,3.9942,3.9886,3.9993,3.9706,3.9413,3.9483,3.9178,3.8306,3.7102,3.6757,3.608,3.5383,3.4684,3.4349,3.3777,3.3451,3.2818,3.2422,3.2043,3.1651,3.1315,3.0949,3.1329,3.171,3.228,3.2676,3.269,3.2586,3.2409,3.1877,3.1507,3.089,3.0247,2.9686,2.9619,2.9486,2.9339,2.9112,2.8871,2.8657,2.8444,2.8337,2.823,2.815,4.6347,4.6347,4.6347,4.6347,4.6347,4.6347,4.6347,4.6347,4.6347,4.6347,4.6347,4.6347,4.6347,4.6347,4.6347,4.6347,4.6347,4.6347,4.6347,4.6347,4.6347,4.6347,4.6347,4.6347,4.6347,4.6347,4.6347,4.6347,4.6347,4.6347,4.6347,4.6347,4.6347,4.6244,4.5954,4.554,4.5105,4.465,4.4194,4.3863,4.3635,4.3615,4.3615,4.3615,4.3615,4.3615,4.3615,4.3615,4.3615,4.3615,4.3615,4.3615,4.3462,4.3157,4.2544,4.239,4.2062,4.1733,4.1443,4.1133,4.0821,4.049,3.9381,3.9519,4.0666,4.203,4.2521,4.2052,4.1601,4.1592,4.1724,4.1335,4.1339,4.1416,4.11,4.1024,4.1042,4.1042,4.0198,3.899,3.8477,3.7619,3.641,3.5732,3.5209,3.4813,3.4196,3.3588,3.2737,3.2386,3.2193,3.166,3.1425,3.152,3.1885,3.228,3.2705,3.2749,3.2763,3.2586,3.2054,3.1685,3.1151,3.0396,3.0218,2.9833,2.974,2.9553,2.9312,2.9072,2.8804,2.8577,2.8417,2.8297,2.8203,4.6347,4.6347,4.6347,4.6347,4.6347,4.6347,4.6347,4.6347,4.6347,4.6347,4.6347,4.6347,4.6347,4.6347,4.6347,4.6347,4.6347,4.6347,4.6347,4.6347,4.6347,4.6347,4.6347,4.6347,4.6347,4.6347,4.6347,4.6347,4.6347,4.6347,4.6347,4.6347,4.6347,4.6119,4.5726,4.5312,4.4774,4.4298,4.3863,4.3635,4.3615,4.3615,4.3615,4.3615,4.3615,4.3615,4.3615,4.3615,4.3615,4.3615,4.3615,4.3615,4.3615,4.3615,4.3462,4.3157,4.283,4.2677,4.237,4.2236,4.1927,4.1598,4.0976,4.117,4.1793,4.2867,4.3441,4.2801,4.2724,4.2562,4.2903,4.2384,4.2392,4.2416,4.2364,4.2235,4.2049,4.2049,4.1733,4.0873,4.0198,3.916,3.7791,3.7102,3.6757,3.589,3.5273,3.4579,3.3939,3.3269,3.2946,3.2513,3.2297,3.2102,3.2322,3.231,3.2632,3.2763,3.2763,3.2586,3.2232,3.1685,3.1151,3.0794,3.0079,2.9873,2.9806,2.9753,2.9539,2.9285,2.8951,2.8698,2.8537,2.8337,2.8177,4.6347,4.6347,4.6347,4.6347,4.6347,4.6347,4.6347,4.6347,4.6347,4.6347,4.6347,4.6347,4.6347,4.6347,4.6347,4.6347,4.6347,4.6347,4.6347,4.6347,4.6347,4.6347,4.6347,4.6347,4.6347,4.6347,4.6347,4.6347,4.6347,4.6347,4.6347,4.6347,4.6264,4.6099,4.5581,4.5126,4.4774,4.4298,4.3842,4.3615,4.3615,4.3615,4.3615,4.3615,4.3615,4.3615,4.3615,4.3615,4.3615,4.3615,4.3615,4.3615,4.3615,4.3615,4.3615,4.3462,4.3462,4.331,4.3004,4.2851,4.2697,4.2544,4.2176,4.235,4.3013,4.3587,4.4111,4.4091,4.4258,4.4321,4.4072,4.3758,4.3341,4.3029,4.2735,4.2531,4.2178,4.2716,4.2569,4.244,4.1583,4.0536,3.9331,3.8819,3.8306,3.743,3.6518,3.5649,3.5004,3.4361,3.3751,3.333,3.3,3.2803,3.2703,3.269,3.2778,3.294,3.294,3.2763,3.2586,3.204,3.1493,3.0973,3.0437,2.9913,2.9873,2.9806,2.9713,2.9486,2.9152,2.8885,2.8631,2.8417,2.8163,4.6347,4.6347,4.6347,4.6347,4.6347,4.6347,4.6347,4.6347,4.6347,4.6347,4.6347,4.6347,4.6347,4.6347,4.6347,4.6347,4.6347,4.6347,4.6347,4.6347,4.6347,4.6347,4.6347,4.6347,4.6347,4.6347,4.6347,4.6347,4.6347,4.6347,4.6347,4.6306,4.6078,4.5726,4.5333,4.4836,4.436,4.3987,4.3718,4.3615,4.3615,4.3615,4.3615,4.3615,4.3615,4.3615,4.3615,4.3615,4.3615,4.3615,4.3615,4.3615,4.3615,4.3615,4.3615,4.3615,4.3615,4.3462,4.331,4.331,4.3157,4.3157,4.3177,4.3433,4.3875,4.4256,4.465,4.5016,4.5062,4.5068,4.4925,4.4534,4.4205,4.3711,4.338,4.3029,4.2844,4.3029,4.3234,4.3106,4.2959,4.1733,4.0687,4.0349,3.9671,3.8631,3.7946,3.7347,3.6436,3.5556,3.4957,3.4201,3.3884,3.3626,3.3305,3.3204,3.3204,3.3293,3.3293,3.3117,3.294,3.2572,3.1863,3.1151,3.0451,3.0093,2.9913,2.9873,2.9806,2.9593,2.9352,2.9058,2.8764,2.8377,2.8177,4.6575,4.6658,4.643,4.6347,4.6347,4.6347,4.6347,4.6347,4.6347,4.6347,4.6347,4.6347,4.6347,4.6347,4.6347,4.6347,4.6347,4.6347,4.6347,4.6347,4.6347,4.6347,4.6347,4.6347,4.6347,4.6347,4.6347,4.6347,4.6347,4.6347,4.6347,4.6326,4.5933,4.5498,4.5002,4.4588,4.4153,4.3718,4.3635,4.3615,4.3615,4.3615,4.3615,4.3615,4.3615,4.3615,4.3615,4.3615,4.3615,4.3615,4.3615,4.3615,4.3615,4.3615,4.3615,4.3615,4.3615,4.3615,4.3615,4.3615,4.3615,4.3615,4.3656,4.3822,4.4669,4.4619,4.4753,4.5581,4.5509,4.5553,4.5434,4.5046,4.4698,4.437,4.4041,4.3876,4.3711,4.3546,4.3546,4.3399,4.3253,4.3087,4.2216,4.1882,4.1042,3.9841,3.9331,3.899,3.7963,3.6929,3.6188,3.5399,3.5083,3.4607,3.4113,3.3983,3.3822,3.3822,3.3822,3.3646,3.347,3.294,3.2218,3.1329,3.0629,3.0451,3.0272,3.0093,2.99,2.9686,2.9472,2.9192,2.8858,2.8457,2.819,4.7237,4.7527,4.6699,4.6389,4.6389,4.6347,4.6347,4.6389,4.6368,4.6347,4.6347,4.6347,4.6347,4.6347,4.6347,4.6347,4.6347,4.6347,4.6347,4.6347,4.6347,4.6347,4.6347,4.6347,4.6347,4.6347,4.6347,4.6347,4.6347,4.6347,4.6347,4.6264,4.5768,4.5395,4.494,4.4401,4.4029,4.3677,4.3615,4.3615,4.3615,4.3615,4.3615,4.3615,4.3615,4.3615,4.3615,4.3615,4.3615,4.3615,4.3615,4.3615,4.3615,4.3615,4.3615,4.3615,4.3615,4.3615,4.3615,4.3615,4.3615,4.3615,4.3718,4.4099,4.4836,4.4992,4.5188,4.5685,4.5855,4.5879,4.584,4.5535,4.5209,4.4698,4.437,4.4001,4.3856,4.3711,4.3711,4.3711,4.3546,4.338,4.3214,4.2716,4.2049,4.0855,4.018,3.9841,3.916,3.8135,3.7447,3.6896,3.6378,3.5874,3.5034,3.4875,3.4859,3.4859,3.4684,3.4525,3.4174,3.3455,3.2925,3.2054,3.1357,3.0987,3.0451,3.0272,2.9887,2.978,2.9553,2.9138,2.8791,2.8404,2.8217,4.821,4.817,4.7815,4.7504,4.7154,4.6885,4.6761,4.672,4.6471,4.6347,4.6368,4.6347,4.6347,4.6347,4.6347,4.6347,4.6347,4.6347,4.6347,4.6347,4.6347,4.6347,4.6347,4.6347,4.6347,4.6347,4.6347,4.6347,4.6347,4.6347,4.6119,4.5892,4.5519,4.5022,4.4567,4.4174,4.3822,4.3698,4.3615,4.3615,4.3615,4.3615,4.3615,4.3615,4.3615,4.3615,4.3615,4.3615,4.3615,4.3615,4.3615,4.3615,4.3615,4.3615,4.3615,4.3615,4.3615,4.3615,4.3615,4.3615,4.3615,4.3698,4.3884,4.4256,4.5065,4.5167,4.5602,4.5995,4.6223,4.6185,4.6185,4.5881,4.5535,4.5209,4.4698,4.433,4.3982,4.3672,4.3691,4.3711,4.3711,4.3546,4.3546,4.338,4.2716,4.2049,4.1378,4.0873,4.001,3.9331,3.8648,3.8152,3.7808,3.7102,3.641,3.608,3.608,3.5906,3.5732,3.5383,3.5209,3.4494,3.3952,3.2925,3.1891,3.1343,3.0808,3.0272,2.9833,2.9686,2.9352,2.8938,2.8617,2.8323,2.823,4.9481,4.9277,4.9277,4.8609,4.7651,4.7361,4.7237,4.7175,4.6906,4.674,4.674,4.674,4.674,4.672,4.6596,4.6575,4.6533,4.6451,4.6368,4.6347,4.6347,4.6347,4.6347,4.6347,4.6347,4.6347,4.6347,4.6347,4.6347,4.6347,4.5975,4.554,4.5147,4.4774,4.4339,4.3863,4.3615,4.3615,4.3615,4.3615,4.3615,4.3615,4.3615,4.3615,4.3615,4.3615,4.3615,4.3615,4.3615,4.3615,4.3615,4.3615,4.3615,4.3615,4.3615,4.3615,4.3615,4.3615,4.3615,4.3615,4.3615,4.3656,4.4029,4.466,4.5179,4.5616,4.5788,4.6223,4.6326,4.6347,4.6347,4.6023,4.5881,4.5535,4.5046,4.4514,4.3962,4.3633,4.3672,4.3691,4.3691,4.3711,4.3711,4.3546,4.3214,4.255,4.2049,4.1714,4.121,4.0536,3.9841,3.9519,3.9195,3.8494,3.7791,3.7619,3.7447,3.7275,3.7102,3.6773,3.6237,3.57,3.5003,3.3983,3.294,3.1877,3.1343,3.0794,3.0096,2.9553,2.9152,2.8711,2.847,2.8217,2.819,5.1122,5.1054,5.1032,4.9826,4.7963,4.7693,4.7672,4.7672,4.7568,4.7527,4.7506,4.7527,4.7548,4.7444,4.7134,4.703,4.6947,4.6658,4.6513,4.6554,4.6513,4.643,4.6389,4.6389,4.6347,4.6347,4.6347,4.6347,4.6347,4.6347,4.5871,4.5229,4.4877,4.4608,4.4277,4.3842,4.3615,4.3615,4.3615,4.3615,4.3615,4.3615,4.3615,4.3615,4.3615,4.3615,4.3615,4.3615,4.3615,4.3615,4.3615,4.3615,4.3615,4.3615,4.3615,4.3615,4.3615,4.3615,4.3615,4.3615,4.3635,4.376,4.4215,4.4847,4.5859,4.6079,4.5892,4.6306,4.6347,4.6347,4.6347,4.6185,4.6023,4.5698,4.5209,4.4678,4.431,4.3797,4.3837,4.3691,4.3691,4.3691,4.3691,4.3711,4.3546,4.3048,4.2735,4.2402,4.2068,4.1714,4.0873,4.0705,4.0385,3.9876,3.916,3.899,3.8819,3.8819,3.8477,3.8135,3.7619,3.7086,3.6063,3.505,3.3822,3.2763,3.204,3.1315,3.0328,2.9501,2.8898,2.8511,2.8283,2.815,2.815,5.2921,5.2415,5.2415,5.155,5.0224,4.9091,4.8651,4.8421,4.8004,4.7693,4.7672,4.7672,4.7672,4.761,4.7589,4.7465,4.7424,4.7403,4.7237,4.7175,4.6947,4.6844,4.674,4.6533,4.6389,4.6347,4.6347,4.6347,4.6347,4.6347,4.5809,4.5147,4.4526,4.4008,4.3842,4.3656,4.3615,4.3615,4.3615,4.3615,4.3615,4.3615,4.3615,4.3615,4.3615,4.3615,4.3615,4.3615,4.3615,4.3615,4.3615,4.3615,4.3615,4.3615,4.3615,4.3615,4.3615,4.3615,4.3615,4.3635,4.378,4.4091,4.4484,4.5138,4.6079,4.6114,4.6202,4.6285,4.6347,4.6347,4.6347,4.6347,4.6185,4.6023,4.5678,4.5169,4.4638,4.433,4.4205,4.3856,4.3691,4.3691,4.3691,4.3691,4.3546,4.338,4.3048,4.2902,4.2735,4.2402,4.1882,4.19,4.1733,4.106,4.0705,4.0349,4.018,4.001,3.9841,3.9501,3.899,3.8306,3.7275,3.6063,3.4859,3.3646,3.2528,3.1352,3.011,2.9232,2.8724,2.843,2.823,2.815,2.815,5.4416,5.3738,5.3738,5.3408,5.2348,5.0585,4.9639,4.9407,4.8966,4.8651,4.8672,4.8672,4.8672,4.863,4.8505,4.8421,4.8421,4.8233,4.8191,4.817,4.794,4.7794,4.7605,4.7313,4.7145,4.702,4.6873,4.6811,4.6811,4.6811,4.6253,4.5524,4.4319,4.407,4.3863,4.378,4.3615,4.3615,4.3615,4.3615,4.3615,4.3615,4.3615,4.3615,4.3615,4.3615,4.3615,4.3615,4.3615,4.3615,4.3615,4.3615,4.3615,4.3615,4.3615,4.3615,4.3615,4.3615,4.3615,4.3615,4.3905,4.4526,4.4857,4.5408,4.6087,4.626,4.6244,4.6326,4.6347,4.6347,4.6347,4.6347,4.6347,4.6185,4.584,4.5332,4.5025,4.4738,4.4205,4.3856,4.3691,4.3691,4.3691,4.3691,4.3691,4.3546,4.338,4.338,4.3234,4.2902,4.2735,4.2569,4.2569,4.2086,4.1733,4.1546,4.121,4.1042,4.0873,4.0705,4.0028,3.9331,3.8135,3.6929,3.5732,3.4319,3.2632,3.1388,3.0216,2.9219,2.8711,2.8444,2.819,2.815,2.815,5.5553,5.523,5.523,5.4905,5.4066,5.2204,5.1054,5.0548,5.0358,5.0336,5.0336,5.0273,5.0209,5.023,4.9911,4.9762,4.9698,4.9358,4.9273,4.9353,4.9124,4.9246,4.8911,4.8592,4.8315,4.8124,4.7932,4.7741,4.7635,4.7305,4.6891,4.6174,4.5044,4.4577,4.4349,4.4049,4.3801,4.3677,4.3615,4.3615,4.3615,4.3615,4.3615,4.3615,4.3615,4.3615,4.3615,4.3615,4.3615,4.3615,4.3615,4.3615,4.3615,4.3615,4.3615,4.3615,4.3615,4.3615,4.3635,4.3635,4.4112,4.4753,4.5002,4.5512,4.5927,4.6343,4.6306,4.6347,4.6347,4.6347,4.6347,4.6347,4.6347,4.6185,4.6023,4.5556,4.527,4.4922,4.4205,4.3856,4.3691,4.3691,4.3691,4.3691,4.3691,4.3691,4.3546,4.3546,4.3565,4.3604,4.3272,4.3068,4.2921,4.2773,4.2421,4.2235,4.2235,4.2049,4.2068,4.1882,4.121,4.0198,3.899,3.7791,3.6427,3.4653,3.2661,3.1226,3.0069,2.9393,2.8738,2.8444,2.8217,2.815,2.815,5.7156,5.6494,5.6494,5.6013,5.5206,5.4393,5.289,5.139,5.139,5.139,5.139,5.139,5.139,5.1368,5.1238,5.1195,5.113,5.1065,5.1043,5.0891,5.0774,5.0544,5.0327,5.0186,4.9632,4.935,4.9111,4.8851,4.8569,4.8172,4.7641,4.7119,4.5869,4.546,4.5024,4.4588,4.4153,4.3842,4.3739,4.3739,4.3718,4.3739,4.3718,4.3739,4.3739,4.3739,4.3739,4.3718,4.3718,4.3677,4.3635,4.3615,4.3615,4.3615,4.3615,4.3615,4.3615,4.3615,4.3677,4.3925,4.4381,4.496,4.5271,4.5726,4.6078,4.6264,4.6347,4.6347,4.6347,4.6347,4.6347,4.6347,4.6347,4.6185,4.6023,4.5719,4.5433,4.4922,4.437,4.3856,4.3691,4.3691,4.3691,4.3691,4.3691,4.3691,4.3691,4.3691,4.3711,4.375,4.3604,4.3399,4.3399,4.3087,4.3087,4.2902,4.2902,4.2902,4.2902,4.2735,4.19,4.1042,3.9858,3.8306,3.6427,3.4494,3.2366,3.1268,3.0516,2.946,2.8791,2.8497,2.8257,2.819,2.815,5.7971,5.7473,5.7473,5.6997,5.6334,5.6013,5.4859,5.3386,5.289,5.2725,5.2747,5.2725,5.2725,5.2725,5.2702,5.2702,5.2868,5.2823,5.2801,5.2734,5.2413,5.2511,5.2287,5.1975,5.1639,5.126,5.0698,5.0523,4.9851,4.9182,4.8627,4.827,4.7033,4.6236,4.5796,4.5076,4.4608,4.4319,4.4174,4.4132,4.4112,4.4132,4.4153,4.4112,4.4112,4.4112,4.4112,4.4112,4.4132,4.4153,4.4153,4.4153,4.4174,4.4174,4.4174,4.4215,4.4236,4.4256,4.4298,4.4422,4.4815,4.5188,4.5519,4.5871,4.614,4.6326,4.6347,4.6347,4.6347,4.6347,4.6347,4.6347,4.6347,4.6347,4.6023,4.5861,4.5535,4.5066,4.4554,4.3876,4.3691,4.3691,4.3691,4.3691,4.3691,4.3691,4.3691,4.3691,4.3691,4.3711,4.373,4.3546,4.3546,4.3546,4.338,4.3234,4.3214,4.3214,4.338,4.3048,4.2569,4.1546,4.018,3.8306,3.6253,3.4494,3.2734,3.1911,3.0979,2.9891,2.8858,2.8604,2.835,2.8177,2.8136,5.8467,5.831,5.831,5.7813,5.7132,5.7132,5.6654,5.5852,5.5044,5.4579,5.4556,5.4416,5.4393,5.423,5.423,5.4393,5.423,5.423,5.423,5.4416,5.4161,5.4115,5.4163,5.4096,5.3405,5.3268,5.2786,5.2009,5.1757,5.0902,4.9986,4.9629,4.8449,4.7604,4.6775,4.5943,4.542,4.5461,4.5179,4.4981,4.4877,4.4919,4.5002,4.4919,4.4898,4.4898,4.4919,4.496,4.5002,4.4981,4.496,4.4898,4.4857,4.4857,4.4877,4.4877,4.4795,4.4774,4.4815,4.494,4.5209,4.5498,4.5726,4.5995,4.6244,4.6347,4.6347,4.6347,4.6347,4.6347,4.6347,4.6347,4.6347,4.6185,4.6023,4.5698,4.5209,4.4882,4.4205,4.3876,4.3691,4.3691,4.3691,4.3691,4.3691,4.3691,4.3691,4.3691,4.3691,4.3691,4.3691,4.3691,4.3691,4.3711,4.3711,4.3546,4.3546,4.3691,4.3691,4.3214,4.2569,4.1546,4.0518,3.846,3.6253,3.5034,3.3616,3.2455,3.1373,3.0065,2.9244,2.8698,2.847,2.8217,2.815,5.9043,5.8731,5.8443,5.8129,5.7971,5.7971,5.7813,5.7655,5.7473,5.6518,5.553,5.5368,5.5368,5.553,5.553,5.553,5.553,5.553,5.5368,5.553,5.553,5.553,5.553,5.5342,5.5108,5.4527,5.3966,5.335,5.2634,5.1916,5.1385,5.0898,4.9919,4.8938,4.8172,4.7154,4.6817,4.6765,4.6648,4.6016,4.5325,4.52,4.5002,4.5022,4.5043,4.5105,4.5084,4.5064,4.5022,4.4981,4.4981,4.4981,4.4981,4.5022,4.5002,4.5002,4.5105,4.5126,4.5209,4.5374,4.5602,4.5768,4.5954,4.6161,4.6306,4.6326,4.6347,4.6347,4.6347,4.6347,4.6347,4.6347,4.6185,4.6185,4.6023,4.5535,4.5046,4.4554,4.4041,4.3876,4.3691,4.3691,4.3691,4.3691,4.3691,4.3691,4.3691,4.3691,4.3691,4.3691,4.3691,4.3691,4.3691,4.3691,4.3691,4.3691,4.3691,4.3691,4.3691,4.3214,4.2569,4.1024,3.9671,3.8135,3.6427,3.5209,3.3822,3.2734,3.1402,3.0065,2.9298,2.8778,2.8444,2.8163,2.815,5.9353,5.9198,5.8912,5.8731,5.8599,5.8575,5.8443,5.8286,5.8286,5.7813,5.6997,5.6837,5.6837,5.6837,5.6837,5.6813,5.6837,5.6837,5.6997,5.6837,5.6678,5.6837,5.6837,5.6654,5.6454,5.6022,5.5231,5.4439,5.3466,5.2916,5.2612,5.1977,5.1208,5.0432,4.9494,4.8733,4.8237,4.8208,4.8018,4.7358,4.6332,4.6016,4.5581,4.5602,4.5581,4.5561,4.5581,4.5602,4.5602,4.5602,4.5643,4.5664,4.5685,4.5685,4.5623,4.5643,4.5664,4.5581,4.5643,4.5768,4.5954,4.6057,4.6119,4.6326,4.6326,4.6347,4.6347,4.6347,4.6347,4.6347,4.6347,4.6347,4.6185,4.6023,4.5861,4.5535,4.4882,4.4205,4.3876,4.3691,4.3691,4.3691,4.3691,4.3691,4.3691,4.3691,4.3691,4.3691,4.3691,4.3691,4.3691,4.3691,4.3691,4.3691,4.3691,4.3691,4.3691,4.3691,4.3691,4.3048,4.2216,4.0349,3.8648,3.7619,3.6427,3.5225,3.3983,3.2749,3.1359,3.0024,2.9325,2.8845,2.8484,2.815,2.815,5.9508,5.9508,5.9508,5.9328,5.9018,5.9043,5.8731,5.8443,5.8443,5.8443,5.8443,5.8286,5.8467,5.831,5.8286,5.8286,5.8129,5.7813,5.7971,5.8129,5.8129,5.7813,5.7971,5.8104,5.7507,5.6871,5.6064,5.5229,5.4296,5.3972,5.3521,5.2916,5.2307,5.1539,5.0588,5.0076,4.9763,4.9359,4.9109,4.8793,4.8092,4.7132,4.6566,4.6447,4.6347,4.6347,4.6326,4.6326,4.6326,4.6285,4.6182,4.6182,4.6161,4.614,4.6161,4.6161,4.6119,4.6161,4.6223,4.6202,4.6285,4.6326,4.6347,4.6347,4.6347,4.6347,4.6347,4.6347,4.6347,4.6347,4.6347,4.6185,4.6023,4.5698,4.5535,4.5209,4.4534,4.4041,4.3876,4.3691,4.3691,4.3691,4.3691,4.3691,4.3691,4.3691,4.3691,4.3691,4.3691,4.3691,4.3691,4.3691,4.3691,4.3691,4.3691,4.3691,4.3691,4.3691,4.3526,4.2863,4.1863,4.018,3.8819,3.7636,3.6427,3.505,3.3807,3.2749,3.1289,3.001,2.9379,2.8871,2.8417,2.815,2.815,5.9508,5.9508,5.9508,5.9508,5.9328,5.9353,5.9353,5.9353,5.9198,5.9198,5.9198,5.9198,5.9043,5.8286,5.8286,5.8286,5.8443,5.8443,5.8286,5.8286,5.8443,5.8443,5.8369,5.8352,5.7622,5.6885,5.6249,5.5582,5.4941,5.4719,5.4421,5.3672,5.3521,5.2916,5.1847,5.1516,5.1362,5.0789,5.0165,4.9852,4.9359,4.8389,4.7314,4.6993,4.6852,4.667,4.6347,4.6347,4.6347,4.6347,4.6347,4.6347,4.6368,4.6389,4.643,4.6451,4.6451,4.6451,4.6451,4.6368,4.6368,4.6347,4.6347,4.6347,4.6347,4.6347,4.6347,4.6347,4.6347,4.6347,4.6347,4.6185,4.6023,4.5535,4.5209,4.4534,4.4041,4.3876,4.3691,4.3691,4.3691,4.3691,4.3691,4.3691,4.3691,4.3691,4.3691,4.3691,4.3691,4.3691,4.3691,4.3691,4.3691,4.3691,4.3691,4.3691,4.3691,4.3691,4.3526,4.2697,4.1528,4.018,3.8819,3.7636,3.6427,3.505,3.3807,3.2557,3.1317,3.0079,2.9447,2.8885,2.843,2.8217,2.827]},{"header":{"parameterUnit":"m.s-1","parameterCategory":1,"la1":31.0,"la2":29.5877,"lo1":-88.7671,"lo2":-86.6584,"dx":0.0162,"dy":0.0185,"nx":115,"ny":88,"refTime":"2023-02-07T06:00:00:Z","depth":0,"parameterNumber":3,"parameterNumberName":"V-component_of_WINDS"},"data":[0.0,0.0,0.0,0.0,0.0,0.0,0.0,0.0,0.0,0.0,0.0,0.0,0.0,0.0,0.0,0.0,0.0,0.0,0.0,0.0,0.0,0.0,0.0,0.0,0.0,0.0,0.0,0.0,0.0,0.0,0.0,0.0,0.0,0.0,0.0,0.0,0.0,0.0,0.0,0.0,0.0,0.0,0.0,0.0,0.0,0.0,0.0,0.0,0.0,0.0,0.0,0.0,0.0,0.0,0.0,0.0,0.0,0.0,0.0,0.0,0.0,0.0,0.0,0.0,0.0,0.0,0.0,0.0,0.0,0.0,0.0,0.0,0.0,0.0,0.0,0.0,0.0,0.0,0.0,0.0,0.0,0.0,0.0,0.0,0.0,0.0,0.0,0.0,0.0,0.0,0.0,0.0,0.0,0.0,0.0,0.0,0.0,0.0,0.0,0.0,0.0,0.0,0.0,0.0,0.0,0.0,0.0,0.0,0.0,0.0,0.0,0.0,0.0,0.0,0.0,0.0,0.0,0.0,0.0,0.0,0.0,0.0,0.0,0.0,0.0,0.0,0.0,0.0,0.0,0.0,0.0,0.0,0.0,0.0,0.0,0.0,0.0,0.0,0.0,0.0,0.0,0.0,0.0,0.0,0.0,0.0,0.0,0.0,0.0,0.0,0.0,0.0,0.0,0.0,0.0,0.0,0.0,0.0,0.0,0.0,0.0,0.0,0.0,0.0,0.0,0.0,0.0,0.0,0.0,0.0,0.0,0.0,0.0,0.0,0.0,0.0,0.0,0.0,0.0,0.0,0.0,0.0,0.0,0.0,0.0,0.0,0.0,0.0,0.0,0.0,0.0,0.0,0.0,0.0,0.0,0.0,0.0,0.0,0.0,0.0,0.0,0.0,0.0,0.0,0.0,0.0,0.0,0.0,0.0,0.0,0.0,0.0,0.0,0.0,0.0,0.0,0.0,0.0,0.0,0.0,0.0,0.0,0.0,0.0,0.0,0.0,0.0,0.0,0.0,0.0,0.0,0.0,0.0,0.0,0.0,0.0,0.0,0.0,0.0,0.0,0.0,0.0,0.0,0.0,0.0,0.0,0.0,0.0,0.0,0.0,0.0,0.0,0.0,0.0,0.0,0.0,0.0,0.0,0.0,0.0,0.0,0.0,0.0,0.0,0.0,0.0,0.0,0.0,0.0,0.0,0.0,0.0,0.0,0.0,0.0,0.0,0.0,0.0,0.0,0.0,0.0,0.0,0.0,0.0,0.0,0.0,0.0,0.0,0.0,0.0,0.0,0.0,0.0,0.0,0.0,0.0,0.0,0.0,0.0,0.0,0.0,0.0,0.0,0.0,0.0,0.0,0.0,0.0,0.0,0.0,0.0,0.0,0.0,0.0,0.0,0.0,0.0,0.0,0.0,0.0,0.0,0.0,0.0,0.0,0.0,0.0,0.0,0.0,0.0,0.0,0.0,0.0,0.0,0.0,0.0,0.0,0.0,0.0,0.0,0.0,0.0,0.0,0.0,0.0,0.0,0.0,0.0,0.0,0.0,0.0,0.0,0.0,0.0,0.0,0.0,0.0,0.0,0.0,0.0,0.0,0.0,0.0,0.0,0.0,0.0,0.0,0.0,0.0,0.0,0.0,0.0,0.0,0.0,0.0,0.0,0.0,0.0,0.0,0.0,0.0,0.0,0.0,0.0,0.0,0.0,0.0,0.0,0.0,0.0,0.0,0.0,0.0,0.0,0.0,0.0,0.0,0.0,0.0,0.0,0.0,0.0,0.0,0.0,0.0,0.0,0.0,0.0,0.0,0.0,0.0,0.0,0.0,0.0,0.0,0.0,0.0,0.0,0.0,0.0,0.0,0.0,0.0,0.0,0.0,0.0,0.0,0.0,0.0,0.0,0.0,0.0,0.0,0.0,0.0,0.0,0.0,0.0,0.0,0.0,0.0,0.0,0.0,0.0,0.0,0.0,0.0,0.0,0.0,0.0,0.0,0.0,0.0,0.0,0.0,0.0,0.0,0.0,0.0,0.0,0.0,0.0,0.0,0.0,0.0,0.0,0.0,0.0,0.0,0.0,0.0,0.0,0.0,0.0,0.0,0.0,0.0,0.0,0.0,0.0,0.0,0.0,0.0,0.0,0.0,0.0,0.0,0.0,0.0,0.0,0.0,0.0,0.0,0.0,0.0,0.0,0.0,0.0,0.0,0.0,0.0,0.0,0.0,0.0,0.0,0.0,0.0,0.0,0.0,0.0,0.0,0.0,0.0,0.0,0.0,0.0,0.0,0.0,0.0,0.0,0.0,0.0,0.0,0.0,0.0,0.0,0.0,0.0,0.0,0.0,0.0,0.0,0.0,0.0,0.0,0.0,0.0,0.0,0.0,0.0,0.0,0.0,0.0,0.0,0.0,0.0,0.0,0.0,0.0,0.0,0.0,0.0,0.0,0.0,0.0,0.0,0.0,0.0,0.0,0.0,0.0,0.0,0.0,0.0,0.0,0.0,0.0,0.0,0.0,0.0,0.0,0.0,0.0,0.0,0.0,0.0,0.0,0.0,0.0,0.0,0.0,0.0,0.0,0.0,0.0,0.0,0.0,0.0,0.0,0.0,0.0,0.0,0.0,0.0,0.0,0.0,0.0,0.0,0.0,0.0,0.0,0.0,0.0,0.0,0.0,0.0,0.0,0.0,0.0,0.0,0.0,0.0,0.0,0.0,0.0,0.0,0.0,0.0,0.0,0.0,0.0,0.0,0.0,0.0,0.0,0.0,0.0,0.0,0.0,0.0,0.0,0.0,0.0,0.0,0.0,0.0,0.0,0.0,0.0,0.0,0.0,0.0,0.0,0.0,0.0,0.0,0.0,0.0,0.0,0.0,0.0,0.0,0.0,0.0,0.0,0.0,0.0,0.0,0.0,0.0,0.0,0.0,0.0,0.0,0.0,0.0,0.0,0.0,0.0,0.0,0.0,0.0,0.0,0.0,0.0,0.0,0.0,0.0,0.0,0.0,0.0,0.0,0.0,0.0,0.0,0.0,0.0,0.0,0.0,0.0,0.0,0.0,0.0,0.0,0.0,0.0,0.0,0.0,0.0,0.0,0.0,0.0,0.0,0.0,0.0,0.0,0.0,0.0,0.0,0.0,0.0,0.0,0.0,0.0,0.0,0.0,0.0,0.0,0.0,0.0,0.0,0.0,0.0,0.0,0.0,0.0,0.0,0.0,0.0,0.0,0.0,0.0,0.0,0.0,0.0,0.0,0.0,0.0,0.0,0.0,0.0,0.0,0.0,0.0,0.0,0.0,0.0,0.0,0.0,0.0,0.0,0.0,0.0,0.0,0.0,0.0,0.0,0.0,0.0,0.0,0.0,0.0,0.0,0.0,0.0,0.0,0.0,0.0,0.0,0.0,0.0,0.0,0.0,0.0,0.0,0.0,0.0,0.0,0.0,0.0,0.0,0.0,0.0,0.0,0.0,0.0,0.0,0.0,0.0,0.0,0.0,0.0,0.0,0.0,0.0,0.0,0.0,0.0,0.0,0.0,0.0,0.0,0.0,0.0,0.0,0.0,0.0,0.0,0.0,0.0,0.0,0.0,0.0,0.0,0.0,0.0,0.0,0.0,0.0,0.0,0.0,0.0,0.0,0.0,0.0,0.0,0.0,0.0,0.0,0.0,0.0,0.0,0.0,0.0,0.0,0.0,0.0,0.0,0.0,0.0,0.0,0.0,0.0,0.0,0.0,0.0,0.0,0.0,0.0,0.0,0.0,0.0,0.0,0.0,0.0,0.0,0.0,0.0,0.0,0.0,0.0,0.0,0.0,0.0,0.0,0.0,0.0,0.0,0.0,0.0,0.0,0.0,0.0,0.0,0.0,0.0,0.0,0.0,0.0,0.0,0.0,0.0,0.0,0.0,0.0,0.0,0.0,0.0,0.0,0.0,0.0,0.0,0.0,0.0,0.0,0.0,0.0,0.0,0.0,0.0,0.0,0.0,0.0,0.0,0.0,0.0,0.0,0.0,0.0,0.0,0.0,0.0,0.0,0.0,0.0,0.0,0.0,0.0,0.0,0.0,0.0,0.0,0.0,0.0,0.0,0.0,0.0,0.0,0.0,0.0,0.0,0.0,0.0,0.0,0.0,0.0,0.0,0.0,0.0,0.0,0.0,0.0,0.0,0.0,0.0,0.0,0.0,0.0,0.0,0.0,0.0,0.0,0.0,0.0,0.0,0.0,0.0,0.0,0.0,0.0,0.0,0.0,0.0,0.0,0.0,0.0,0.0,-4.4553,0.0,0.0,0.0,0.0,0.0,0.0,0.0,0.0,0.0,0.0,0.0,0.0,0.0,0.0,0.0,0.0,0.0,0.0,0.0,0.0,0.0,0.0,0.0,0.0,0.0,0.0,0.0,0.0,0.0,0.0,0.0,0.0,0.0,0.0,0.0,0.0,0.0,0.0,0.0,0.0,0.0,0.0,0.0,0.0,0.0,0.0,0.0,0.0,0.0,0.0,0.0,0.0,0.0,0.0,0.0,0.0,0.0,0.0,0.0,0.0,0.0,0.0,0.0,0.0,0.0,0.0,0.0,0.0,0.0,0.0,0.0,0.0,0.0,0.0,0.0,0.0,0.0,0.0,0.0,0.0,0.0,0.0,0.0,0.0,0.0,0.0,0.0,0.0,0.0,0.0,0.0,0.0,0.0,0.0,0.0,0.0,0.0,0.0,0.0,0.0,0.0,0.0,0.0,0.0,0.0,0.0,0.0,0.0,0.0,0.0,-4.4553,-4.4553,-4.4553,-4.4553,-4.4553,0.0,0.0,0.0,0.0,0.0,0.0,0.0,0.0,0.0,0.0,0.0,0.0,0.0,0.0,0.0,0.0,0.0,0.0,0.0,0.0,0.0,0.0,0.0,0.0,0.0,0.0,0.0,0.0,0.0,0.0,0.0,0.0,0.0,0.0,0.0,0.0,0.0,0.0,0.0,0.0,0.0,0.0,0.0,0.0,0.0,0.0,0.0,0.0,0.0,0.0,0.0,0.0,0.0,0.0,0.0,0.0,0.0,0.0,0.0,0.0,0.0,0.0,0.0,0.0,0.0,0.0,0.0,0.0,0.0,0.0,0.0,0.0,0.0,0.0,0.0,0.0,0.0,0.0,0.0,0.0,0.0,0.0,0.0,0.0,0.0,0.0,0.0,0.0,0.0,0.0,0.0,0.0,0.0,0.0,0.0,0.0,0.0,0.0,0.0,0.0,0.0,0.0,0.0,0.0,0.0,0.0,0.0,0.0,0.0,0.0,0.0,0.0,-4.4553,-4.4553,-4.4553,0.0,0.0,0.0,0.0,0.0,0.0,0.0,0.0,0.0,0.0,0.0,0.0,0.0,0.0,0.0,0.0,0.0,0.0,0.0,0.0,0.0,0.0,0.0,0.0,0.0,0.0,0.0,0.0,0.0,0.0,0.0,0.0,0.0,0.0,0.0,0.0,0.0,0.0,0.0,0.0,0.0,0.0,0.0,0.0,0.0,0.0,0.0,0.0,0.0,0.0,0.0,0.0,0.0,0.0,0.0,0.0,0.0,0.0,0.0,0.0,0.0,0.0,0.0,0.0,0.0,0.0,0.0,0.0,0.0,0.0,0.0,0.0,0.0,0.0,0.0,0.0,0.0,0.0,0.0,0.0,0.0,0.0,0.0,0.0,0.0,0.0,0.0,0.0,0.0,0.0,0.0,0.0,0.0,0.0,0.0,0.0,0.0,0.0,0.0,0.0,0.0,0.0,0.0,0.0,0.0,0.0,0.0,0.0,0.0,0.0,-4.4553,-4.4553,-4.4553,0.0,-4.4553,0.0,0.0,0.0,0.0,0.0,0.0,0.0,0.0,0.0,0.0,0.0,0.0,0.0,0.0,0.0,0.0,0.0,0.0,0.0,0.0,0.0,0.0,0.0,0.0,0.0,0.0,0.0,0.0,0.0,0.0,0.0,0.0,0.0,0.0,0.0,0.0,0.0,0.0,0.0,0.0,0.0,0.0,0.0,0.0,0.0,0.0,0.0,0.0,0.0,0.0,0.0,0.0,0.0,0.0,0.0,0.0,0.0,0.0,0.0,0.0,0.0,0.0,0.0,0.0,0.0,0.0,0.0,0.0,0.0,0.0,0.0,0.0,0.0,0.0,0.0,0.0,0.0,0.0,0.0,0.0,0.0,0.0,0.0,0.0,0.0,0.0,0.0,0.0,0.0,0.0,0.0,0.0,0.0,0.0,0.0,0.0,0.0,0.0,0.0,0.0,0.0,0.0,0.0,0.0,0.0,0.0,0.0,0.0,0.0,0.0,-4.4553,-4.4553,-4.4553,-4.4553,0.0,0.0,0.0,0.0,0.0,0.0,0.0,0.0,0.0,0.0,0.0,0.0,0.0,0.0,0.0,0.0,0.0,0.0,0.0,0.0,0.0,0.0,0.0,0.0,0.0,0.0,0.0,0.0,0.0,0.0,0.0,0.0,0.0,0.0,0.0,0.0,0.0,0.0,0.0,0.0,0.0,0.0,0.0,0.0,0.0,0.0,0.0,0.0,0.0,0.0,0.0,0.0,0.0,0.0,0.0,0.0,0.0,0.0,0.0,0.0,0.0,0.0,0.0,0.0,0.0,0.0,0.0,0.0,0.0,0.0,0.0,0.0,0.0,0.0,0.0,0.0,0.0,0.0,0.0,0.0,0.0,0.0,0.0,0.0,0.0,0.0,0.0,0.0,0.0,0.0,0.0,0.0,0.0,0.0,0.0,0.0,0.0,0.0,0.0,0.0,0.0,0.0,0.0,0.0,0.0,0.0,0.0,0.0,0.0,0.0,-4.4553,-4.4553,-4.4553,-4.4553,-4.4553,-4.4553,0.0,0.0,0.0,0.0,0.0,0.0,0.0,0.0,0.0,0.0,0.0,0.0,0.0,0.0,0.0,0.0,0.0,0.0,0.0,0.0,0.0,0.0,0.0,0.0,0.0,0.0,0.0,0.0,0.0,0.0,0.0,0.0,0.0,0.0,0.0,0.0,0.0,0.0,0.0,0.0,0.0,0.0,0.0,0.0,0.0,0.0,0.0,0.0,0.0,0.0,0.0,0.0,0.0,0.0,0.0,0.0,0.0,0.0,0.0,0.0,0.0,0.0,0.0,0.0,0.0,0.0,0.0,0.0,0.0,0.0,0.0,0.0,0.0,0.0,0.0,0.0,0.0,0.0,0.0,0.0,0.0,0.0,0.0,0.0,0.0,0.0,0.0,0.0,0.0,0.0,0.0,0.0,0.0,0.0,0.0,0.0,0.0,0.0,0.0,0.0,0.0,0.0,0.0,0.0,0.0,0.0,0.0,0.0,-4.4553,-4.4553,-4.4553,-4.4553,-4.4553,-4.4553,0.0,0.0,0.0,0.0,0.0,0.0,0.0,0.0,0.0,0.0,0.0,0.0,0.0,0.0,0.0,0.0,0.0,0.0,0.0,0.0,0.0,0.0,0.0,0.0,0.0,0.0,0.0,0.0,0.0,0.0,0.0,0.0,0.0,0.0,0.0,0.0,0.0,0.0,0.0,0.0,0.0,0.0,0.0,0.0,0.0,0.0,0.0,0.0,0.0,0.0,0.0,0.0,0.0,0.0,0.0,0.0,0.0,0.0,0.0,0.0,0.0,0.0,0.0,0.0,0.0,0.0,0.0,0.0,0.0,0.0,0.0,0.0,0.0,0.0,0.0,0.0,0.0,0.0,0.0,0.0,0.0,0.0,0.0,0.0,0.0,0.0,0.0,0.0,0.0,0.0,0.0,0.0,0.0,0.0,0.0,0.0,0.0,0.0,0.0,0.0,0.0,0.0,0.0,0.0,0.0,0.0,0.0,0.0,0.0,-4.4553,-4.4553,-4.4553,-4.4553,-4.4553,-4.4553,0.0,0.0,0.0,0.0,0.0,0.0,0.0,0.0,0.0,0.0,0.0,0.0,0.0,0.0,0.0,0.0,0.0,0.0,0.0,0.0,0.0,0.0,0.0,0.0,0.0,0.0,0.0,0.0,0.0,0.0,0.0,0.0,0.0,0.0,0.0,0.0,0.0,0.0,0.0,0.0,0.0,0.0,0.0,0.0,0.0,0.0,0.0,0.0,0.0,0.0,0.0,0.0,0.0,0.0,0.0,0.0,0.0,0.0,0.0,0.0,0.0,0.0,0.0,0.0,0.0,0.0,0.0,0.0,0.0,0.0,0.0,0.0,0.0,0.0,0.0,0.0,0.0,0.0,0.0,0.0,0.0,0.0,0.0,0.0,0.0,0.0,0.0,0.0,0.0,0.0,0.0,0.0,0.0,0.0,0.0,0.0,0.0,0.0,0.0,0.0,0.0,0.0,0.0,0.0,0.0,0.0,0.0,0.0,0.0,-4.4553,0.0,-4.4553,-4.4553,-4.4553,-4.4553,0.0,0.0,0.0,0.0,0.0,0.0,0.0,0.0,0.0,0.0,0.0,0.0,0.0,0.0,0.0,0.0,0.0,0.0,0.0,0.0,0.0,0.0,0.0,0.0,0.0,0.0,0.0,0.0,0.0,0.0,0.0,0.0,0.0,0.0,0.0,0.0,0.0,0.0,0.0,0.0,0.0,0.0,0.0,0.0,0.0,0.0,0.0,0.0,0.0,0.0,0.0,0.0,0.0,0.0,0.0,0.0,0.0,0.0,0.0,0.0,0.0,0.0,0.0,0.0,0.0,0.0,0.0,0.0,0.0,0.0,0.0,0.0,0.0,0.0,0.0,0.0,0.0,0.0,0.0,0.0,0.0,0.0,0.0,0.0,0.0,0.0,0.0,0.0,0.0,0.0,0.0,0.0,0.0,0.0,0.0,0.0,0.0,0.0,0.0,0.0,0.0,0.0,0.0,0.0,0.0,0.0,0.0,0.0,-4.4587,-4.4553,-4.4553,-4.4553,-4.4553,-4.4553,-4.4553,0.0,0.0,0.0,0.0,0.0,0.0,0.0,0.0,0.0,0.0,0.0,0.0,0.0,0.0,0.0,0.0,0.0,0.0,0.0,0.0,0.0,0.0,0.0,0.0,0.0,0.0,0.0,0.0,0.0,0.0,0.0,0.0,0.0,0.0,0.0,0.0,0.0,0.0,0.0,0.0,0.0,0.0,0.0,0.0,0.0,0.0,0.0,0.0,0.0,0.0,0.0,0.0,0.0,0.0,0.0,0.0,0.0,0.0,0.0,0.0,0.0,0.0,0.0,0.0,0.0,0.0,0.0,0.0,0.0,0.0,0.0,0.0,0.0,0.0,0.0,0.0,0.0,0.0,0.0,0.0,0.0,0.0,0.0,0.0,0.0,0.0,0.0,0.0,0.0,0.0,0.0,0.0,0.0,0.0,0.0,0.0,0.0,0.0,0.0,0.0,0.0,0.0,0.0,0.0,0.0,0.0,0.0,0.0,0.0,-4.4587,-4.4553,-4.4553,-4.4553,-4.4553,-4.4553,0.0,0.0,0.0,0.0,0.0,0.0,0.0,0.0,0.0,0.0,0.0,0.0,0.0,0.0,0.0,0.0,0.0,0.0,0.0,0.0,0.0,0.0,0.0,0.0,0.0,0.0,0.0,0.0,0.0,0.0,0.0,0.0,0.0,0.0,0.0,0.0,0.0,0.0,0.0,0.0,0.0,0.0,0.0,0.0,0.0,0.0,0.0,0.0,0.0,0.0,0.0,0.0,0.0,0.0,0.0,0.0,0.0,0.0,0.0,0.0,0.0,0.0,0.0,0.0,0.0,0.0,0.0,0.0,0.0,0.0,0.0,0.0,0.0,0.0,0.0,0.0,0.0,0.0,0.0,0.0,0.0,0.0,0.0,0.0,0.0,0.0,0.0,0.0,0.0,0.0,0.0,0.0,0.0,0.0,0.0,0.0,0.0,0.0,0.0,0.0,0.0,0.0,0.0,0.0,0.0,0.0,0.0,0.0,0.0,-4.5399,-4.5399,-4.5399,-4.5399,-4.5162,-4.4993,-4.4993,0.0,0.0,0.0,0.0,0.0,0.0,0.0,0.0,0.0,0.0,0.0,0.0,0.0,0.0,0.0,0.0,0.0,0.0,0.0,0.0,0.0,0.0,0.0,0.0,0.0,0.0,0.0,0.0,0.0,0.0,0.0,0.0,0.0,0.0,0.0,0.0,0.0,0.0,0.0,0.0,0.0,0.0,0.0,0.0,0.0,0.0,0.0,0.0,0.0,0.0,0.0,0.0,0.0,0.0,0.0,0.0,0.0,0.0,0.0,0.0,0.0,0.0,0.0,0.0,0.0,0.0,0.0,0.0,0.0,0.0,0.0,0.0,0.0,0.0,0.0,0.0,0.0,0.0,0.0,0.0,0.0,0.0,0.0,0.0,0.0,0.0,0.0,0.0,0.0,0.0,0.0,0.0,0.0,0.0,0.0,0.0,0.0,0.0,0.0,0.0,0.0,0.0,0.0,0.0,0.0,0.0,0.0,0.0,-4.6819,-4.6887,-4.6853,-4.6752,-4.6075,-4.5703,0.0,0.0,0.0,0.0,0.0,0.0,0.0,0.0,0.0,0.0,0.0,0.0,0.0,0.0,0.0,0.0,0.0,0.0,0.0,0.0,0.0,0.0,0.0,0.0,0.0,0.0,0.0,0.0,0.0,0.0,0.0,0.0,0.0,0.0,0.0,0.0,0.0,0.0,0.0,0.0,0.0,0.0,0.0,0.0,0.0,0.0,0.0,0.0,0.0,0.0,0.0,0.0,0.0,0.0,0.0,0.0,0.0,0.0,0.0,0.0,0.0,0.0,0.0,0.0,0.0,0.0,0.0,0.0,0.0,0.0,0.0,0.0,0.0,0.0,0.0,0.0,0.0,0.0,0.0,0.0,0.0,0.0,0.0,0.0,0.0,0.0,0.0,0.0,0.0,0.0,0.0,0.0,0.0,0.0,0.0,0.0,0.0,0.0,0.0,0.0,0.0,0.0,0.0,0.0,0.0,0.0,0.0,0.0,0.0,-4.7597,-4.8139,-4.7902,-4.6819,-4.6075,-4.576,0.0,0.0,0.0,0.0,0.0,0.0,0.0,0.0,0.0,0.0,0.0,0.0,0.0,0.0,0.0,0.0,0.0,0.0,0.0,0.0,0.0,0.0,0.0,0.0,0.0,0.0,0.0,0.0,0.0,0.0,0.0,0.0,0.0,0.0,0.0,0.0,0.0,0.0,0.0,0.0,0.0,0.0,0.0,0.0,0.0,0.0,0.0,0.0,0.0,0.0,0.0,0.0,0.0,0.0,0.0,0.0,0.0,0.0,0.0,0.0,0.0,0.0,0.0,0.0,0.0,0.0,0.0,0.0,0.0,0.0,0.0,0.0,0.0,0.0,0.0,0.0,0.0,0.0,0.0,0.0,0.0,0.0,0.0,0.0,0.0,0.0,0.0,0.0,0.0,0.0,0.0,0.0,0.0,0.0,0.0,0.0,0.0,0.0,0.0,0.0,0.0,0.0,0.0,0.0,0.0,0.0,0.0,0.0,-4.7631,-4.8342,-4.8781,-4.8612,-4.7767,-4.7048,-4.6564,0.0,0.0,0.0,0.0,0.0,0.0,0.0,0.0,0.0,0.0,0.0,0.0,0.0,0.0,0.0,0.0,0.0,0.0,0.0,0.0,0.0,0.0,0.0,0.0,0.0,0.0,0.0,0.0,0.0,0.0,0.0,0.0,0.0,0.0,0.0,0.0,0.0,0.0,0.0,0.0,0.0,0.0,0.0,0.0,0.0,0.0,0.0,0.0,0.0,0.0,0.0,0.0,0.0,0.0,0.0,0.0,0.0,0.0,0.0,0.0,0.0,0.0,0.0,0.0,0.0,0.0,0.0,0.0,0.0,0.0,0.0,0.0,0.0,0.0,0.0,0.0,0.0,0.0,0.0,0.0,0.0,0.0,0.0,0.0,0.0,0.0,0.0,0.0,0.0,0.0,0.0,0.0,0.0,0.0,0.0,0.0,0.0,0.0,0.0,0.0,0.0,0.0,0.0,0.0,0.0,0.0,0.0,0.0,-4.8274,-4.8984,-4.9018,-4.9018,-4.8984,-4.8455,-4.7733,0.0,0.0,0.0,0.0,0.0,0.0,0.0,0.0,0.0,0.0,0.0,0.0,0.0,0.0,0.0,0.0,0.0,0.0,0.0,0.0,0.0,0.0,0.0,0.0,0.0,0.0,0.0,0.0,0.0,0.0,0.0,0.0,0.0,0.0,0.0,0.0,0.0,0.0,0.0,0.0,0.0,0.0,0.0,0.0,0.0,0.0,0.0,0.0,0.0,0.0,0.0,0.0,0.0,0.0,0.0,0.0,0.0,0.0,0.0,0.0,0.0,0.0,0.0,0.0,0.0,0.0,0.0,0.0,0.0,0.0,0.0,0.0,0.0,0.0,0.0,0.0,0.0,0.0,0.0,0.0,0.0,0.0,0.0,0.0,0.0,0.0,0.0,0.0,0.0,0.0,0.0,0.0,0.0,0.0,0.0,0.0,0.0,0.0,0.0,0.0,0.0,0.0,0.0,0.0,0.0,0.0,0.0,0.0,-4.8267,-4.8984,-4.9018,-4.9046,-4.9168,-4.8481,-4.7792,0.0,0.0,0.0,0.0,0.0,0.0,0.0,0.0,0.0,0.0,0.0,0.0,0.0,0.0,0.0,0.0,0.0,0.0,0.0,0.0,0.0,0.0,0.0,0.0,0.0,0.0,0.0,0.0,0.0,0.0,0.0,0.0,0.0,0.0,0.0,0.0,0.0,0.0,0.0,0.0,0.0,0.0,0.0,0.0,0.0,0.0,0.0,0.0,-4.7388,0.0,0.0,0.0,0.0,0.0,0.0,0.0,0.0,0.0,0.0,0.0,0.0,0.0,0.0,0.0,0.0,0.0,0.0,0.0,0.0,0.0,0.0,0.0,0.0,0.0,0.0,0.0,0.0,0.0,0.0,0.0,0.0,0.0,0.0,0.0,0.0,0.0,0.0,0.0,0.0,0.0,0.0,0.0,0.0,0.0,0.0,0.0,0.0,0.0,0.0,0.0,0.0,0.0,0.0,0.0,0.0,0.0,0.0,0.0,-4.864,-4.8984,-4.9046,-4.9107,-4.9168,-4.8941,-4.8401,0.0,0.0,0.0,0.0,0.0,0.0,0.0,0.0,0.0,0.0,0.0,0.0,0.0,0.0,0.0,0.0,0.0,0.0,0.0,0.0,0.0,0.0,0.0,0.0,0.0,0.0,0.0,0.0,0.0,0.0,0.0,0.0,0.0,0.0,0.0,0.0,0.0,0.0,0.0,0.0,0.0,0.0,0.0,0.0,0.0,0.0,0.0,0.0,0.0,0.0,0.0,0.0,0.0,0.0,0.0,0.0,0.0,0.0,0.0,0.0,0.0,0.0,0.0,0.0,0.0,0.0,0.0,0.0,0.0,0.0,0.0,0.0,0.0,0.0,0.0,0.0,0.0,0.0,0.0,0.0,0.0,0.0,0.0,0.0,0.0,0.0,0.0,0.0,0.0,0.0,0.0,0.0,0.0,0.0,0.0,0.0,0.0,0.0,0.0,0.0,0.0,0.0,0.0,0.0,0.0,0.0,0.0,-4.8382,-4.9221,-4.9249,-4.9338,-4.9399,-4.946,-4.9658,-4.9137,-4.7824,0.0,0.0,0.0,0.0,0.0,0.0,0.0,0.0,0.0,0.0,0.0,0.0,0.0,0.0,0.0,0.0,0.0,0.0,0.0,0.0,0.0,0.0,0.0,0.0,0.0,0.0,0.0,0.0,0.0,0.0,0.0,0.0,0.0,0.0,0.0,0.0,0.0,0.0,-4.8306,-4.8306,0.0,0.0,0.0,0.0,0.0,0.0,0.0,0.0,-4.6067,0.0,0.0,0.0,0.0,0.0,0.0,0.0,0.0,0.0,0.0,0.0,0.0,0.0,0.0,0.0,0.0,0.0,0.0,0.0,0.0,0.0,0.0,0.0,0.0,0.0,0.0,0.0,0.0,0.0,0.0,0.0,0.0,0.0,0.0,0.0,0.0,0.0,0.0,0.0,0.0,0.0,0.0,0.0,0.0,0.0,0.0,0.0,0.0,0.0,0.0,0.0,0.0,0.0,0.0,0.0,0.0,-4.7733,-4.9135,-4.9974,-5.0153,-5.0215,-5.0339,-5.0609,-5.0076,-4.9366,-4.8293,0.0,0.0,0.0,0.0,0.0,0.0,0.0,0.0,0.0,0.0,0.0,0.0,0.0,0.0,0.0,0.0,0.0,0.0,0.0,0.0,0.0,0.0,0.0,0.0,0.0,0.0,0.0,0.0,0.0,0.0,0.0,0.0,0.0,0.0,0.0,0.0,0.0,0.0,0.0,-4.8306,-4.8306,0.0,0.0,0.0,0.0,0.0,0.0,0.0,0.0,-4.5663,0.0,0.0,0.0,0.0,0.0,0.0,0.0,0.0,0.0,0.0,0.0,0.0,0.0,0.0,0.0,0.0,0.0,0.0,0.0,0.0,0.0,0.0,0.0,0.0,0.0,0.0,0.0,0.0,0.0,0.0,0.0,0.0,0.0,0.0,0.0,0.0,0.0,0.0,0.0,0.0,0.0,0.0,0.0,0.0,0.0,0.0,0.0,0.0,0.0,0.0,0.0,0.0,0.0,0.0,0.0,-4.7936,-4.9458,-5.0299,-5.0419,-5.0946,-5.1131,-5.0995,-5.0852,-5.0028,0.0,0.0,0.0,0.0,0.0,0.0,0.0,0.0,0.0,0.0,0.0,0.0,0.0,0.0,0.0,0.0,0.0,0.0,0.0,0.0,0.0,0.0,0.0,0.0,0.0,0.0,0.0,0.0,0.0,0.0,0.0,0.0,0.0,0.0,0.0,0.0,0.0,0.0,0.0,0.0,-4.8306,-4.8306,-4.8306,0.0,0.0,0.0,0.0,0.0,0.0,-4.6691,-4.5773,0.0,0.0,0.0,0.0,0.0,0.0,0.0,0.0,0.0,0.0,0.0,0.0,0.0,0.0,0.0,0.0,0.0,0.0,0.0,0.0,0.0,0.0,0.0,0.0,0.0,0.0,0.0,0.0,0.0,0.0,0.0,0.0,0.0,0.0,0.0,0.0,0.0,0.0,0.0,0.0,0.0,0.0,0.0,0.0,0.0,0.0,0.0,0.0,0.0,0.0,0.0,0.0,0.0,0.0,0.0,-4.8233,-4.978,-5.0686,-5.081,-5.1775,-5.2054,-5.1474,-5.1558,-5.0655,0.0,0.0,0.0,0.0,0.0,0.0,0.0,0.0,0.0,0.0,0.0,0.0,0.0,0.0,0.0,0.0,0.0,0.0,0.0,0.0,0.0,0.0,0.0,0.0,0.0,0.0,0.0,0.0,0.0,0.0,0.0,0.0,0.0,0.0,0.0,0.0,0.0,0.0,0.0,0.0,0.0,-4.8636,-4.8783,-4.926,0.0,0.0,0.0,0.0,-4.772,-4.6948,0.0,0.0,0.0,0.0,0.0,0.0,0.0,0.0,0.0,0.0,0.0,0.0,0.0,0.0,0.0,0.0,0.0,0.0,0.0,0.0,0.0,0.0,0.0,0.0,0.0,0.0,0.0,0.0,0.0,0.0,0.0,0.0,0.0,0.0,0.0,0.0,0.0,0.0,0.0,0.0,0.0,0.0,0.0,0.0,0.0,0.0,0.0,0.0,0.0,0.0,0.0,0.0,0.0,0.0,0.0,0.0,-4.9033,-5.0686,-5.1685,-5.2019,-5.2777,-5.3056,-5.2672,-5.2348,-5.1176,0.0,0.0,0.0,0.0,0.0,0.0,0.0,0.0,0.0,0.0,0.0,0.0,0.0,0.0,0.0,0.0,0.0,0.0,0.0,0.0,0.0,0.0,0.0,0.0,0.0,0.0,0.0,0.0,0.0,0.0,0.0,0.0,0.0,0.0,0.0,0.0,0.0,0.0,0.0,0.0,0.0,-4.9701,-5.0435,-4.9994,-4.9811,0.0,0.0,-4.8678,-4.9304,-4.879,0.0,0.0,0.0,0.0,0.0,0.0,0.0,0.0,0.0,0.0,0.0,0.0,0.0,0.0,0.0,0.0,0.0,0.0,0.0,0.0,0.0,0.0,0.0,0.0,0.0,0.0,0.0,0.0,0.0,0.0,0.0,0.0,0.0,0.0,0.0,0.0,0.0,0.0,0.0,0.0,0.0,0.0,0.0,0.0,0.0,0.0,0.0,0.0,0.0,0.0,0.0,0.0,0.0,0.0,0.0,-4.8413,-4.9964,-5.1302,-5.2303,-5.3022,-5.3905,-5.4091,-5.3303,-5.3137,-5.2164,0.0,0.0,0.0,0.0,0.0,0.0,0.0,0.0,0.0,0.0,0.0,0.0,0.0,0.0,0.0,0.0,0.0,0.0,0.0,0.0,0.0,0.0,0.0,0.0,0.0,0.0,0.0,0.0,0.0,0.0,0.0,0.0,0.0,0.0,0.0,0.0,0.0,0.0,0.0,0.0,0.0,0.0,-5.0618,-5.0508,0.0,0.0,0.0,-5.052,-5.0409,0.0,0.0,0.0,0.0,0.0,0.0,0.0,0.0,0.0,0.0,0.0,0.0,0.0,0.0,0.0,0.0,0.0,0.0,0.0,0.0,0.0,0.0,0.0,0.0,0.0,0.0,0.0,0.0,0.0,0.0,0.0,0.0,0.0,0.0,0.0,0.0,0.0,0.0,0.0,0.0,0.0,0.0,0.0,0.0,0.0,0.0,0.0,0.0,0.0,0.0,0.0,0.0,0.0,0.0,0.0,0.0,0.0,-5.0686,-5.1597,-5.2597,-5.3714,-5.4664,-5.4605,-5.3779,-5.3869,0.0,0.0,0.0,0.0,0.0,0.0,0.0,0.0,0.0,0.0,0.0,0.0,0.0,0.0,0.0,0.0,0.0,0.0,0.0,0.0,0.0,0.0,0.0,0.0,0.0,0.0,0.0,-4.7699,0.0,0.0,0.0,0.0,0.0,0.0,0.0,0.0,0.0,0.0,0.0,0.0,0.0,0.0,-4.9517,-5.1169,-5.1206,-5.1316,0.0,0.0,-5.1627,-5.1074,-5.0378,-4.9714,0.0,0.0,0.0,0.0,0.0,0.0,0.0,0.0,0.0,0.0,0.0,0.0,0.0,0.0,0.0,0.0,0.0,0.0,0.0,0.0,0.0,0.0,0.0,0.0,0.0,0.0,0.0,0.0,0.0,0.0,0.0,0.0,0.0,0.0,0.0,0.0,0.0,0.0,0.0,0.0,0.0,0.0,0.0,0.0,0.0,0.0,0.0,0.0,0.0,0.0,0.0,0.0,0.0,0.0,0.0,-5.1011,-5.1408,-5.2462,-5.4186,-5.4543,-5.4488,-5.4011,-5.42,-5.3288,0.0,0.0,0.0,0.0,0.0,0.0,0.0,0.0,0.0,0.0,0.0,0.0,0.0,0.0,0.0,0.0,0.0,0.0,0.0,0.0,0.0,0.0,0.0,0.0,0.0,0.0,0.0,0.0,0.0,0.0,0.0,0.0,0.0,0.0,0.0,0.0,0.0,0.0,0.0,0.0,0.0,-5.1206,-5.2821,-5.2417,-5.194,0.0,-5.1514,-5.1154,-5.1117,-5.0528,-5.008,-4.9969,0.0,0.0,0.0,0.0,0.0,0.0,0.0,0.0,0.0,0.0,0.0,0.0,0.0,0.0,0.0,0.0,0.0,0.0,0.0,0.0,0.0,0.0,0.0,0.0,0.0,0.0,0.0,0.0,0.0,0.0,0.0,0.0,0.0,0.0,0.0,0.0,0.0,0.0,0.0,0.0,0.0,0.0,0.0,0.0,0.0,0.0,0.0,0.0,0.0,0.0,0.0,0.0,0.0,-5.031,-5.2032,-5.1904,-5.2734,-5.457,-5.4437,-5.4277,-5.4389,-5.4022,-5.3471,0.0,0.0,0.0,0.0,0.0,0.0,0.0,0.0,0.0,0.0,0.0,0.0,0.0,0.0,0.0,0.0,0.0,0.0,0.0,0.0,0.0,0.0,0.0,0.0,0.0,0.0,0.0,0.0,-4.7777,-4.7866,-4.8108,0.0,0.0,0.0,0.0,0.0,0.0,0.0,0.0,0.0,0.0,-5.1389,-5.2968,-5.2527,0.0,0.0,-5.2659,-5.241,-5.1893,-5.1713,-5.1417,-5.0861,-5.001,0.0,0.0,0.0,0.0,0.0,0.0,0.0,0.0,0.0,0.0,0.0,0.0,0.0,0.0,0.0,0.0,0.0,0.0,0.0,0.0,0.0,0.0,0.0,0.0,0.0,0.0,0.0,0.0,0.0,0.0,0.0,0.0,0.0,0.0,0.0,0.0,0.0,0.0,0.0,0.0,0.0,0.0,0.0,0.0,0.0,0.0,0.0,0.0,0.0,0.0,0.0,0.0,-5.091,-5.2542,-5.2333,-5.312,-5.5026,-5.474,-5.4589,-5.4589,-5.4399,-5.3978,0.0,0.0,0.0,0.0,0.0,0.0,0.0,0.0,0.0,0.0,0.0,0.0,0.0,0.0,0.0,0.0,0.0,0.0,0.0,0.0,0.0,0.0,0.0,0.0,0.0,0.0,0.0,0.0,-4.8229,-4.832,-4.8224,0.0,0.0,0.0,0.0,0.0,0.0,0.0,0.0,0.0,0.0,-5.1646,-5.3004,-5.2711,-5.2564,-5.3151,-5.3396,-5.3296,-5.2742,-5.2602,-5.2345,-5.1676,0.0,0.0,0.0,0.0,0.0,0.0,0.0,0.0,0.0,0.0,0.0,0.0,0.0,0.0,0.0,0.0,0.0,0.0,0.0,0.0,0.0,0.0,0.0,0.0,0.0,0.0,0.0,0.0,0.0,0.0,-4.8067,0.0,0.0,0.0,0.0,0.0,0.0,0.0,0.0,0.0,0.0,0.0,0.0,0.0,0.0,0.0,0.0,0.0,0.0,0.0,0.0,0.0,0.0,-5.1169,-5.2216,-5.2484,-5.3511,-5.5346,-5.5677,-5.5433,-5.4711,-5.5424,-5.487,-5.2661,0.0,0.0,0.0,0.0,0.0,0.0,0.0,0.0,0.0,0.0,0.0,0.0,0.0,0.0,0.0,0.0,0.0,0.0,0.0,0.0,0.0,0.0,0.0,0.0,0.0,0.0,-4.9029,-4.9273,-4.9065,0.0,0.0,0.0,0.0,0.0,0.0,0.0,0.0,0.0,0.0,-5.1977,-5.227,-5.3115,-5.3188,-5.3188,-5.3225,-5.3355,-5.3481,-5.3444,-5.2973,-5.2568,0.0,0.0,0.0,0.0,0.0,0.0,0.0,0.0,0.0,0.0,0.0,0.0,0.0,0.0,0.0,0.0,0.0,0.0,0.0,0.0,0.0,0.0,0.0,0.0,0.0,0.0,0.0,-5.0088,-4.9856,0.0,0.0,0.0,0.0,0.0,0.0,0.0,0.0,0.0,0.0,0.0,-5.1798,-5.237,0.0,0.0,0.0,0.0,0.0,0.0,0.0,0.0,0.0,0.0,0.0,0.0,-5.2289,-5.3247,-5.3547,-5.4343,-5.5605,-5.5274,-5.523,-5.5546,-5.5377,-5.4653,-5.3349,0.0,0.0,0.0,0.0,0.0,0.0,0.0,0.0,0.0,0.0,0.0,0.0,0.0,0.0,0.0,0.0,0.0,0.0,0.0,0.0,0.0,0.0,0.0,0.0,0.0,-4.9683,0.0,0.0,0.0,0.0,0.0,0.0,0.0,0.0,0.0,0.0,0.0,-5.1389,-5.194,-5.2454,-5.2894,-5.3188,-5.3225,-5.3225,0.0,0.0,0.0,0.0,0.0,0.0,0.0,0.0,0.0,0.0,0.0,0.0,0.0,0.0,-5.227,-5.0692,-5.0741,-5.108,-5.1269,0.0,0.0,0.0,0.0,0.0,0.0,0.0,0.0,0.0,0.0,0.0,0.0,0.0,0.0,-5.1413,0.0,-5.1018,0.0,0.0,0.0,0.0,0.0,0.0,0.0,0.0,-5.2775,-5.3348,-5.345,-5.4093,-5.4228,0.0,-5.3917,-5.3574,0.0,0.0,0.0,0.0,0.0,0.0,0.0,0.0,-5.3193,-5.3599,-5.443,-5.5173,-5.5808,-5.5677,-5.5677,-5.5957,-5.5305,-5.4798,-5.4508,-5.3748,-5.2842,0.0,0.0,0.0,0.0,0.0,0.0,0.0,0.0,0.0,0.0,0.0,0.0,0.0,0.0,0.0,0.0,0.0,0.0,0.0,0.0,0.0,0.0,0.0,-5.0654,0.0,0.0,0.0,0.0,0.0,0.0,0.0,0.0,0.0,-5.0478,-5.1397,-5.2128,-5.238,-5.2894,-5.3225,-5.3225,0.0,0.0,0.0,0.0,0.0,0.0,0.0,-5.4289,-5.4165,-5.3723,-5.335,-5.3267,-5.3261,-5.3261,-5.3261,0.0,0.0,-5.238,-5.2434,-5.2782,-5.2976,-5.3271,-5.3654,-5.4004,-5.4268,-5.4447,0.0,0.0,0.0,0.0,0.0,0.0,0.0,0.0,-5.446,-5.3699,0.0,-5.262,0.0,0.0,0.0,0.0,0.0,-5.2334,0.0,0.0,-5.4763,-5.5579,-5.5927,-5.5996,-5.6099,-5.6303,-5.6269,-5.6027,-5.5529,-5.3487,0.0,0.0,0.0,0.0,0.0,0.0,-5.3826,-5.354,-5.5094,-5.6002,-5.6102,-5.679,-5.6826,-5.6138,-5.545,-5.5414,-5.5957,-5.5341,-5.4218,-5.2661,-5.2516,0.0,0.0,0.0,0.0,0.0,0.0,0.0,0.0,0.0,0.0,0.0,0.0,0.0,0.0,0.0,0.0,0.0,0.0,0.0,0.0,-5.1244,0.0,0.0,0.0,0.0,0.0,0.0,0.0,0.0,0.0,0.0,-5.2254,-5.2213,-5.243,-5.3151,0.0,0.0,0.0,0.0,-5.4436,-5.4436,-5.5184,-5.5785,-5.5785,-5.5834,-5.5834,-5.5822,0.0,0.0,-5.5691,-5.5684,-5.5684,-5.5721,-5.5794,-5.55,-5.4766,-5.5196,-5.5775,-5.602,-5.6295,-5.6842,-5.7283,-5.7244,-5.7569,-5.6912,0.0,0.0,0.0,0.0,-5.4527,-5.4601,-5.4749,-5.4715,-5.4589,-5.4334,-5.4405,0.0,0.0,0.0,0.0,0.0,0.0,-5.4901,-5.5212,-5.5619,-5.5961,-5.6201,-5.6269,-5.6371,-5.6638,-5.6638,-5.6764,-5.7004,-5.6466,-5.5374,-5.3824,0.0,0.0,0.0,0.0,-5.5548,-5.5959,-5.6545,-5.7102,-5.7695,-5.7369,-5.7369,-5.7695,-5.8058,-5.7804,-5.6899,-5.6645,-5.5812,-5.4291,-5.3096,0.0,0.0,0.0,0.0,0.0,0.0,0.0,0.0,0.0,0.0,0.0,0.0,0.0,0.0,0.0,0.0,0.0,0.0,0.0,-5.212,-5.2547,-5.2564,0.0,0.0,0.0,0.0,0.0,0.0,0.0,0.0,0.0,-5.4781,-5.4289,-5.3907,0.0,0.0,-5.4913,-5.4913,-5.5097,-5.5244,-5.5244,-5.5508,0.0,-5.5655,-5.5662,-5.5882,-5.6426,-5.6977,-5.7344,-5.7299,-5.7776,-5.818,-5.818,-5.8657,-5.8951,-5.8621,-5.7111,-5.6071,-5.6169,-5.6519,-5.6917,-5.7321,-5.7587,-5.7875,-5.8403,-5.6879,-5.6448,-5.6249,-5.6326,-5.6402,-5.6478,-5.6705,-5.6705,-5.6612,-5.6385,-5.6157,-5.5962,-5.566,-5.5463,0.0,0.0,0.0,-5.6433,-5.6985,-5.7291,-5.7704,-5.829,-5.7981,-5.8048,-5.8449,-5.8102,-5.8084,-5.8246,-5.8395,-5.7694,-5.6091,0.0,0.0,-5.4649,-5.5749,-5.6422,-5.6653,-5.7319,-5.7913,-5.8383,-5.8239,-5.8383,-5.8854,-5.9035,-5.8673,-5.7695,-5.7369,-5.6609,-5.5377,-5.4399,-5.3603,0.0,0.0,0.0,0.0,0.0,0.0,0.0,0.0,0.0,0.0,0.0,-4.8321,-4.8641,0.0,0.0,0.0,-5.1456,-5.2761,-5.3419,-5.3922,0.0,0.0,0.0,0.0,0.0,0.0,0.0,-5.4608,-5.4719,-5.509,-5.6054,-5.6113,-5.5839,-5.5128,-5.5411,-5.5809,-5.6014,0.0,-5.6638,-5.6969,-5.7299,-5.7483,-5.7519,-5.7483,-5.7666,-5.8143,-5.8621,-5.8914,-5.8951,-5.9391,-5.9685,-5.9758,-6.0089,-6.0419,-6.0419,-5.8906,-5.7839,-5.8053,-5.8383,-5.8764,-5.9156,-5.9475,-5.9779,-5.9694,-5.9065,-5.9065,-5.9159,-5.9218,-5.9218,-5.9343,-5.9577,-5.9544,-5.9208,-5.8648,-5.7984,-5.7386,-5.6746,-5.6288,0.0,-5.6369,-5.7049,-5.7905,-5.8695,-5.9416,-6.0316,-6.1325,-6.0669,-6.0635,-6.1103,-6.0403,-5.9896,-5.9637,-5.981,-5.9585,-5.8938,-5.8259,-5.728,-5.6021,-5.6753,-5.6942,-5.6428,-5.7804,-5.8492,-5.8528,-5.9289,-5.9724,-5.9687,-5.8963,-5.8565,-5.8492,-5.7732,-5.6935,-5.6138,-5.6029,-5.5341,-5.3965,0.0,0.0,0.0,0.0,0.0,0.0,0.0,0.0,0.0,0.0,0.0,0.0,0.0,0.0,0.0,-5.3081,0.0,-5.4298,-5.5257,0.0,0.0,0.0,-5.6162,-5.6236,-5.6354,-5.6432,-5.658,0.0,0.0,-5.6692,-5.7872,-5.8073,-5.6381,-5.6197,-5.6367,-5.6969,-5.774,-5.8437,-5.9134,-5.9905,-6.0346,-6.0089,-6.0236,-6.0272,-6.0346,-6.0566,-6.0603,-6.0603,-6.0639,-6.0603,-6.0639,-6.0603,-6.0639,-6.0603,-6.0698,-6.084,-6.104,-6.1162,-6.1422,-6.1769,-6.2117,-6.2368,-6.0755,-6.0589,-6.072,-6.017,-5.9218,-5.9218,-5.9421,-5.9698,-5.9698,-5.9708,-5.9692,-5.9565,-5.9396,-5.9227,-5.9133,-5.9174,-5.9429,-5.9599,-5.9989,-6.0415,-6.0731,-6.1187,-6.171,-6.1743,-6.1975,-6.2399,-6.2252,-6.2364,-6.2653,-6.2677,-6.2175,-6.1112,-6.086,-6.0051,-5.8555,-5.8858,-5.92,-5.9651,-5.9434,-5.9325,-5.9325,-6.0122,-6.052,-6.052,-6.0339,-5.9941,-5.9325,-5.8528,-5.7732,-5.6935,-5.6319,-5.5812,-5.545,-5.4725,0.0,0.0,0.0,0.0,0.0,0.0,0.0,0.0,0.0,-4.988,-5.0053,0.0,-5.2278,0.0,-5.4099,-5.5273,-5.5404,-5.5766,0.0,0.0,-5.6162,-5.6503,-5.7097,-5.7171,-5.7695,-5.8921,-5.9069,-5.9292,-5.9961,-6.0327,-6.0314,-5.9686,-5.9522,-5.9495,-5.9538,-5.9685,-5.9905,-6.0089,-6.0309,-6.0419,-6.0493,-6.0933,-6.13,-6.13,-6.1814,-6.2218,-6.2218,-6.2254,-6.2254,-6.2254,-6.2254,-6.2254,-6.2218,-6.2254,-6.2365,-6.253,-6.2011,-6.1534,-6.1996,-6.2387,-6.2642,-6.1202,-6.1252,-6.1301,-6.0998,-6.047,-6.047,-6.0628,-6.0974,-6.0974,-6.1052,-6.1095,-6.0791,-6.0419,-6.0114,-6.008,-6.0265,-6.0597,-6.0632,-6.0989,-6.1772,-6.1914,-6.2405,-6.3135,-6.3091,-6.3246,-6.3662,-6.3369,-6.3474,-6.3777,-6.3837,-6.3559,-6.2867,-6.2562,-6.1968,-6.11,-6.0105,-5.9832,-6.0267,-6.0194,-6.0303,-6.0665,-6.11,-6.1353,-6.1353,-6.0991,-6.0593,-6.0158,-5.9361,-5.8709,-5.8275,-5.7514,-5.6899,-5.6536,-5.5812,-5.487,0.0,0.0,0.0,0.0,0.0,0.0,0.0,0.0,0.0,0.0,0.0,-5.3733,-5.3891,-5.5257,-5.6316,-5.6816,-5.7402,-5.7862,-5.8233,-5.8433,-5.8661,-5.9111,-5.9144,-5.9515,-6.0364,-6.0481,-6.0667,-6.115,-6.1478,-6.1575,-6.1348,-6.155,-6.1482,-6.1055,-6.0933,-6.1043,-6.141,-6.1484,-6.1484,-6.1484,-6.1851,-6.2144,-6.2144,-6.2511,-6.2805,-6.2805,-6.2805,-6.2805,-6.2805,-6.2805,-6.2805,-6.2805,-6.2805,-6.2855,-6.2988,-6.2724,-6.2524,-6.2895,-6.3236,-6.355,-6.1252,-6.1383,-6.1383,-6.1595,-6.1997,-6.1997,-6.2189,-6.2415,-6.2415,-6.2415,-6.2347,-6.1704,-6.1061,-6.0385,-6.0385,-6.0646,-6.1018,-6.1018,-6.1654,-6.2818,-6.3066,-6.3694,-6.474,-6.4407,-6.4515,-6.4796,-6.4302,-6.4124,-6.4279,-6.4396,-6.4513,-6.4368,-6.3796,-6.3418,-6.3273,-6.1245,-6.0122,-5.9941,-6.0593,-6.1317,-6.2005,-6.2041,-6.2041,-6.2005,-6.1245,-6.081,-6.0774,-6.0013,-5.9615,-5.9579,-5.8927,-5.8239,-5.755,-5.6826,-5.6138,0.0,-5.5377,0.0,0.0,0.0,0.0,0.0,0.0,0.0,0.0,-5.5134,-5.555,-5.5981,-5.6822,-5.7647,-5.8436,-5.9398,-6.0277,-6.0944,-6.11,-6.1224,-6.1348,-6.1379,-6.141,-6.1478,-6.1478,-6.1521,-6.1552,-6.1982,-6.2336,-6.2382,-6.2756,-6.288,-6.2267,-6.1924,-6.1998,-6.2732,-6.2915,-6.2915,-6.3099,-6.3172,-6.3172,-6.3172,-6.3246,-6.3135,-6.3209,-6.3209,-6.3172,-6.3172,-6.3246,-6.3209,-6.3135,-6.3172,-6.3222,-6.3444,-6.3564,-6.3742,-6.392,-6.4176,-6.4595,-6.1169,-6.1383,-6.1547,-6.1756,-6.1997,-6.2189,-6.2381,-6.2415,-6.2415,-6.2415,-6.2381,-6.2245,-6.211,-6.1941,-6.1975,-6.2208,-6.2556,-6.2556,-6.2959,-6.3684,-6.3973,-6.4462,-6.5145,-6.5368,-6.5681,-6.6114,-6.6031,-6.6079,-6.6234,-6.6293,-6.5967,-6.5316,-6.5229,-6.4794,-6.4178,0.0,0.0,0.0,-6.1716,-6.186,-6.2005,-6.2041,-6.2041,-6.2005,-6.1245,0.0,-6.0774,-6.005,-5.9615,-5.9615,-5.947,0.0,0.0,0.0,0.0,0.0,0.0,0.0,0.0,0.0,0.0,0.0,-5.8237,-5.7473,-5.516,-5.6273,-5.7704,-5.9127,-5.9752,-6.0121,-6.0268,-6.0678,-6.0995,-6.1143,-6.1224,-6.1447,-6.2048,-6.2153,-6.2413,-6.3082,-6.3156,-6.3111,-6.302,-6.3086,-6.3326,-6.3677,-6.3886,-6.4168,-6.4494,-6.3392,-6.2695,-6.2842,-6.3466,-6.409,-6.4751,-6.4787,-6.4677,-6.4861,-6.4861,-6.4787,-6.4751,-6.4787,-6.4824,-6.4787,-6.4824,-6.4787,-6.4787,-6.4824,-6.4802,-6.4977,-6.5041,-6.4831,-6.3996,-6.4125,-6.4521,-6.2199,0.0,-6.236,-6.2401,0.0,-6.2381,-6.2415,-6.2415,-6.2415,-6.2415,-6.2415,-6.2415,-6.2415,-6.2415,-6.2415,-6.2615,-6.3,-6.3,-6.3377,-6.4037,-6.4358,-6.4843,-6.5344,-6.5832,-6.6243,-6.6512,-6.6572,-6.6727,-6.6822,-6.6822,-6.6605,-6.6207,-6.5772,-6.5374,-6.4975,-6.4577,-6.3997,-6.32,-6.32,-6.32,-6.3164,-6.2802,-6.2585,-6.2585,-6.1824,0.0,0.0,0.0,0.0,0.0,0.0,0.0,0.0,0.0,0.0,-5.9035,-5.8999,-5.8818,-5.8456,-5.8782,-5.8999,-5.8999,-5.9357,-5.8987,-5.7497,-5.8263,-5.9213,-6.0213,-6.0525,-6.0896,-6.1348,-6.1604,-6.1886,-6.2339,-6.2376,-6.2562,-6.2933,-6.3342,-6.3705,-6.4151,-6.4476,-6.4651,-6.4604,-6.4498,-6.4549,-6.477,-6.4742,-6.4875,-6.5154,-6.4604,-6.4053,-6.4053,-6.4383,-6.4824,-6.5191,-6.5338,-6.5338,-6.5301,-6.5338,-6.5338,-6.5338,-6.5338,-6.5338,-6.5301,-6.5301,-6.5316,-6.5301,-6.5338,-6.5338,-6.5353,-6.5455,-6.5335,-6.4668,-6.4637,-6.4616,-6.3333,-6.3015,-6.3295,-6.3202,-6.2787,-6.2787,-6.2787,-6.2753,0.0,0.0,0.0,-6.2415,-6.2415,-6.2415,-6.2415,-6.2615,-6.2923,-6.3,-6.3446,-6.4317,-6.4638,-6.5193,-6.5835,-6.6388,-6.6762,-6.6945,-6.7161,-6.7221,-6.7221,-6.7221,-6.7221,-6.7148,-6.6424,-6.5953,-6.5772,-6.5156,-6.483,-6.4794,-6.4541,-6.4396,-6.4359,-6.3744,-6.3345,-6.32,-6.2585,-6.215,-6.2041,-6.2041,-6.2041,-6.2005,-6.139,-6.101,-6.0973,-6.0394,-6.0086,-6.0231,-6.0231,-6.0303,-6.0448,-6.0448,-6.0448,-6.0448,-6.0448,-6.0372,-6.0231,-6.0208,-6.0382,-6.0774,-6.0956,-6.1356,-6.2123,-6.2336,-6.2798,-6.3668,-6.3825,-6.3862,-6.401,-6.4559,-6.4958,-6.5049,-6.5408,-6.5779,-6.5656,-6.5546,-6.558,-6.5639,-6.5573,-6.5632,-6.5668,-6.5448,-6.5228,-6.5411,-6.5485,-6.5558,-6.5742,-6.5815,-6.5742,-6.5888,-6.5815,-6.5742,-6.5742,-6.5742,-6.5742,-6.5888,-6.5757,-6.5794,-6.5742,-6.5836,-6.5726,-6.5742,-6.5809,-6.5823,-6.5741,-6.5483,-6.5158,-6.36,-6.3752,-6.4035,-6.4214,-6.4309,-6.4275,-6.4309,-6.4174,-6.2956,-6.2415,-6.2415,-6.2415,-6.2415,-6.2415,-6.2415,-6.2537,-6.277,-6.2923,-6.357,-6.468,-6.5192,-6.611,-6.7262,-6.7868,-6.8291,-6.8569,-6.879,-6.885,-6.885,-6.8814,-6.885,-6.8742,-6.8054,-6.7329,-6.6677,-6.6533,-6.646,-6.6424,-6.5084,-6.4396,-6.4396,-6.4287,-6.3889,-6.3237,-6.3092,-6.2693,-6.2041,-6.2041,-6.2041,-6.2005,-6.1897,-6.186,-6.1806,-6.1752,-6.1969,-6.2621,-6.2693,-6.2983,-6.3635,-6.3708,-6.3727,-6.3747,-6.3727,-6.3021,-6.122,-6.1032,-6.1405,-6.2315,-6.2537,-6.2756,-6.3047,-6.3178,-6.365,-6.4448,-6.4642,-6.4911,-6.5523,-6.5635,-6.5656,-6.568,-6.562,-6.5656,-6.5717,-6.5667,-6.5823,-6.6198,-6.6329,-6.6549,-6.688,-6.6182,-6.5705,-6.6145,-6.6329,-6.6623,-6.699,-6.732,-6.721,-6.7357,-6.7247,-6.7136,-6.7136,-6.7136,-6.7136,-6.7283,-6.7173,-6.721,-6.7247,-6.7357,-6.721,-6.7173,-6.719,-6.7079,-6.6596,-6.6455,-6.6285,-6.4805,-6.4522,-6.4941,-6.487,-6.4613,-6.4613,-6.4613,-6.4546,-6.3903,-6.3599,-6.3599,-6.3599,-6.3599,-6.3599,-6.3599,-6.3758,-6.3883,-6.4118,-6.4599,-6.529,-6.5886,-6.6637,-6.7477,-6.8123,-6.855,-6.893,-6.9115,-6.9176,-6.9176,-6.9176,-6.9176,-6.914,-6.8814,-6.8452,-6.8126,-6.809,-6.809,-6.8054,-6.6533,-6.57,-6.57,-6.5265,-6.4867,-6.4504,-6.407,-6.3671,-6.3309,-6.3309,-6.3309,-6.3292,-6.3273,-6.3309,-6.3289,-6.3309,-6.3454,-6.3816,-6.3852,-6.3997,-6.4359,-6.4396,-6.4396,-6.4396,-6.4396,-6.4054,-6.3166,-6.2692,-6.2939,-6.3826,-6.3759,-6.3836,-6.434,-6.4512,-6.4757,-6.5186,-6.5223,-6.5393,-6.5756,-6.6208,-6.6395,-6.6434,-6.6684,-6.6809,-6.6795,-6.6743,-6.6801,-6.71,-6.7136,-6.732,-6.765,-6.7136,-6.6733,-6.7063,-6.7136,-6.7283,-6.765,-6.7687,-6.7687,-6.7687,-6.7687,-6.7687,-6.7687,-6.7687,-6.7687,-6.7687,-6.7687,-6.7687,-6.7687,-6.7687,-6.7687,-6.7687,-6.7687,-6.752,-6.7316,-6.7295,-6.7073,-6.6263,-6.5761,-6.6306,-6.6034,-6.5358,-6.5358,-6.5256,-6.5121,-6.5121,-6.5121,-6.5053,-6.4783,-6.4613,-6.4613,-6.4613,-6.4661,-6.4822,-6.5062,-6.5446,-6.6006,-6.6612,-6.7267,-6.7905,-6.8524,-6.8988,-6.9372,-6.956,-6.972,-6.972,-6.9684,-6.9611,-6.9466,-6.9466,-6.9358,-6.9176,-6.914,-6.9201,-6.9104,-6.7981,-6.7366,-6.7329,-6.6714,-6.6315,-6.6098,-6.5555,-6.5048,-6.4722,-6.4649,-6.4577,-6.4416,-6.4359,-6.4432,-6.4354,-6.4375,-6.4468,-6.4649,-6.4649,-6.4758,-6.4939,-6.4939,-6.4975,-6.4954,-6.4918,-6.4996,-6.5017,-6.4457,-6.4293,-6.4819,-6.4522,-6.4552,-6.5132,-6.5331,-6.5455,-6.5717,-6.5791,-6.5928,-6.6112,-6.6716,-6.7104,-6.7173,-6.761,-6.7847,-6.8068,-6.7998,-6.8054,-6.8201,-6.8238,-6.8238,-6.8238,-6.8201,-6.8255,-6.8164,-6.8091,-6.8091,-6.8164,-6.8274,-6.8311,-6.8238,-6.8274,-6.8385,-6.8348,-6.8311,-6.8238,-6.8348,-6.8365,-6.8402,-6.8274,-6.8311,-6.8348,-6.8385,-6.8421,-6.8274,-6.8017,-6.8051,-6.7871,-6.8071,-6.8037,-6.8499,-6.8335,-6.759,-6.7557,-6.7184,-6.6643,-6.6609,-6.6609,-6.6508,-6.5222,-6.4681,-6.4613,-6.4647,-6.4681,-6.4729,-6.5017,-6.563,-6.6405,-6.7184,-6.8059,-6.9027,-6.9708,-7.0297,-7.0764,-7.0959,-7.1151,-7.1313,-7.1277,-7.0951,-7.0335,-7.0263,-6.9937,-6.9285,-6.9201,-6.9201,-6.9176,-6.9043,-6.8971,-6.8959,-6.8887,-6.8525,-6.78,-6.7692,-6.6967,-6.5627,-6.5482,-6.5192,-6.4483,-6.4468,-6.4432,-6.4447,-6.4411,-6.4722,-6.541,-6.5482,-6.5808,-6.646,-6.6569,-6.6533,-6.6605,-6.6533,-6.6496,-6.6496,-6.5924,-6.533,-6.5004,-6.4803,-6.4875,-6.5018,-6.5128,-6.5563,-6.6219,-6.6345,-6.6654,-6.7436,-6.7626,-6.7667,-6.7814,-6.7907,-6.8035,-6.8696,-6.8788,-6.9045,-6.9559,-6.9559,-6.9596,-6.9596,-6.9614,-6.9688,-6.9633,-6.9302,-6.9155,-6.9559,-6.9853,-6.9669,-6.9743,-6.9816,-6.9669,-6.9596,-6.9669,-6.9853,-6.9412,-6.9688,-6.9614,-6.9669,-6.987,-6.976,-6.9559,-6.9522,-6.9596,-6.9009,-6.8897,-6.8704,-6.8159,-6.8339,-6.8728,-6.8736,-6.8639,-6.8605,-6.8436,-6.8199,-6.8166,-6.8166,-6.8098,-6.7523,-6.6779,-6.5933,-6.5899,-6.5899,-6.5899,-6.6262,-6.6562,-6.7112,-6.7669,-6.835,-6.9122,-6.9742,-7.0485,-7.1326,-7.1765,-7.2315,-7.2742,-7.2879,-7.2509,-7.182,-7.1748,-7.135,-7.0625,-7.0579,-7.0517,-7.0464,-7.0437,-7.0373,-7.0193,-6.9586,-6.9032,-6.8742,-6.8706,-6.8199,-6.7148,-6.7003,-6.6641,-6.5895,-6.5844,-6.5844,-6.5786,-6.5844,-6.5953,-6.6279,-6.6315,-6.646,-6.6786,-6.6822,-6.6822,-6.6822,-6.6822,-6.6822,-6.6786,-6.6555,-6.6286,-6.6017,-6.5714,-6.5679,-6.6172,-6.6281,-6.6482,-6.6793,-6.6866,-6.7195,-6.8072,-6.8145,-6.8292,-6.8933,-6.9026,-6.9082,-6.9522,-6.9596,-6.9743,-7.0036,-7.011,-7.0183,-7.011,-7.0128,-7.0293,-7.066,-7.0513,-7.0257,-7.022,-7.011,-7.011,-7.011,-7.011,-7.011,-7.0183,-7.011,-7.0073,-7.0146,-7.0239,-7.0239,-7.0,-7.011,-7.011,-7.0183,-7.011,-6.9963,-6.9633,-6.9651,-6.9576,-6.8702,-6.8851,-6.9122,-6.9288,-6.9383,-6.9383,-6.9282,-6.9113,-6.9079,-6.9079,-6.9079,-6.9079,-6.8504,-6.7557,-6.7455,-6.7455,-6.7455,-6.7709,-6.7876,-6.809,-6.8498,-6.902,-6.9561,-7.0085,-7.0805,-7.173,-7.2323,-7.2916,-7.3555,-7.3724,-7.3465,-7.2995,-7.2922,-7.2633,-7.2055,-7.1829,-7.1621,-7.147,-7.1303,-7.1027,-7.077,-7.0093,-6.9705,-6.9767,-6.9828,-6.9466,-6.8706,-6.8633,-6.8271,-6.751,-6.7474,-6.7366,-6.7148,-6.7112,-6.704,-6.6822,-6.6822,-6.6822,-6.6822,-6.6822,-6.6822,-6.6822,-6.6822,-6.6822,-6.6822,-6.6822,-6.6931,-6.7076,-6.6743,-6.6749,-6.6988,-6.7097,-6.7206,-6.7388,-6.7425,-6.7731,-6.8531,-6.8663,-6.8939,-6.9675,-6.966,-6.9994,-7.0291,-7.0567,-7.0787,-7.0844,-7.0844,-7.077,-7.077,-7.0844,-7.1027,-7.1541,-7.1651,-7.1431,-7.0881,-7.0881,-7.0734,-7.077,-7.0881,-7.0917,-7.077,-7.077,-7.077,-7.1211,-7.0881,-7.0807,-7.1064,-7.0917,-7.0734,-7.077,-7.0734,-7.066,-7.0477,-7.044,-7.0293,-7.011,-7.017,-7.0632,-7.0468,-7.0128,-7.0128,-6.9755,-6.9248,-6.918,-6.9147,-6.9214,-6.918,-6.9079,-6.9011,-6.9011,-6.8977,-6.8944,-6.9135,-6.9272,-6.9491,-6.9976,-7.0499,-7.0932,-7.1364,-7.1744,-7.2186,-7.262,-7.3044,-7.3464,-7.346,-7.3389,-7.3353,-7.3353,-7.3353,-7.3096,-7.246,-7.2098,-7.1788,-7.1196,-7.0734,-7.079,-7.0714,-7.0806,-7.1067,-7.1323,-7.0951,-7.0299,-7.0263,-6.9865,-6.9068,-6.8959,-6.8706,-6.8054,-6.7981,-6.7619,-6.7003,-6.6858,-6.6858,-6.6895,-6.6967,-6.6931,-6.6895,-6.7003,-6.6895,-6.704,-6.704,-6.7329,-6.7873,-6.7873,-6.7642,-6.7135,-6.7135,-6.7352,-6.7932,-6.8005,-6.8427,-6.9272,-6.9381,-6.9441,-6.9777,-7.0055,-7.0515,-7.1092,-7.1714,-7.2138,-7.2328,-7.2422,-7.2386,-7.2422,-7.2386,-7.2459,-7.2496,-7.2569,-7.2459,-7.2386,-7.2018,-7.2129,-7.2092,-7.1872,-7.2202,-7.2349,-7.2422,-7.2312,-7.2275,-7.2055,-7.2055,-7.2312,-7.2312,-7.2165,-7.2092,-7.2018,-7.1872,-7.1321,-7.1284,-7.1138,-6.9988,-7.027,-7.0733,-7.0748,-7.0726,-7.0816,-7.0737,-7.0534,-7.0534,-7.0534,-7.0534,-7.05,-7.05,-7.0534,-7.0534,-6.9992,-6.9147,-6.9166,-6.9338,-6.9476,-6.9814,-7.0148,-7.0638,-7.1037,-7.1707,-7.2401,-7.289,-7.3689,-7.4405,-7.4512,-7.4261,-7.3867,-7.3796,-7.3581,-7.308,-7.2756,-7.2438,-7.2121,-7.1791,-7.1611,-7.1444,-7.1588,-7.1587,-7.1366,-7.1333,-7.1042,-7.0247,-7.0309,-7.0009,-6.9213,-6.9176,-6.9068,-6.8814,-6.8742,-6.8633,-6.838,-6.8343,-6.8307,-6.8307,-6.8307,-6.8307,-6.8343,-6.8343,-6.8271,-6.8307,-6.8343,-6.8452,-6.8669,-6.8778,-6.8597,-6.8452,-6.8343,-6.8452,-6.8669,-6.8778,-6.9068,-6.9781,-7.0096,-7.0422,-7.1551,-7.223,-7.2863,-7.296,-7.3435,-7.3678,-7.3896,-7.3956,-7.3882,-7.3978,-7.4037,-7.3964,-7.4037,-7.4037,-7.4037,-7.4074,-7.3046,-7.2496,-7.2496,-7.2459,-7.2459,-7.2569,-7.2679,-7.2642,-7.2679,-7.2716,-7.2569,-7.2532,-7.2459,-7.2532,-7.2532,-7.2532,-7.2422,-7.2129,-7.1908,-7.1835,-7.0353,-7.0509,-7.0649,-7.0733,-7.0916,-7.1131,-7.1222,-7.1312,-7.1312,-7.1312,-7.1312,-7.1312,-7.1312,-7.1312,-7.1312,-7.0838,-6.9857,-6.9823,-6.9877,-7.0138,-7.0277,-7.0533,-7.0987,-7.1364,-7.1931,-7.2624,-7.321,-7.3875,-7.4638,-7.4673,-7.4425,-7.3928,-7.3928,-7.368,-7.3183,-7.2932,-7.2643,-7.2307,-7.203,-7.1777,-7.1769,-7.185,-7.1788,-7.1442,-7.1478,-7.1201,-7.0325,-7.0482,-7.0392,-6.9984,-6.9875,-6.9767,-6.9611,-6.9321,-6.9176,-6.9176,-6.914,-6.9176,-6.9176,-6.9176,-6.914,-6.9176,-6.914,-6.9176,-6.9176,-6.9176,-6.9285,-6.9466,-6.9575,-6.9611,-6.9865,-6.9937,-6.9828,-6.9647,-6.9575,-7.0009,-7.0951,-7.1132,-7.1811,-7.2926,-7.3634,-7.4097,-7.4306,-7.4332,-7.4358,-7.4555,-7.4616,-7.4677,-7.4738,-7.4799,-7.4859,-7.4859,-7.4749,-7.4771,-7.4698,-7.3964,-7.3634,-7.3597,-7.3413,-7.323,-7.3083,-7.3156,-7.3156,-7.3156,-7.301,-7.2789,-7.2642,-7.2569,-7.2532,-7.2532,-7.2532,-7.2459,-7.2386,-7.2459,-7.2275,-7.1021,-7.1209,-7.0509,-7.0623,-7.1026,-7.1152,-7.1108,-7.1391,-7.1357,-7.1458,-7.1526,-7.1357,-7.1458,-7.1447,-7.1492,-7.1379,-7.1345,-7.1345,-7.13,-7.1396,-7.1396,-7.1693,-7.2039,-7.2345,-7.2596,-7.2866,-7.3311,-7.3667,-7.3905,-7.3905,-7.3869,-7.3869,-7.3799,-7.3807,-7.3834,-7.3159,-7.2722,-7.239,-7.1827,-7.1444,-7.1307,-7.1447,-7.149,-7.1581,-7.1929,-7.1694,-7.0722,-7.0883,-7.1045,-7.1175,-7.1167,-7.0943,-7.0309,-6.9756,-6.9285,-6.9394,-6.9285,-6.9249,-6.9285,-6.9358,-6.943,-6.943,-6.9285,-6.943,-6.9502,-6.943,-6.9684,-7.0227,-7.0408,-7.0625,-7.1168,-7.135,-7.1132,-7.0553,-7.0444,-7.1132,-7.2146,-7.269,-7.3016,-7.3776,-7.4167,-7.4058,-7.4188,-7.447,-7.4606,-7.4696,-7.4723,-7.4759,-7.4895,-7.5019,-7.486,-7.486,-7.5141,-7.5422,-7.5189,-7.4955,-7.4955,-7.4918,-7.4661,-7.4441,-7.4294,-7.4258,-7.4184,-7.4147,-7.3891,-7.3634,-7.3266,-7.3156,-7.2863,-7.2789,-7.2679,-7.2569,-7.2532,-7.2532,-7.2532,-7.1751,-7.1751,-7.1745,-7.1804,-7.1994,-7.2055,-7.2244,-7.2244,-7.2244,-7.2244,-7.2244,-7.2244,-7.2337,-7.2523,-7.2557,-7.2616,-7.28,-7.28,-7.235,-7.1537,-7.1546,-7.1722,-7.1898,-7.2106,-7.2416,-7.2755,-7.2887,-7.317,-7.3415,-7.3496,-7.3461,-7.3461,-7.3496,-7.3461,-7.3531,-7.3287,-7.2986,-7.2624,-7.2389,-7.2216,-7.203,-7.1995,-7.1836,-7.1631,-7.1926,-7.175,-7.0955,-7.1233,-7.147,-7.1673,-7.117,-7.0937,-7.0979,-7.0852,-7.077,-7.077,-7.077,-7.077,-7.077,-7.0734,-7.0734,-7.077,-7.0734,-7.077,-7.077,-7.0734,-7.0842,-7.1132,-7.1168,-7.1313,-7.1531,-7.2038,-7.1965,-7.1241,-7.1639,-7.211,-7.2798,-7.374,-7.4392,-7.4718,-7.5189,-7.5515,-7.5617,-7.5581,-7.5713,-7.5916,-7.5916,-7.598,-7.6008,-7.6072,-7.6136,-7.6136,-7.6199,-7.6152,-7.6141,-7.6081,-7.6008,-7.5849,-7.5555,-7.5432,-7.5322,-7.5249,-7.5212,-7.4955,-7.4698,-7.4404,-7.4037,-7.3744,-7.345,-7.312,-7.301,-7.2826,-7.2606,-7.2532,-7.2532,-7.2415,-7.2382,-7.2313,-7.2311,-7.2408,-7.2567,-7.263,-7.263,-7.2663,-7.2725,-7.2692,-7.2725,-7.282,-7.2915,-7.2949,-7.3043,-7.3197,-7.3291,-7.2818,-7.2134,-7.218,-7.2361,-7.245,-7.2751,-7.2927,-7.3154,-7.3275,-7.3413,-7.3583,-7.3668,-7.3668,-7.3668,-7.3668,-7.3668,-7.3599,-7.3357,-7.3084,-7.2708,-7.2468,-7.2159,-7.1951,-7.1864,-7.1712,-7.1474,-7.1794,-7.1753,-7.1352,-7.1462,-7.1688,-7.1837,-7.1437,-7.1314,-7.1578,-7.1521,-7.1404,-7.1431,-7.1431,-7.1494,-7.1494,-7.1422,-7.1494,-7.1494,-7.1494,-7.1494,-7.1494,-7.1494,-7.1494,-7.1494,-7.1494,-7.1603,-7.1965,-7.2364,-7.2545,-7.2472,-7.2834,-7.3269,-7.3667,-7.4754,-7.5442,-7.5659,-7.5949,-7.6384,-7.6637,-7.6746,-7.6995,-7.7243,-7.7352,-7.7419,-7.7516,-7.7582,-7.7546,-7.7466,-7.7312,-7.7304,-7.7331,-7.7212,-7.7118,-7.6778,-7.6436,-7.6252,-7.6203,-7.6166,-7.613,-7.5689,-7.5359,-7.5028,-7.4698,-7.4404,-7.4147,-7.378,-7.3523,-7.3266,-7.3046,-7.2642,-7.2606,-7.3177,-7.3078,-7.2448,-7.2348,-7.2543,-7.2641,-7.2771,-7.283,-7.2864,-7.2931,-7.2864,-7.2964,-7.2897,-7.2864,-7.3031,-7.3127,-7.2926,-7.3346,-7.344,-7.3272,-7.3392,-7.3603,-7.3606,-7.3753,-7.3877,-7.3979,-7.4103,-7.4103,-7.4056,-7.4056,-7.4206,-7.4124,-7.409,-7.4172,-7.3988,-7.3454,-7.3058,-7.2688,-7.211,-7.1647,-7.1312,-7.121,-7.1176,-7.1142,-7.1552,-7.1693,-7.1609,-7.1572,-7.1733,-7.2035,-7.1908,-7.1935,-7.2063,-7.1687,-7.1536,-7.1572,-7.1548,-7.1721,-7.1648,-7.1685,-7.1721,-7.1829,-7.1784,-7.1603,-7.1793,-7.1902,-7.1902,-7.1865,-7.1829,-7.201,-7.2589,-7.2915,-7.3277,-7.3856,-7.403,-7.4319,-7.508,-7.5877,-7.6311,-7.6384,-7.642,-7.671,-7.747,-7.7579,-7.7869,-7.8267,-7.8448,-7.8445,-7.8445,-7.8472,-7.8867,-7.8576,-7.8135,-7.8092,-7.8012,-7.7932,-7.7879,-7.7834,-7.7448,-7.7279,-7.6913,-7.6864,-7.6827,-7.6423,-7.6056,-7.5689,-7.5432,-7.5249,-7.5065,-7.4845,-7.4478,-7.3964,-7.3597,-7.3303,-7.323,-7.3906,-7.3873,-7.3674,-7.3708,-7.3708,-7.3708,-7.3775,-7.3775,-7.3741,-7.3675,-7.3741,-7.3775,-7.3807,-7.4072,-7.4072,-7.4204,-7.4299,-7.4396,-7.4463,-7.4463,-7.4594,-7.4202,-7.3671,-7.3661,-7.3865,-7.4034,-7.4116,-7.406,-7.424,-7.4252,-7.4218,-7.424,-7.4071,-7.4003,-7.3867,-7.3583,-7.3172,-7.292,-7.2245,-7.1748,-7.1371,-7.0901,-7.0699,-7.0699,-7.0973,-7.1154,-7.1244,-7.1572,-7.167,-7.161,-7.1932,-7.2228,-7.2406,-7.2472,-7.2462,-7.2498,-7.2705,-7.2875,-7.2731,-7.2467,-7.2532,-7.3002,-7.2561,-7.2589,-7.3074,-7.311,-7.3044,-7.2978,-7.2911,-7.2947,-7.3272,-7.374,-7.4456,-7.5205,-7.5055,-7.5152,-7.5913,-7.6674,-7.7181,-7.7217,-7.7651,-7.805,-7.8267,-7.8412,-7.8484,-7.8738,-7.8883,-7.8883,-7.9028,-7.8992,-7.9239,-7.888,-7.8586,-7.8618,-7.8649,-7.8571,-7.8668,-7.8836,-7.8601,-7.828,-7.7793,-7.7304,-7.7231,-7.7011,-7.679,-7.646,-7.6423,-7.6313,-7.6093,-7.5799,-7.5212,-7.4661,-7.4588,-7.4404,-7.4368,-7.4171,-7.4171,-7.4171,-7.4171,-7.4171,-7.4171,-7.4171,-7.4171,-7.4171,-7.4171,-7.4171,-7.4171,-7.4272,-7.4372,-7.4473,-7.4473,-7.4672,-7.4771,-7.4837,-7.487,-7.4935,-7.4724,-7.4371,-7.4236,-7.4431,-7.4661,-7.4619,-7.4645,-7.4645,-7.4704,-7.4611,-7.4585,-7.4424,-7.4296,-7.4364,-7.377,-7.3278,-7.2753,-7.2116,-7.1426,-7.087,-7.0503,-7.0303,-7.0236,-7.0456,-7.0641,-7.0791,-7.1244,-7.1559,-7.192,-7.217,-7.2267,-7.2607,-7.269,-7.2691,-7.2727,-7.2974,-7.3114,-7.3111,-7.2889,-7.2957,-7.3312,-7.3086,-7.3158,-7.3312,-7.3456,-7.332,-7.3147,-7.3114,-7.3293,-7.3757,-7.4438,-7.5332,-7.5977,-7.6007,-7.6108,-7.6782,-7.7507,-7.7905,-7.8122,-7.8412,-7.8883,-7.9136,-7.9209,-7.939,-7.9643,-7.9861,-7.9861,-7.9861,-7.968,-7.9499,-7.9281,-7.91,-7.9133,-7.9126,-7.9017,-7.908,-7.9288,-7.9457,-7.9178,-7.8793,-7.8148,-7.7892,-7.7818,-7.7524,-7.7304,-7.7157,-7.7047,-7.6827,-7.6423,-7.5836,-7.5506,-7.5432,-7.5285,-7.5285,-7.4171,-7.4171,-7.4171,-7.4171,-7.4171,-7.4171,-7.4171,-7.4171,-7.4171,-7.4171,-7.4171,-7.4171,-7.4171,-7.4171,-7.4272,-7.4171,-7.4272,-7.4473,-7.4573,-7.4573,-7.4771,-7.4835,-7.4932,-7.4993,-7.5123,-7.5383,-7.5614,-7.5417,-7.5186,-7.5157,-7.5161,-7.4929,-7.4899,-7.4902,-7.4634,-7.4101,-7.3402,-7.2574,-7.1908,-7.1113,-7.0358,-7.0026,-6.9893,-6.9893,-7.0082,-7.027,-7.0423,-7.0825,-7.1355,-7.2686,-7.2277,-7.237,-7.2661,-7.2448,-7.2388,-7.2572,-7.2864,-7.3047,-7.2976,-7.3119,-7.3189,-7.3366,-7.3503,-7.3431,-7.3402,-7.3475,-7.3369,-7.3154,-7.2941,-7.3331,-7.3938,-7.4832,-7.5656,-7.6301,-7.6661,-7.7235,-7.7661,-7.8307,-7.8777,-7.8847,-7.8813,-7.9284,-7.9752,-8.0078,-8.0259,-8.0368,-8.0513,-8.0368,-8.0259,-8.0078,-7.9969,-7.9933,-7.9788,-7.968,-7.9568,-7.9457,-7.9453,-7.9626,-7.9974,-7.9925,-8.0003,-7.9443,-7.8956,-7.8626,-7.8479,-7.8112,-7.7635,-7.7524,-7.7414,-7.7047,-7.6497,-7.6313,-7.6203,-7.5983,-7.5873,-7.4171,-7.4171,-7.4171,-7.4171,-7.4171,-7.4171,-7.4171,-7.4171,-7.4171,-7.4171,-7.4171,-7.4171,-7.4171,-7.4171,-7.4171,-7.4171,-7.4171,-7.4272,-7.4272,-7.4272,-7.4372,-7.4572,-7.4739,-7.4937,-7.5134,-7.5167,-7.5198,-7.5164,-7.5067,-7.5067,-7.5067,-7.4968,-7.4771,-7.4672,-7.4605,-7.4207,-7.3775,-7.2945,-7.2182,-7.1386,-7.0527,-6.9997,-6.9798,-6.9798,-6.9893,-6.9988,-7.0176,-7.027,-7.0641,-7.121,-7.1659,-7.2004,-7.2472,-7.2777,-7.2878,-7.2923,-7.3308,-7.3611,-7.3617,-7.3421,-7.3574,-7.3967,-7.3869,-7.3975,-7.4216,-7.4102,-7.3987,-7.3758,-7.3681,-7.3646,-7.4005,-7.5018,-7.5667,-7.6204,-7.725,-7.8155,-7.8448,-7.8853,-7.9179,-7.9468,-7.9937,-8.0406,-8.0695,-8.0695,-8.0911,-8.1092,-8.0947,-8.0802,-8.0549,-8.0259,-8.0006,-7.9788,-7.9571,-7.9354,-7.9499,-7.9568,-7.9892,-8.0034,-8.0422,-8.0698,-8.0678,-8.0544,-7.992,-7.9653,-7.947,-7.8993,-7.8369,-7.8148,-7.8075,-7.7598,-7.7194,-7.6974,-7.6754,-7.657,-7.6497,-7.4171,-7.4171,-7.4171,-7.4171,-7.4171,-7.4171,-7.4171,-7.4171,-7.4171,-7.4171,-7.4171,-7.4171,-7.4171,-7.4171,-7.4171,-7.4171,-7.4171,-7.4171,-7.4171,-7.4171,-7.4171,-7.4338,-7.4371,-7.4539,-7.4739,-7.4972,-7.5069,-7.5002,-7.487,-7.4771,-7.4771,-7.4672,-7.4473,-7.4372,-7.4273,-7.394,-7.3243,-7.2515,-7.1852,-7.1123,-7.0394,-7.003,-6.9798,-6.9798,-6.9798,-6.9893,-6.9988,-6.9988,-7.0176,-7.0549,-7.0882,-7.1389,-7.1917,-7.2347,-7.2602,-7.2686,-7.3018,-7.3264,-7.3252,-7.3352,-7.3448,-7.3913,-7.3885,-7.3916,-7.3963,-7.3931,-7.3692,-7.3461,-7.3461,-7.3647,-7.4147,-7.4747,-7.5433,-7.6428,-7.7373,-7.8204,-7.8682,-7.9144,-7.9637,-7.9858,-8.0184,-8.0548,-8.0803,-8.0876,-8.1021,-8.1021,-8.0549,-8.0332,-8.0042,-7.9752,-7.9318,-7.9064,-7.8919,-7.8919,-7.9245,-7.9607,-8.0257,-8.0581,-8.0975,-8.1114,-8.1245,-8.1044,-8.0736,-8.0507,-8.0241,-7.969,-7.914,-7.8919,-7.8626,-7.8148,-7.7781,-7.7524,-7.7231,-7.6974,-7.6937,-7.4171,-7.4171,-7.4171,-7.4171,-7.4171,-7.4171,-7.4171,-7.4171,-7.4171,-7.4171,-7.4171,-7.4171,-7.4171,-7.4171,-7.4171,-7.4171,-7.4171,-7.4171,-7.4171,-7.4171,-7.4171,-7.4171,-7.4305,-7.4305,-7.4406,-7.4839,-7.4838,-7.4672,-7.4573,-7.4506,-7.4473,-7.4272,-7.4171,-7.4272,-7.4038,-7.3475,-7.2846,-7.2117,-7.1388,-7.0659,-7.003,-6.9798,-6.9798,-6.9798,-6.9798,-6.9798,-6.9798,-6.9893,-6.9893,-7.0082,-7.0082,-7.0423,-7.094,-7.1478,-7.1742,-7.1742,-7.2176,-7.2432,-7.2517,-7.2818,-7.3066,-7.3101,-7.3501,-7.3466,-7.3195,-7.306,-7.2809,-7.2655,-7.2689,-7.3392,-7.4302,-7.497,-7.5694,-7.6615,-7.7202,-7.774,-7.8363,-7.9115,-7.9444,-7.987,-7.9947,-8.0171,-8.0433,-8.0656,-8.0803,-8.0876,-8.0333,-7.9826,-7.9607,-7.9245,-7.881,-7.8086,-7.7833,-7.8448,-7.8847,-7.9969,-8.0513,-8.0801,-8.1234,-8.1375,-8.1547,-8.1422,-8.1154,-8.113,-8.0828,-8.0388,-8.0021,-7.9764,-7.936,-7.8772,-7.8259,-7.7855,-7.7598,-7.7378,-7.7341,-7.4171,-7.4171,-7.4171,-7.4171,-7.4171,-7.4171,-7.4171,-7.4171,-7.4171,-7.4171,-7.4171,-7.4171,-7.4171,-7.4171,-7.4171,-7.4171,-7.4171,-7.4171,-7.4171,-7.4171,-7.4171,-7.4171,-7.4171,-7.4171,-7.4272,-7.4272,-7.4372,-7.4372,-7.4272,-7.4272,-7.4272,-7.4171,-7.4171,-7.4171,-7.3906,-7.3442,-7.2647,-7.1852,-7.1156,-7.0428,-6.9964,-6.9798,-6.9798,-6.9798,-6.9798,-6.9798,-6.9798,-6.9798,-6.9798,-6.9893,-6.9893,-6.9955,-7.0236,-7.0699,-7.0973,-7.1154,-7.13,-7.1566,-7.1742,-7.2004,-7.2296,-7.2483,-7.2658,-7.2541,-7.2296,-7.2131,-7.1987,-7.2029,-7.239,-7.3181,-7.4145,-7.5119,-7.5811,-7.6417,-7.7094,-7.7771,-7.791,-7.8151,-7.8539,-7.9115,-7.9276,-7.9629,-7.9941,-8.0247,-8.0433,-8.0548,-8.0261,-7.972,-7.9249,-7.8813,-7.834,-7.7507,-7.6601,-7.7543,-7.8484,-7.9897,-8.0875,-8.0911,-8.1163,-8.1234,-8.1445,-8.1547,-8.1532,-8.1439,-8.1562,-8.1379,-8.1012,-8.0608,-7.9984,-7.9323,-7.8736,-7.8148,-7.7855,-7.7561,-7.7341,-7.4171,-7.4171,-7.4171,-7.4171,-7.4171,-7.4171,-7.4171,-7.4171,-7.4171,-7.4171,-7.4171,-7.4171,-7.4171,-7.4171,-7.4171,-7.4171,-7.4171,-7.4171,-7.4171,-7.4171,-7.4171,-7.4171,-7.4171,-7.4171,-7.4171,-7.4171,-7.4171,-7.4171,-7.4171,-7.4171,-7.4171,-7.4171,-7.4171,-7.4005,-7.3541,-7.2879,-7.2183,-7.1455,-7.0726,-7.0196,-6.9831,-6.9798,-6.9798,-6.9798,-6.9798,-6.9798,-6.9798,-6.9798,-6.9798,-6.9798,-6.9798,-6.9798,-6.9893,-7.0082,-7.0456,-7.0549,-7.0699,-7.0849,-7.1064,-7.1244,-7.1423,-7.1566,-7.1782,-7.1662,-7.1512,-7.1354,-7.1472,-7.1748,-7.2056,-7.3142,-7.4503,-7.5344,-7.5742,-7.6278,-7.6892,-7.7154,-7.7189,-7.7189,-7.7632,-7.8202,-7.8455,-7.887,-7.9436,-7.9786,-8.0018,-8.0063,-8.0074,-7.9611,-7.9035,-7.8673,-7.8203,-7.7872,-7.7293,-7.8014,-7.8919,-7.9897,-8.0947,-8.1056,-8.1092,-8.1163,-8.1375,-8.1478,-8.1683,-8.1842,-8.1908,-8.1966,-8.1709,-8.1195,-8.0534,-7.9874,-7.914,-7.8516,-7.8075,-7.7745,-7.7488,-7.4171,-7.4171,-7.4171,-7.4171,-7.4171,-7.4171,-7.4171,-7.4171,-7.4171,-7.4171,-7.4171,-7.4171,-7.4171,-7.4171,-7.4171,-7.4171,-7.4171,-7.4171,-7.4171,-7.4171,-7.4171,-7.4171,-7.4171,-7.4171,-7.4171,-7.4171,-7.4171,-7.4171,-7.4171,-7.4171,-7.4171,-7.4171,-7.4171,-7.3807,-7.3177,-7.2515,-7.1653,-7.0891,-7.0196,-6.9831,-6.9798,-6.9798,-6.9798,-6.9798,-6.9798,-6.9798,-6.9798,-6.9798,-6.9798,-6.9798,-6.9798,-6.9798,-6.9798,-6.9798,-6.9893,-7.0082,-7.0236,-7.033,-7.0515,-7.0641,-7.0825,-7.0973,-7.0973,-7.0951,-7.095,-7.0991,-7.1237,-7.1942,-7.2532,-7.335,-7.4687,-7.5297,-7.5696,-7.6129,-7.6427,-7.6587,-7.6645,-7.6645,-7.6862,-7.7278,-7.7632,-7.8116,-7.8788,-7.9115,-7.9276,-7.9672,-7.9691,-7.9526,-7.8994,-7.8855,-7.8567,-7.8493,-7.8456,-7.8958,-7.9501,-7.9969,-8.0766,-8.1092,-8.1092,-8.1163,-8.1305,-8.1478,-8.1683,-8.1818,-8.2084,-8.2076,-8.1893,-8.1746,-8.1158,-8.0461,-7.9543,-7.8846,-7.8405,-7.7855,-7.7414,-7.4171,-7.4171,-7.4171,-7.4171,-7.4171,-7.4171,-7.4171,-7.4171,-7.4171,-7.4171,-7.4171,-7.4171,-7.4171,-7.4171,-7.4171,-7.4171,-7.4171,-7.4171,-7.4171,-7.4171,-7.4171,-7.4171,-7.4171,-7.4171,-7.4171,-7.4171,-7.4171,-7.4171,-7.4171,-7.4171,-7.4171,-7.4171,-7.4038,-7.3773,-7.2945,-7.2216,-7.1653,-7.0891,-7.0163,-6.9798,-6.9798,-6.9798,-6.9798,-6.9798,-6.9798,-6.9798,-6.9798,-6.9798,-6.9798,-6.9798,-6.9798,-6.9798,-6.9798,-6.9798,-6.9798,-6.9893,-6.9893,-6.9988,-7.0176,-7.027,-7.0363,-7.0456,-7.054,-7.0482,-7.0537,-7.0781,-7.1283,-7.2304,-7.2935,-7.3763,-7.482,-7.5411,-7.5832,-7.6054,-7.6309,-7.6334,-7.6485,-7.6275,-7.6402,-7.6563,-7.6987,-7.7456,-7.8031,-7.8287,-7.8539,-7.8917,-7.9214,-7.9138,-7.9084,-7.9025,-7.9032,-7.8999,-7.918,-7.9684,-7.9936,-8.0405,-8.0622,-8.1021,-8.1021,-8.1092,-8.1163,-8.1339,-8.151,-8.1751,-8.1952,-8.2186,-8.2076,-8.1893,-8.1636,-8.1012,-8.0094,-7.936,-7.8662,-7.8075,-7.7378,-7.4171,-7.4171,-7.4171,-7.4171,-7.4171,-7.4171,-7.4171,-7.4171,-7.4171,-7.4171,-7.4171,-7.4171,-7.4171,-7.4171,-7.4171,-7.4171,-7.4171,-7.4171,-7.4171,-7.4171,-7.4171,-7.4171,-7.4171,-7.4171,-7.4171,-7.4171,-7.4171,-7.4171,-7.4171,-7.4171,-7.4171,-7.4105,-7.374,-7.3177,-7.2548,-7.1753,-7.0991,-7.0394,-6.9964,-6.9798,-6.9798,-6.9798,-6.9798,-6.9798,-6.9798,-6.9798,-6.9798,-6.9798,-6.9798,-6.9798,-6.9798,-6.9798,-6.9798,-6.9798,-6.9798,-6.9798,-6.9798,-6.9893,-6.9988,-6.9988,-7.0082,-7.0082,-7.0115,-7.0187,-7.0557,-7.0825,-7.1455,-7.2745,-7.3175,-7.3905,-7.4768,-7.5228,-7.5422,-7.5709,-7.5899,-7.6054,-7.6114,-7.6054,-7.6028,-7.619,-7.6318,-7.6862,-7.7333,-7.7509,-7.7858,-7.8336,-7.867,-7.874,-7.9037,-7.9394,-7.9446,-7.9604,-7.9825,-8.0188,-8.0406,-8.0659,-8.0659,-8.0876,-8.0876,-8.0948,-8.1021,-8.1127,-8.1408,-8.1683,-8.1989,-8.2121,-8.2186,-8.2076,-8.1893,-8.1305,-8.0645,-7.9837,-7.9029,-7.7965,-7.7414,-7.4535,-7.4668,-7.4303,-7.4171,-7.4171,-7.4171,-7.4171,-7.4171,-7.4171,-7.4171,-7.4171,-7.4171,-7.4171,-7.4171,-7.4171,-7.4171,-7.4171,-7.4171,-7.4171,-7.4171,-7.4171,-7.4171,-7.4171,-7.4171,-7.4171,-7.4171,-7.4171,-7.4171,-7.4171,-7.4171,-7.4171,-7.4138,-7.3508,-7.2813,-7.2018,-7.1355,-7.0659,-6.9964,-6.9831,-6.9798,-6.9798,-6.9798,-6.9798,-6.9798,-6.9798,-6.9798,-6.9798,-6.9798,-6.9798,-6.9798,-6.9798,-6.9798,-6.9798,-6.9798,-6.9798,-6.9798,-6.9798,-6.9798,-6.9798,-6.9798,-6.9798,-6.9798,-6.9864,-7.0129,-7.0796,-7.1059,-7.162,-7.2945,-7.3542,-7.3974,-7.4505,-7.4968,-7.5131,-7.5325,-7.5518,-7.5614,-7.5709,-7.5805,-7.5805,-7.5933,-7.6062,-7.6156,-7.6553,-7.6736,-7.7189,-7.7772,-7.8031,-7.8202,-7.8705,-7.9196,-7.9408,-7.9507,-7.9732,-8.0068,-8.0364,-8.0546,-8.0656,-8.0656,-8.0656,-8.073,-8.0803,-8.1021,-8.1269,-8.1615,-8.1922,-8.1989,-8.2055,-8.2121,-8.215,-8.1562,-8.0975,-8.0204,-7.9286,-7.8185,-7.7451,-7.5595,-7.6059,-7.4734,-7.4237,-7.4237,-7.4171,-7.4171,-7.4237,-7.4204,-7.4171,-7.4171,-7.4171,-7.4171,-7.4171,-7.4171,-7.4171,-7.4171,-7.4171,-7.4171,-7.4171,-7.4171,-7.4171,-7.4171,-7.4171,-7.4171,-7.4171,-7.4171,-7.4171,-7.4171,-7.4171,-7.4171,-7.4038,-7.3243,-7.2647,-7.1918,-7.1057,-7.0461,-6.9898,-6.9798,-6.9798,-6.9798,-6.9798,-6.9798,-6.9798,-6.9798,-6.9798,-6.9798,-6.9798,-6.9798,-6.9798,-6.9798,-6.9798,-6.9798,-6.9798,-6.9798,-6.9798,-6.9798,-6.9798,-6.9798,-6.9798,-6.9798,-6.9798,-6.9964,-7.0232,-7.1061,-7.1655,-7.2316,-7.3111,-7.3741,-7.414,-7.4439,-7.4672,-7.487,-7.5131,-7.5325,-7.545,-7.558,-7.5709,-7.5709,-7.5709,-7.5805,-7.5899,-7.5994,-7.6275,-7.6645,-7.7244,-7.7597,-7.7772,-7.8116,-7.8622,-7.8952,-7.9125,-7.9365,-7.9637,-8.0095,-8.0207,-8.0171,-8.0171,-8.0247,-8.0358,-8.0508,-8.0767,-8.0984,-8.1375,-8.1688,-8.1788,-8.1989,-8.2055,-8.2113,-8.1819,-8.1195,-8.0057,-7.9103,-7.8038,-7.7524,-7.5674,-7.5977,-7.5417,-7.5289,-7.5463,-7.5032,-7.4833,-7.4767,-7.437,-7.4171,-7.4204,-7.4171,-7.4171,-7.4171,-7.4171,-7.4171,-7.4171,-7.4171,-7.4171,-7.4171,-7.4171,-7.4171,-7.4171,-7.4171,-7.4171,-7.4171,-7.4171,-7.4171,-7.4171,-7.4171,-7.3807,-7.3442,-7.2846,-7.2051,-7.1322,-7.0693,-7.0129,-6.9931,-6.9798,-6.9798,-6.9798,-6.9798,-6.9798,-6.9798,-6.9798,-6.9798,-6.9798,-6.9798,-6.9798,-6.9798,-6.9798,-6.9798,-6.9798,-6.9798,-6.9798,-6.9798,-6.9798,-6.9798,-6.9798,-6.9798,-6.9798,-6.9931,-7.0229,-7.0825,-7.1424,-7.2283,-7.2978,-7.3608,-7.3972,-7.4272,-7.4272,-7.4506,-7.4672,-7.487,-7.5131,-7.5258,-7.5417,-7.5642,-7.5676,-7.5709,-7.5709,-7.5805,-7.5805,-7.5899,-7.6275,-7.6645,-7.7009,-7.7278,-7.7685,-7.8031,-7.8371,-7.8657,-7.8823,-7.9115,-7.9436,-7.9629,-7.9629,-7.9708,-7.9786,-7.9941,-8.0018,-8.0286,-8.0474,-8.0984,-8.1481,-8.1652,-8.1855,-8.2055,-8.1966,-8.1562,-8.0645,-7.9507,-7.8626,-7.7818,-7.7561,-7.5831,-7.6243,-7.6243,-7.63,-7.6258,-7.5794,-7.5595,-7.5496,-7.5065,-7.48,-7.48,-7.48,-7.48,-7.4767,-7.4568,-7.4535,-7.4469,-7.4337,-7.4204,-7.4171,-7.4171,-7.4171,-7.4171,-7.4171,-7.4171,-7.4171,-7.4171,-7.4171,-7.4171,-7.4171,-7.3575,-7.2879,-7.225,-7.1653,-7.0958,-7.0196,-6.9798,-6.9798,-6.9798,-6.9798,-6.9798,-6.9798,-6.9798,-6.9798,-6.9798,-6.9798,-6.9798,-6.9798,-6.9798,-6.9798,-6.9798,-6.9798,-6.9798,-6.9798,-6.9798,-6.9798,-6.9798,-6.9798,-6.9798,-6.9798,-6.9798,-6.9864,-7.0461,-7.1125,-7.1952,-7.2647,-7.3276,-7.3972,-7.4138,-7.4171,-7.4171,-7.4372,-7.4506,-7.4672,-7.4968,-7.5194,-7.5383,-7.5574,-7.5642,-7.5676,-7.5676,-7.5709,-7.5709,-7.5805,-7.5994,-7.6368,-7.6645,-7.6828,-7.7099,-7.7456,-7.7772,-7.798,-7.8186,-7.849,-7.8788,-7.887,-7.8952,-7.9034,-7.9115,-7.9311,-7.9515,-7.9715,-8.0023,-8.0546,-8.1021,-8.1445,-8.1652,-8.1818,-8.1578,-8.1195,-8.0094,-7.8883,-7.8222,-7.7524,-7.7451,-7.615,-7.7134,-7.7102,-7.6725,-7.6385,-7.6324,-7.6291,-7.6291,-7.6125,-7.6059,-7.6026,-7.6059,-7.6092,-7.5927,-7.543,-7.5264,-7.5132,-7.4668,-7.4436,-7.4502,-7.4436,-7.4303,-7.4237,-7.4237,-7.4171,-7.4171,-7.4171,-7.4171,-7.4171,-7.4171,-7.3409,-7.2382,-7.1819,-7.1388,-7.0858,-7.0163,-6.9798,-6.9798,-6.9798,-6.9798,-6.9798,-6.9798,-6.9798,-6.9798,-6.9798,-6.9798,-6.9798,-6.9798,-6.9798,-6.9798,-6.9798,-6.9798,-6.9798,-6.9798,-6.9798,-6.9798,-6.9798,-6.9798,-6.9798,-6.9798,-6.9831,-7.003,-7.0759,-7.1423,-7.1985,-7.2678,-7.3442,-7.4105,-7.4171,-7.4171,-7.4171,-7.4272,-7.4372,-7.4573,-7.487,-7.5097,-7.5224,-7.5479,-7.5546,-7.5676,-7.5676,-7.5676,-7.5676,-7.5709,-7.5805,-7.6088,-7.6309,-7.6495,-7.6679,-7.6828,-7.7278,-7.7367,-7.7579,-7.7841,-7.8116,-7.8202,-7.8287,-7.8287,-7.8455,-7.8622,-7.887,-7.9079,-7.9594,-8.013,-8.0656,-8.1092,-8.1339,-8.1579,-8.1117,-8.0507,-7.9396,-7.8332,-7.7708,-7.7341,-7.7341,-7.5579,-7.6264,-7.6264,-7.6427,-7.6605,-7.6688,-7.6736,-7.6743,-7.6451,-7.6324,-7.6291,-7.6291,-7.6291,-7.6192,-7.6159,-7.596,-7.5894,-7.586,-7.5595,-7.5496,-7.5132,-7.4966,-7.48,-7.4469,-7.4237,-7.4171,-7.4171,-7.4171,-7.4171,-7.4171,-7.331,-7.225,-7.1256,-7.0428,-7.0163,-6.9864,-6.9798,-6.9798,-6.9798,-6.9798,-6.9798,-6.9798,-6.9798,-6.9798,-6.9798,-6.9798,-6.9798,-6.9798,-6.9798,-6.9798,-6.9798,-6.9798,-6.9798,-6.9798,-6.9798,-6.9798,-6.9798,-6.9798,-6.9798,-6.9831,-7.0063,-7.056,-7.1189,-7.1886,-7.2678,-7.3441,-7.3939,-7.4072,-7.4171,-7.4171,-7.4171,-7.4171,-7.4272,-7.4372,-7.4539,-7.4803,-7.503,-7.5258,-7.5422,-7.558,-7.5676,-7.5676,-7.5676,-7.5676,-7.5805,-7.5899,-7.6088,-7.6216,-7.6309,-7.6495,-7.6736,-7.6771,-7.6862,-7.7223,-7.7367,-7.7509,-7.7597,-7.7685,-7.7772,-7.7945,-7.8202,-7.8539,-7.9034,-7.9594,-8.0171,-8.073,-8.1018,-8.1146,-8.0532,-7.9773,-7.8919,-7.8112,-7.7561,-7.7341,-7.7341,-7.4897,-7.5337,-7.5337,-7.5571,-7.6167,-7.6789,-7.7172,-7.7181,-7.686,-7.6736,-7.6769,-7.6769,-7.6769,-7.6703,-7.6505,-7.6373,-7.6373,-7.6076,-7.601,-7.5977,-7.5614,-7.5384,-7.5087,-7.4625,-7.4361,-7.4163,-7.3932,-7.3833,-7.3833,-7.3833,-7.3307,-7.2151,-7.0924,-7.0527,-7.0196,-7.0063,-6.9798,-6.9798,-6.9798,-6.9798,-6.9798,-6.9798,-6.9798,-6.9798,-6.9798,-6.9798,-6.9798,-6.9798,-6.9798,-6.9798,-6.9798,-6.9798,-6.9798,-6.9798,-6.9798,-6.9798,-6.9798,-6.9798,-6.9798,-6.9798,-7.0262,-7.1256,-7.1786,-7.2316,-7.3043,-7.3673,-7.4005,-7.4138,-7.4171,-7.4171,-7.4171,-7.4171,-7.4171,-7.4272,-7.4439,-7.4704,-7.4935,-7.5198,-7.5422,-7.558,-7.5676,-7.5676,-7.5676,-7.5676,-7.5676,-7.5805,-7.5899,-7.5899,-7.6028,-7.6216,-7.6309,-7.6402,-7.6402,-7.6713,-7.6862,-7.6918,-7.7099,-7.7189,-7.7278,-7.7367,-7.7719,-7.8031,-7.8622,-7.9196,-7.9786,-8.0361,-8.0766,-8.0713,-8.0283,-7.9737,-7.8883,-7.8148,-7.7451,-7.7341,-7.7341,-7.4057,-7.4299,-7.4299,-7.4539,-7.5102,-7.6313,-7.7134,-7.7467,-7.7544,-7.7511,-7.7511,-7.7413,-7.7315,-7.7348,-7.6856,-7.6627,-7.6529,-7.6004,-7.5873,-7.5635,-7.5644,-7.5471,-7.5316,-7.4825,-7.4399,-7.4104,-7.3809,-7.3515,-7.3351,-7.3192,-7.2901,-7.2479,-7.1391,-7.0993,-7.0629,-7.0494,-7.0096,-6.9898,-6.9798,-6.9798,-6.9798,-6.9798,-6.9798,-6.9798,-6.9798,-6.9798,-6.9798,-6.9798,-6.9798,-6.9798,-6.9798,-6.9798,-6.9798,-6.9798,-6.9798,-6.9798,-6.9798,-6.9798,-6.9831,-6.9831,-7.0593,-7.162,-7.2018,-7.2482,-7.3143,-7.3805,-7.4105,-7.4171,-7.4171,-7.4171,-7.4171,-7.4171,-7.4171,-7.4272,-7.4372,-7.4705,-7.497,-7.5134,-7.5422,-7.558,-7.5676,-7.5676,-7.5676,-7.5676,-7.5676,-7.5676,-7.5805,-7.5805,-7.5838,-7.5906,-7.6096,-7.6122,-7.625,-7.6377,-7.6529,-7.6587,-7.6587,-7.6645,-7.6679,-7.6736,-7.7099,-7.7632,-7.8202,-7.8788,-7.9471,-8.0175,-8.0839,-8.0818,-8.0422,-7.9673,-7.8956,-7.8148,-7.7524,-7.7341,-7.7341,-7.2828,-7.3293,-7.3293,-7.3661,-7.4268,-7.4866,-7.5887,-7.6911,-7.6911,-7.6911,-7.6911,-7.6911,-7.6911,-7.6878,-7.6683,-7.6618,-7.6521,-7.6424,-7.6391,-7.6164,-7.5631,-7.5644,-7.5319,-7.4755,-7.428,-7.3858,-7.35,-7.3111,-7.2688,-7.2436,-7.232,-7.1868,-7.1654,-7.1359,-7.1358,-7.1355,-7.0659,-7.0163,-6.9997,-6.9997,-6.9964,-6.9997,-6.9964,-6.9997,-6.9997,-6.9997,-6.9997,-6.9964,-6.9964,-6.9898,-6.9831,-6.9798,-6.9798,-6.9798,-6.9798,-6.9798,-6.9798,-6.9798,-6.9898,-7.0295,-7.1024,-7.1951,-7.2448,-7.3177,-7.374,-7.4038,-7.4171,-7.4171,-7.4171,-7.4171,-7.4171,-7.4171,-7.4171,-7.4272,-7.4372,-7.4606,-7.4871,-7.5134,-7.5325,-7.558,-7.5676,-7.5676,-7.5676,-7.5676,-7.5676,-7.5676,-7.5676,-7.5676,-7.5709,-7.5777,-7.5906,-7.5933,-7.5933,-7.6156,-7.6156,-7.6216,-7.6216,-7.6216,-7.6216,-7.6309,-7.6771,-7.7189,-7.7807,-7.8539,-7.9471,-8.0286,-8.1126,-8.0927,-8.0546,-7.9856,-7.9103,-7.8295,-7.7635,-7.7451,-7.7341,-7.2231,-7.2578,-7.2578,-7.2952,-7.3416,-7.3661,-7.4476,-7.5539,-7.5887,-7.6002,-7.6034,-7.6002,-7.6002,-7.6002,-7.597,-7.597,-7.5855,-7.5791,-7.5759,-7.5663,-7.5553,-7.5342,-7.5022,-7.4573,-7.4092,-7.3548,-7.3081,-7.249,-7.2195,-7.1896,-7.1755,-7.1901,-7.1738,-7.1882,-7.1886,-7.1787,-7.1388,-7.0924,-7.0693,-7.0626,-7.0593,-7.0626,-7.0659,-7.0593,-7.0593,-7.0593,-7.0593,-7.0593,-7.0626,-7.0659,-7.0659,-7.0659,-7.0693,-7.0693,-7.0693,-7.0759,-7.0792,-7.0825,-7.0891,-7.109,-7.172,-7.2316,-7.2846,-7.3409,-7.384,-7.4138,-7.4171,-7.4171,-7.4171,-7.4171,-7.4171,-7.4171,-7.4171,-7.4171,-7.4372,-7.4473,-7.4672,-7.5002,-7.5262,-7.5614,-7.5676,-7.5676,-7.5676,-7.5676,-7.5676,-7.5676,-7.5676,-7.5676,-7.5676,-7.5709,-7.5743,-7.5805,-7.5805,-7.5805,-7.5899,-7.6028,-7.5994,-7.5994,-7.5899,-7.6088,-7.6402,-7.6918,-7.7597,-7.8539,-7.955,-8.0286,-8.102,-8.1012,-8.0703,-7.9946,-7.9286,-7.8589,-7.7892,-7.7414,-7.7304,-7.188,-7.2007,-7.2007,-7.2357,-7.2797,-7.2797,-7.317,-7.3783,-7.4388,-7.4778,-7.4747,-7.4897,-7.4866,-7.4984,-7.4984,-7.4866,-7.4984,-7.4984,-7.4984,-7.4897,-7.4889,-7.4826,-7.4549,-7.4116,-7.3845,-7.3317,-7.2653,-7.1914,-7.1566,-7.1362,-7.1388,-7.1874,-7.1828,-7.1922,-7.2372,-7.2116,-7.1986,-7.2052,-7.1952,-7.1985,-7.1819,-7.1885,-7.2018,-7.1885,-7.1852,-7.1852,-7.1885,-7.1951,-7.2018,-7.1985,-7.1951,-7.1852,-7.1786,-7.1786,-7.1819,-7.1819,-7.1686,-7.1653,-7.172,-7.1918,-7.2349,-7.2813,-7.3177,-7.3608,-7.4005,-7.4171,-7.4171,-7.4171,-7.4171,-7.4171,-7.4171,-7.4171,-7.4171,-7.4272,-7.4372,-7.4573,-7.487,-7.5067,-7.5422,-7.5614,-7.5676,-7.5676,-7.5676,-7.5676,-7.5676,-7.5676,-7.5676,-7.5676,-7.5676,-7.5676,-7.5676,-7.5676,-7.5676,-7.5709,-7.5709,-7.5805,-7.5805,-7.5676,-7.5676,-7.5994,-7.6402,-7.6918,-7.7421,-7.842,-7.955,-8.0095,-8.0658,-8.0837,-8.0677,-7.9881,-7.927,-7.8846,-7.8222,-7.7524,-7.7341,-7.1307,-7.1564,-7.185,-7.2104,-7.2231,-7.2231,-7.2357,-7.2483,-7.2578,-7.3324,-7.4026,-7.4147,-7.4147,-7.4026,-7.4026,-7.4026,-7.4026,-7.4026,-7.4147,-7.4026,-7.4026,-7.4026,-7.4026,-7.3776,-7.3464,-7.302,-7.2269,-7.112,-7.0485,-7.0482,-7.0726,-7.1029,-7.1292,-7.1874,-7.2436,-7.2265,-7.2437,-7.2704,-7.2871,-7.2579,-7.2184,-7.1985,-7.2018,-7.2051,-7.2084,-7.2183,-7.215,-7.2117,-7.2051,-7.1985,-7.1985,-7.1985,-7.1985,-7.2051,-7.2018,-7.2018,-7.2183,-7.2216,-7.2349,-7.2614,-7.2978,-7.3243,-7.3541,-7.3873,-7.4105,-7.4138,-7.4171,-7.4171,-7.4171,-7.4171,-7.4171,-7.4171,-7.4272,-7.4272,-7.4372,-7.4672,-7.4968,-7.5262,-7.5518,-7.5614,-7.5676,-7.5676,-7.5676,-7.5676,-7.5676,-7.5676,-7.5676,-7.5676,-7.5676,-7.5676,-7.5676,-7.5676,-7.5676,-7.5676,-7.5676,-7.5676,-7.5676,-7.5676,-7.5676,-7.5994,-7.6402,-7.7154,-7.7858,-7.8622,-7.9471,-8.0018,-8.0656,-8.102,-8.075,-7.9881,-7.9416,-7.9066,-7.8148,-7.7378,-7.7341,-7.1048,-7.1178,-7.1466,-7.1564,-7.1722,-7.1692,-7.185,-7.1977,-7.1977,-7.2357,-7.2952,-7.3077,-7.3077,-7.3077,-7.3077,-7.3046,-7.3077,-7.3077,-7.2952,-7.3077,-7.32,-7.3077,-7.3077,-7.317,-7.2583,-7.2028,-7.1011,-6.9993,-6.9364,-6.9588,-6.9818,-7.0243,-7.0806,-7.136,-7.2014,-7.2249,-7.2534,-7.2835,-7.324,-7.2925,-7.2378,-7.2579,-7.2945,-7.2978,-7.2945,-7.2912,-7.2945,-7.2978,-7.2978,-7.2978,-7.3045,-7.3078,-7.3111,-7.3111,-7.3011,-7.3045,-7.3078,-7.2945,-7.3045,-7.3243,-7.3541,-7.3707,-7.3807,-7.4138,-7.4138,-7.4171,-7.4171,-7.4171,-7.4171,-7.4171,-7.4171,-7.4171,-7.4272,-7.4372,-7.4473,-7.4672,-7.5067,-7.5422,-7.5614,-7.5676,-7.5676,-7.5676,-7.5676,-7.5676,-7.5676,-7.5676,-7.5676,-7.5676,-7.5676,-7.5676,-7.5676,-7.5676,-7.5676,-7.5676,-7.5676,-7.5676,-7.5676,-7.5676,-7.5676,-7.6088,-7.6553,-7.7509,-7.8371,-7.887,-7.9471,-8.0054,-8.0546,-8.1056,-8.064,-7.9771,-7.949,-7.925,-7.8259,-7.7341,-7.7341,-7.0919,-7.0919,-7.0919,-7.1018,-7.1277,-7.1307,-7.1564,-7.185,-7.185,-7.185,-7.185,-7.1977,-7.188,-7.2007,-7.1977,-7.1977,-7.2104,-7.2357,-7.2231,-7.2104,-7.2104,-7.2357,-7.2231,-7.2073,-7.1652,-7.086,-6.9854,-6.9122,-6.8566,-6.8772,-6.9123,-6.9588,-7.0047,-7.0613,-7.125,-7.1516,-7.1733,-7.2154,-7.2466,-7.268,-7.3005,-7.3628,-7.3803,-7.397,-7.4171,-7.4171,-7.4138,-7.4138,-7.4138,-7.4072,-7.3906,-7.3906,-7.3873,-7.384,-7.3873,-7.3873,-7.3807,-7.3873,-7.3972,-7.3939,-7.4072,-7.4138,-7.4171,-7.4171,-7.4171,-7.4171,-7.4171,-7.4171,-7.4171,-7.4171,-7.4171,-7.4272,-7.4372,-7.4573,-7.4672,-7.487,-7.5228,-7.5518,-7.5614,-7.5676,-7.5676,-7.5676,-7.5676,-7.5676,-7.5676,-7.5676,-7.5676,-7.5676,-7.5676,-7.5676,-7.5676,-7.5676,-7.5676,-7.5676,-7.5676,-7.5676,-7.5676,-7.5676,-7.5771,-7.6148,-7.6702,-7.7597,-7.8287,-7.8906,-7.9471,-8.013,-8.062,-8.1056,-8.0458,-7.9735,-7.9636,-7.9323,-7.8075,-7.7341,-7.7341,-7.0919,-7.0919,-7.0919,-7.0919,-7.1018,-7.1048,-7.1048,-7.1048,-7.1178,-7.1178,-7.1178,-7.1178,-7.1307,-7.1977,-7.1977,-7.1977,-7.185,-7.185,-7.1977,-7.1977,-7.185,-7.185,-7.1759,-7.1419,-7.1157,-7.0247,-6.9153,-6.8638,-6.815,-6.8179,-6.8417,-6.9006,-6.9123,-6.9588,-7.0388,-7.0582,-7.0694,-7.1203,-7.1644,-7.1862,-7.2154,-7.2762,-7.3558,-7.3764,-7.3899,-7.3968,-7.4171,-7.4171,-7.4171,-7.4171,-7.4171,-7.4171,-7.4204,-7.4237,-7.4303,-7.4337,-7.4337,-7.4337,-7.4337,-7.4204,-7.4204,-7.4171,-7.4171,-7.4171,-7.4171,-7.4171,-7.4171,-7.4171,-7.4171,-7.4171,-7.4171,-7.4272,-7.4372,-7.4672,-7.487,-7.5228,-7.5518,-7.5614,-7.5676,-7.5676,-7.5676,-7.5676,-7.5676,-7.5676,-7.5676,-7.5676,-7.5676,-7.5676,-7.5676,-7.5676,-7.5676,-7.5676,-7.5676,-7.5676,-7.5676,-7.5676,-7.5676,-7.5676,-7.5771,-7.6241,-7.6884,-7.7597,-7.8287,-7.8906,-7.9471,-8.013,-8.062,-8.1091,-8.0531,-7.9917,-7.9819,-7.936,-7.8112,-7.7524,-7.7671]}]]